<?xml version="1.0" encoding="UTF-8"?>
<gpx version="1.0" creator="Trackator Lite" xmlns:xsi="http://www.w3.org/2001/XMLSchema-instance" xmlns="http://www.topografix.com/GPX/1/0" xmlns:topografix="http://www.topografix.com/GPX/Private/TopoGrafix/0/1" xsi:schemaLocation="http://www.topografix.com/GPX/1/0 http://www.topografix.com/GPX/1/0/gpx.xsd http://www.topografix.com/GPX/Private/TopoGrafix/0/1 http://www.topografix.com/GPX/Private/TopoGrafix/0/1/topografix.xsd">
<metadata>
<link href="http://www.trackalia.com"><text>Trackator</text>
</link>
</metadata>
<time>2014-10-04T12:14:42Z</time>
<trk>
<name>Track: </name>
<desc>Parapente</desc>
<trkseg>
<trkpt lat="42.942158" lon="-0.8466833">
<ele>1407</ele>
<time>2014-10-04T12:14:54Z</time>
</trkpt>
<trkpt lat="42.942123" lon="-0.8466832">
<ele>1409</ele>
<time>2014-10-04T12:14:56Z</time>
</trkpt>
<trkpt lat="42.94213" lon="-0.84667796">
<ele>1411</ele>
<time>2014-10-04T12:14:58Z</time>
</trkpt>
<trkpt lat="42.942127" lon="-0.8466671">
<ele>1411</ele>
<time>2014-10-04T12:15:00Z</time>
</trkpt>
<trkpt lat="42.942127" lon="-0.84666854">
<ele>1411</ele>
<time>2014-10-04T12:15:02Z</time>
</trkpt>
<trkpt lat="42.94212" lon="-0.8466839">
<ele>1412</ele>
<time>2014-10-04T12:15:04Z</time>
</trkpt>
<trkpt lat="42.94212" lon="-0.84667724">
<ele>1411</ele>
<time>2014-10-04T12:15:06Z</time>
</trkpt>
<trkpt lat="42.942085" lon="-0.8466894">
<ele>1411</ele>
<time>2014-10-04T12:15:08Z</time>
</trkpt>
<trkpt lat="42.942036" lon="-0.84670675">
<ele>1410</ele>
<time>2014-10-04T12:15:10Z</time>
</trkpt>
<trkpt lat="42.941948" lon="-0.8467422">
<ele>1404</ele>
<time>2014-10-04T12:15:12Z</time>
</trkpt>
<trkpt lat="42.94181" lon="-0.8467899">
<ele>1400</ele>
<time>2014-10-04T12:15:14Z</time>
</trkpt>
<trkpt lat="42.941692" lon="-0.8468297">
<ele>1399</ele>
<time>2014-10-04T12:15:16Z</time>
</trkpt>
<trkpt lat="42.941593" lon="-0.84676856">
<ele>1396</ele>
<time>2014-10-04T12:15:18Z</time>
</trkpt>
<trkpt lat="42.941467" lon="-0.8467744">
<ele>1393</ele>
<time>2014-10-04T12:15:20Z</time>
</trkpt>
<trkpt lat="42.941326" lon="-0.84675956">
<ele>1391</ele>
<time>2014-10-04T12:15:22Z</time>
</trkpt>
<trkpt lat="42.941193" lon="-0.84670484">
<ele>1391</ele>
<time>2014-10-04T12:15:24Z</time>
</trkpt>
<trkpt lat="42.941067" lon="-0.84661084">
<ele>1390</ele>
<time>2014-10-04T12:15:26Z</time>
</trkpt>
<trkpt lat="42.940987" lon="-0.84638065">
<ele>1390</ele>
<time>2014-10-04T12:15:28Z</time>
</trkpt>
<trkpt lat="42.940895" lon="-0.8462262">
<ele>1389</ele>
<time>2014-10-04T12:15:30Z</time>
</trkpt>
<trkpt lat="42.940845" lon="-0.84608334">
<ele>1386</ele>
<time>2014-10-04T12:15:32Z</time>
</trkpt>
<trkpt lat="42.94079" lon="-0.84589374">
<ele>1383</ele>
<time>2014-10-04T12:15:34Z</time>
</trkpt>
<trkpt lat="42.94071" lon="-0.8457185">
<ele>1382</ele>
<time>2014-10-04T12:15:36Z</time>
</trkpt>
<trkpt lat="42.940647" lon="-0.84556335">
<ele>1382</ele>
<time>2014-10-04T12:15:38Z</time>
</trkpt>
<trkpt lat="42.94055" lon="-0.84538925">
<ele>1380</ele>
<time>2014-10-04T12:15:40Z</time>
</trkpt>
<trkpt lat="42.940445" lon="-0.8451982">
<ele>1379</ele>
<time>2014-10-04T12:15:42Z</time>
</trkpt>
<trkpt lat="42.94036" lon="-0.84503746">
<ele>1379</ele>
<time>2014-10-04T12:15:44Z</time>
</trkpt>
<trkpt lat="42.94033" lon="-0.8448211">
<ele>1376</ele>
<time>2014-10-04T12:15:46Z</time>
</trkpt>
<trkpt lat="42.940258" lon="-0.84462696">
<ele>1373</ele>
<time>2014-10-04T12:15:48Z</time>
</trkpt>
<trkpt lat="42.94015" lon="-0.84453416">
<ele>1372</ele>
<time>2014-10-04T12:15:50Z</time>
</trkpt>
<trkpt lat="42.94004" lon="-0.8445942">
<ele>1369</ele>
<time>2014-10-04T12:15:52Z</time>
</trkpt>
<trkpt lat="42.93996" lon="-0.8447866">
<ele>1365</ele>
<time>2014-10-04T12:15:54Z</time>
</trkpt>
<trkpt lat="42.94" lon="-0.84505194">
<ele>1361</ele>
<time>2014-10-04T12:15:56Z</time>
</trkpt>
<trkpt lat="42.94015" lon="-0.84523344">
<ele>1361</ele>
<time>2014-10-04T12:15:58Z</time>
</trkpt>
<trkpt lat="42.940247" lon="-0.84537745">
<ele>1362</ele>
<time>2014-10-04T12:16:00Z</time>
</trkpt>
<trkpt lat="42.940365" lon="-0.8455497">
<ele>1360</ele>
<time>2014-10-04T12:16:02Z</time>
</trkpt>
<trkpt lat="42.94048" lon="-0.84576166">
<ele>1361</ele>
<time>2014-10-04T12:16:04Z</time>
</trkpt>
<trkpt lat="42.940525" lon="-0.8459651">
<ele>1362</ele>
<time>2014-10-04T12:16:06Z</time>
</trkpt>
<trkpt lat="42.940548" lon="-0.8461584">
<ele>1363</ele>
<time>2014-10-04T12:16:08Z</time>
</trkpt>
<trkpt lat="42.940475" lon="-0.846392">
<ele>1362</ele>
<time>2014-10-04T12:16:10Z</time>
</trkpt>
<trkpt lat="42.940395" lon="-0.8465498">
<ele>1363</ele>
<time>2014-10-04T12:16:12Z</time>
</trkpt>
<trkpt lat="42.94027" lon="-0.84632075">
<ele>1360</ele>
<time>2014-10-04T12:16:14Z</time>
</trkpt>
<trkpt lat="42.940247" lon="-0.84611505">
<ele>1359</ele>
<time>2014-10-04T12:16:16Z</time>
</trkpt>
<trkpt lat="42.94031" lon="-0.8459194">
<ele>1358</ele>
<time>2014-10-04T12:16:18Z</time>
</trkpt>
<trkpt lat="42.940468" lon="-0.845708">
<ele>1359</ele>
<time>2014-10-04T12:16:20Z</time>
</trkpt>
<trkpt lat="42.94054" lon="-0.84548694">
<ele>1359</ele>
<time>2014-10-04T12:16:22Z</time>
</trkpt>
<trkpt lat="42.94061" lon="-0.8452432">
<ele>1359</ele>
<time>2014-10-04T12:16:24Z</time>
</trkpt>
<trkpt lat="42.9406" lon="-0.84504384">
<ele>1356</ele>
<time>2014-10-04T12:16:26Z</time>
</trkpt>
<trkpt lat="42.94054" lon="-0.84487695">
<ele>1356</ele>
<time>2014-10-04T12:16:28Z</time>
</trkpt>
<trkpt lat="42.940468" lon="-0.84474385">
<ele>1356</ele>
<time>2014-10-04T12:16:30Z</time>
</trkpt>
<trkpt lat="42.94042" lon="-0.8446019">
<ele>1357</ele>
<time>2014-10-04T12:16:32Z</time>
</trkpt>
<trkpt lat="42.940315" lon="-0.84448427">
<ele>1353</ele>
<time>2014-10-04T12:16:34Z</time>
</trkpt>
<trkpt lat="42.940174" lon="-0.8445236">
<ele>1350</ele>
<time>2014-10-04T12:16:36Z</time>
</trkpt>
<trkpt lat="42.94011" lon="-0.84467804">
<ele>1349</ele>
<time>2014-10-04T12:16:38Z</time>
</trkpt>
<trkpt lat="42.940113" lon="-0.84486896">
<ele>1347</ele>
<time>2014-10-04T12:16:40Z</time>
</trkpt>
<trkpt lat="42.940277" lon="-0.8450241">
<ele>1345</ele>
<time>2014-10-04T12:16:42Z</time>
</trkpt>
<trkpt lat="42.94044" lon="-0.84514946">
<ele>1348</ele>
<time>2014-10-04T12:16:44Z</time>
</trkpt>
<trkpt lat="42.940567" lon="-0.8452951">
<ele>1350</ele>
<time>2014-10-04T12:16:46Z</time>
</trkpt>
<trkpt lat="42.94063" lon="-0.84550595">
<ele>1349</ele>
<time>2014-10-04T12:16:48Z</time>
</trkpt>
<trkpt lat="42.940666" lon="-0.84572273">
<ele>1350</ele>
<time>2014-10-04T12:16:50Z</time>
</trkpt>
<trkpt lat="42.940662" lon="-0.8459174">
<ele>1350</ele>
<time>2014-10-04T12:16:52Z</time>
</trkpt>
<trkpt lat="42.940666" lon="-0.8461517">
<ele>1350</ele>
<time>2014-10-04T12:16:54Z</time>
</trkpt>
<trkpt lat="42.940662" lon="-0.8463781">
<ele>1351</ele>
<time>2014-10-04T12:16:56Z</time>
</trkpt>
<trkpt lat="42.94064" lon="-0.8465781">
<ele>1352</ele>
<time>2014-10-04T12:16:58Z</time>
</trkpt>
<trkpt lat="42.940617" lon="-0.8467916">
<ele>1352</ele>
<time>2014-10-04T12:17:00Z</time>
</trkpt>
<trkpt lat="42.940636" lon="-0.8470252">
<ele>1353</ele>
<time>2014-10-04T12:17:02Z</time>
</trkpt>
<trkpt lat="42.940655" lon="-0.8472574">
<ele>1354</ele>
<time>2014-10-04T12:17:04Z</time>
</trkpt>
<trkpt lat="42.94072" lon="-0.84744924">
<ele>1354</ele>
<time>2014-10-04T12:17:06Z</time>
</trkpt>
<trkpt lat="42.9408" lon="-0.8476259">
<ele>1354</ele>
<time>2014-10-04T12:17:08Z</time>
</trkpt>
<trkpt lat="42.9409" lon="-0.8478127">
<ele>1353</ele>
<time>2014-10-04T12:17:10Z</time>
</trkpt>
<trkpt lat="42.94083" lon="-0.8480103">
<ele>1354</ele>
<time>2014-10-04T12:17:12Z</time>
</trkpt>
<trkpt lat="42.940704" lon="-0.8480849">
<ele>1354</ele>
<time>2014-10-04T12:17:14Z</time>
</trkpt>
<trkpt lat="42.94062" lon="-0.8477635">
<ele>1353</ele>
<time>2014-10-04T12:17:16Z</time>
</trkpt>
<trkpt lat="42.940617" lon="-0.8475278">
<ele>1353</ele>
<time>2014-10-04T12:17:18Z</time>
</trkpt>
<trkpt lat="42.940628" lon="-0.8473029">
<ele>1352</ele>
<time>2014-10-04T12:17:20Z</time>
</trkpt>
<trkpt lat="42.940643" lon="-0.8470972">
<ele>1352</ele>
<time>2014-10-04T12:17:22Z</time>
</trkpt>
<trkpt lat="42.9407" lon="-0.8468728">
<ele>1353</ele>
<time>2014-10-04T12:17:24Z</time>
</trkpt>
<trkpt lat="42.940742" lon="-0.846652">
<ele>1353</ele>
<time>2014-10-04T12:17:26Z</time>
</trkpt>
<trkpt lat="42.9408" lon="-0.8464628">
<ele>1354</ele>
<time>2014-10-04T12:17:28Z</time>
</trkpt>
<trkpt lat="42.940903" lon="-0.8462502">
<ele>1356</ele>
<time>2014-10-04T12:17:30Z</time>
</trkpt>
<trkpt lat="42.94094" lon="-0.8460547">
<ele>1356</ele>
<time>2014-10-04T12:17:32Z</time>
</trkpt>
<trkpt lat="42.940926" lon="-0.8458715">
<ele>1356</ele>
<time>2014-10-04T12:17:34Z</time>
</trkpt>
<trkpt lat="42.940876" lon="-0.8457163">
<ele>1354</ele>
<time>2014-10-04T12:17:36Z</time>
</trkpt>
<trkpt lat="42.940773" lon="-0.8456257">
<ele>1353</ele>
<time>2014-10-04T12:17:38Z</time>
</trkpt>
<trkpt lat="42.940678" lon="-0.8456705">
<ele>1352</ele>
<time>2014-10-04T12:17:40Z</time>
</trkpt>
<trkpt lat="42.940624" lon="-0.84582716">
<ele>1348</ele>
<time>2014-10-04T12:17:42Z</time>
</trkpt>
<trkpt lat="42.940674" lon="-0.8460757">
<ele>1349</ele>
<time>2014-10-04T12:17:44Z</time>
</trkpt>
<trkpt lat="42.940773" lon="-0.846318">
<ele>1349</ele>
<time>2014-10-04T12:17:46Z</time>
</trkpt>
<trkpt lat="42.9408" lon="-0.84654814">
<ele>1350</ele>
<time>2014-10-04T12:17:48Z</time>
</trkpt>
<trkpt lat="42.94086" lon="-0.8467654">
<ele>1350</ele>
<time>2014-10-04T12:17:50Z</time>
</trkpt>
<trkpt lat="42.940887" lon="-0.84697795">
<ele>1352</ele>
<time>2014-10-04T12:17:52Z</time>
</trkpt>
<trkpt lat="42.94093" lon="-0.84720373">
<ele>1355</ele>
<time>2014-10-04T12:17:54Z</time>
</trkpt>
<trkpt lat="42.940994" lon="-0.8474262">
<ele>1357</ele>
<time>2014-10-04T12:17:56Z</time>
</trkpt>
<trkpt lat="42.941025" lon="-0.8476336">
<ele>1357</ele>
<time>2014-10-04T12:17:58Z</time>
</trkpt>
<trkpt lat="42.94102" lon="-0.84786725">
<ele>1358</ele>
<time>2014-10-04T12:18:00Z</time>
</trkpt>
<trkpt lat="42.940918" lon="-0.8479959">
<ele>1359</ele>
<time>2014-10-04T12:18:02Z</time>
</trkpt>
<trkpt lat="42.940796" lon="-0.84795004">
<ele>1360</ele>
<time>2014-10-04T12:18:04Z</time>
</trkpt>
<trkpt lat="42.94073" lon="-0.84765553">
<ele>1356</ele>
<time>2014-10-04T12:18:06Z</time>
</trkpt>
<trkpt lat="42.940712" lon="-0.84746104">
<ele>1357</ele>
<time>2014-10-04T12:18:08Z</time>
</trkpt>
<trkpt lat="42.94073" lon="-0.8473175">
<ele>1356</ele>
<time>2014-10-04T12:18:10Z</time>
</trkpt>
<trkpt lat="42.940796" lon="-0.84710175">
<ele>1353</ele>
<time>2014-10-04T12:18:12Z</time>
</trkpt>
<trkpt lat="42.940807" lon="-0.8468797">
<ele>1352</ele>
<time>2014-10-04T12:18:14Z</time>
</trkpt>
<trkpt lat="42.940815" lon="-0.8466847">
<ele>1352</ele>
<time>2014-10-04T12:18:16Z</time>
</trkpt>
<trkpt lat="42.94078" lon="-0.8464805">
<ele>1353</ele>
<time>2014-10-04T12:18:18Z</time>
</trkpt>
<trkpt lat="42.94077" lon="-0.84628737">
<ele>1353</ele>
<time>2014-10-04T12:18:20Z</time>
</trkpt>
<trkpt lat="42.94079" lon="-0.8460764">
<ele>1353</ele>
<time>2014-10-04T12:18:22Z</time>
</trkpt>
<trkpt lat="42.94077" lon="-0.84584874">
<ele>1353</ele>
<time>2014-10-04T12:18:24Z</time>
</trkpt>
<trkpt lat="42.940735" lon="-0.8456573">
<ele>1352</ele>
<time>2014-10-04T12:18:26Z</time>
</trkpt>
<trkpt lat="42.940647" lon="-0.84559256">
<ele>1351</ele>
<time>2014-10-04T12:18:28Z</time>
</trkpt>
<trkpt lat="42.940536" lon="-0.84561396">
<ele>1350</ele>
<time>2014-10-04T12:18:30Z</time>
</trkpt>
<trkpt lat="42.940533" lon="-0.84584343">
<ele>1348</ele>
<time>2014-10-04T12:18:32Z</time>
</trkpt>
<trkpt lat="42.940586" lon="-0.84606135">
<ele>1348</ele>
<time>2014-10-04T12:18:34Z</time>
</trkpt>
<trkpt lat="42.940697" lon="-0.8462335">
<ele>1349</ele>
<time>2014-10-04T12:18:36Z</time>
</trkpt>
<trkpt lat="42.94076" lon="-0.84643745">
<ele>1348</ele>
<time>2014-10-04T12:18:38Z</time>
</trkpt>
<trkpt lat="42.940754" lon="-0.8467115">
<ele>1348</ele>
<time>2014-10-04T12:18:40Z</time>
</trkpt>
<trkpt lat="42.940742" lon="-0.8469643">
<ele>1347</ele>
<time>2014-10-04T12:18:42Z</time>
</trkpt>
<trkpt lat="42.940758" lon="-0.8471599">
<ele>1346</ele>
<time>2014-10-04T12:18:44Z</time>
</trkpt>
<trkpt lat="42.94077" lon="-0.8473949">
<ele>1347</ele>
<time>2014-10-04T12:18:46Z</time>
</trkpt>
<trkpt lat="42.940804" lon="-0.84758544">
<ele>1349</ele>
<time>2014-10-04T12:18:48Z</time>
</trkpt>
<trkpt lat="42.940845" lon="-0.84776247">
<ele>1348</ele>
<time>2014-10-04T12:18:50Z</time>
</trkpt>
<trkpt lat="42.94084" lon="-0.84801036">
<ele>1344</ele>
<time>2014-10-04T12:18:52Z</time>
</trkpt>
<trkpt lat="42.94071" lon="-0.8481967">
<ele>1344</ele>
<time>2014-10-04T12:18:54Z</time>
</trkpt>
<trkpt lat="42.94057" lon="-0.8482418">
<ele>1344</ele>
<time>2014-10-04T12:18:56Z</time>
</trkpt>
<trkpt lat="42.940475" lon="-0.84804934">
<ele>1342</ele>
<time>2014-10-04T12:18:58Z</time>
</trkpt>
<trkpt lat="42.940437" lon="-0.8478512">
<ele>1341</ele>
<time>2014-10-04T12:19:00Z</time>
</trkpt>
<trkpt lat="42.940468" lon="-0.84766567">
<ele>1341</ele>
<time>2014-10-04T12:19:02Z</time>
</trkpt>
<trkpt lat="42.94053" lon="-0.8474806">
<ele>1341</ele>
<time>2014-10-04T12:19:04Z</time>
</trkpt>
<trkpt lat="42.940617" lon="-0.84725505">
<ele>1340</ele>
<time>2014-10-04T12:19:06Z</time>
</trkpt>
<trkpt lat="42.94069" lon="-0.8470375">
<ele>1340</ele>
<time>2014-10-04T12:19:08Z</time>
</trkpt>
<trkpt lat="42.940742" lon="-0.8468186">
<ele>1340</ele>
<time>2014-10-04T12:19:10Z</time>
</trkpt>
<trkpt lat="42.940773" lon="-0.8466179">
<ele>1340</ele>
<time>2014-10-04T12:19:12Z</time>
</trkpt>
<trkpt lat="42.940796" lon="-0.8464179">
<ele>1340</ele>
<time>2014-10-04T12:19:14Z</time>
</trkpt>
<trkpt lat="42.940838" lon="-0.8462139">
<ele>1341</ele>
<time>2014-10-04T12:19:16Z</time>
</trkpt>
<trkpt lat="42.940853" lon="-0.8459627">
<ele>1339</ele>
<time>2014-10-04T12:19:18Z</time>
</trkpt>
<trkpt lat="42.940823" lon="-0.84575593">
<ele>1340</ele>
<time>2014-10-04T12:19:20Z</time>
</trkpt>
<trkpt lat="42.9408" lon="-0.8455675">
<ele>1341</ele>
<time>2014-10-04T12:19:22Z</time>
</trkpt>
<trkpt lat="42.940754" lon="-0.8453611">
<ele>1341</ele>
<time>2014-10-04T12:19:24Z</time>
</trkpt>
<trkpt lat="42.94068" lon="-0.8451765">
<ele>1347</ele>
<time>2014-10-04T12:19:26Z</time>
</trkpt>
<trkpt lat="42.940624" lon="-0.84500235">
<ele>1350</ele>
<time>2014-10-04T12:19:28Z</time>
</trkpt>
<trkpt lat="42.940536" lon="-0.8448499">
<ele>1353</ele>
<time>2014-10-04T12:19:30Z</time>
</trkpt>
<trkpt lat="42.940437" lon="-0.84473145">
<ele>1357</ele>
<time>2014-10-04T12:19:32Z</time>
</trkpt>
<trkpt lat="42.940342" lon="-0.8447683">
<ele>1355</ele>
<time>2014-10-04T12:19:34Z</time>
</trkpt>
<trkpt lat="42.94025" lon="-0.84488684">
<ele>1354</ele>
<time>2014-10-04T12:19:36Z</time>
</trkpt>
<trkpt lat="42.9402" lon="-0.8450695">
<ele>1354</ele>
<time>2014-10-04T12:19:38Z</time>
</trkpt>
<trkpt lat="42.94041" lon="-0.84526736">
<ele>1353</ele>
<time>2014-10-04T12:19:40Z</time>
</trkpt>
<trkpt lat="42.940586" lon="-0.84535503">
<ele>1361</ele>
<time>2014-10-04T12:19:42Z</time>
</trkpt>
<trkpt lat="42.94071" lon="-0.84546477">
<ele>1366</ele>
<time>2014-10-04T12:19:44Z</time>
</trkpt>
<trkpt lat="42.940815" lon="-0.8456578">
<ele>1368</ele>
<time>2014-10-04T12:19:46Z</time>
</trkpt>
<trkpt lat="42.940903" lon="-0.8459196">
<ele>1369</ele>
<time>2014-10-04T12:19:48Z</time>
</trkpt>
<trkpt lat="42.940956" lon="-0.8461455">
<ele>1370</ele>
<time>2014-10-04T12:19:50Z</time>
</trkpt>
<trkpt lat="42.940918" lon="-0.8463286">
<ele>1367</ele>
<time>2014-10-04T12:19:52Z</time>
</trkpt>
<trkpt lat="42.940907" lon="-0.84654176">
<ele>1367</ele>
<time>2014-10-04T12:19:54Z</time>
</trkpt>
<trkpt lat="42.940926" lon="-0.846751">
<ele>1369</ele>
<time>2014-10-04T12:19:56Z</time>
</trkpt>
<trkpt lat="42.94095" lon="-0.8469464">
<ele>1369</ele>
<time>2014-10-04T12:19:58Z</time>
</trkpt>
<trkpt lat="42.940975" lon="-0.8471894">
<ele>1367</ele>
<time>2014-10-04T12:20:00Z</time>
</trkpt>
<trkpt lat="42.940956" lon="-0.84740895">
<ele>1366</ele>
<time>2014-10-04T12:20:02Z</time>
</trkpt>
<trkpt lat="42.940807" lon="-0.84751457">
<ele>1366</ele>
<time>2014-10-04T12:20:04Z</time>
</trkpt>
<trkpt lat="42.940712" lon="-0.8471999">
<ele>1363</ele>
<time>2014-10-04T12:20:06Z</time>
</trkpt>
<trkpt lat="42.9407" lon="-0.84701586">
<ele>1362</ele>
<time>2014-10-04T12:20:08Z</time>
</trkpt>
<trkpt lat="42.94073" lon="-0.8468212">
<ele>1362</ele>
<time>2014-10-04T12:20:10Z</time>
</trkpt>
<trkpt lat="42.940754" lon="-0.8466286">
<ele>1362</ele>
<time>2014-10-04T12:20:12Z</time>
</trkpt>
<trkpt lat="42.940765" lon="-0.84640324">
<ele>1362</ele>
<time>2014-10-04T12:20:14Z</time>
</trkpt>
<trkpt lat="42.94075" lon="-0.84619534">
<ele>1362</ele>
<time>2014-10-04T12:20:16Z</time>
</trkpt>
<trkpt lat="42.940754" lon="-0.8459506">
<ele>1362</ele>
<time>2014-10-04T12:20:18Z</time>
</trkpt>
<trkpt lat="42.940765" lon="-0.84571505">
<ele>1364</ele>
<time>2014-10-04T12:20:20Z</time>
</trkpt>
<trkpt lat="42.94076" lon="-0.84549415">
<ele>1365</ele>
<time>2014-10-04T12:20:22Z</time>
</trkpt>
<trkpt lat="42.940792" lon="-0.84529597">
<ele>1365</ele>
<time>2014-10-04T12:20:24Z</time>
</trkpt>
<trkpt lat="42.94086" lon="-0.8450705">
<ele>1365</ele>
<time>2014-10-04T12:20:26Z</time>
</trkpt>
<trkpt lat="42.94087" lon="-0.8448531">
<ele>1365</ele>
<time>2014-10-04T12:20:28Z</time>
</trkpt>
<trkpt lat="42.940838" lon="-0.84463096">
<ele>1365</ele>
<time>2014-10-04T12:20:30Z</time>
</trkpt>
<trkpt lat="42.94079" lon="-0.8445538">
<ele>1365</ele>
<time>2014-10-04T12:20:32Z</time>
</trkpt>
<trkpt lat="42.940693" lon="-0.84466034">
<ele>1364</ele>
<time>2014-10-04T12:20:34Z</time>
</trkpt>
<trkpt lat="42.94064" lon="-0.8448005">
<ele>1362</ele>
<time>2014-10-04T12:20:36Z</time>
</trkpt>
<trkpt lat="42.940636" lon="-0.8450403">
<ele>1362</ele>
<time>2014-10-04T12:20:38Z</time>
</trkpt>
<trkpt lat="42.94078" lon="-0.8452331">
<ele>1365</ele>
<time>2014-10-04T12:20:40Z</time>
</trkpt>
<trkpt lat="42.94088" lon="-0.8454136">
<ele>1367</ele>
<time>2014-10-04T12:20:42Z</time>
</trkpt>
<trkpt lat="42.940956" lon="-0.84561026">
<ele>1368</ele>
<time>2014-10-04T12:20:44Z</time>
</trkpt>
<trkpt lat="42.94101" lon="-0.8458572">
<ele>1370</ele>
<time>2014-10-04T12:20:46Z</time>
</trkpt>
<trkpt lat="42.941055" lon="-0.84607315">
<ele>1371</ele>
<time>2014-10-04T12:20:48Z</time>
</trkpt>
<trkpt lat="42.94105" lon="-0.8462681">
<ele>1371</ele>
<time>2014-10-04T12:20:50Z</time>
</trkpt>
<trkpt lat="42.941067" lon="-0.84649575">
<ele>1372</ele>
<time>2014-10-04T12:20:52Z</time>
</trkpt>
<trkpt lat="42.941097" lon="-0.8466781">
<ele>1374</ele>
<time>2014-10-04T12:20:54Z</time>
</trkpt>
<trkpt lat="42.94112" lon="-0.8468914">
<ele>1374</ele>
<time>2014-10-04T12:20:56Z</time>
</trkpt>
<trkpt lat="42.94106" lon="-0.8470502">
<ele>1374</ele>
<time>2014-10-04T12:20:58Z</time>
</trkpt>
<trkpt lat="42.940887" lon="-0.8468838">
<ele>1371</ele>
<time>2014-10-04T12:21:00Z</time>
</trkpt>
<trkpt lat="42.940857" lon="-0.846656">
<ele>1370</ele>
<time>2014-10-04T12:21:02Z</time>
</trkpt>
<trkpt lat="42.940884" lon="-0.846447">
<ele>1370</ele>
<time>2014-10-04T12:21:04Z</time>
</trkpt>
<trkpt lat="42.940945" lon="-0.846275">
<ele>1370</ele>
<time>2014-10-04T12:21:06Z</time>
</trkpt>
<trkpt lat="42.940975" lon="-0.84604245">
<ele>1370</ele>
<time>2014-10-04T12:21:08Z</time>
</trkpt>
<trkpt lat="42.94099" lon="-0.84582835">
<ele>1370</ele>
<time>2014-10-04T12:21:10Z</time>
</trkpt>
<trkpt lat="42.940998" lon="-0.84562796">
<ele>1371</ele>
<time>2014-10-04T12:21:12Z</time>
</trkpt>
<trkpt lat="42.94097" lon="-0.8453883">
<ele>1371</ele>
<time>2014-10-04T12:21:14Z</time>
</trkpt>
<trkpt lat="42.940994" lon="-0.84520334">
<ele>1375</ele>
<time>2014-10-04T12:21:16Z</time>
</trkpt>
<trkpt lat="42.940987" lon="-0.8450391">
<ele>1373</ele>
<time>2014-10-04T12:21:18Z</time>
</trkpt>
<trkpt lat="42.940933" lon="-0.8449126">
<ele>1372</ele>
<time>2014-10-04T12:21:20Z</time>
</trkpt>
<trkpt lat="42.94087" lon="-0.84496504">
<ele>1372</ele>
<time>2014-10-04T12:21:22Z</time>
</trkpt>
<trkpt lat="42.940838" lon="-0.8451797">
<ele>1373</ele>
<time>2014-10-04T12:21:24Z</time>
</trkpt>
<trkpt lat="42.9409" lon="-0.8454252">
<ele>1374</ele>
<time>2014-10-04T12:21:26Z</time>
</trkpt>
<trkpt lat="42.941" lon="-0.84560704">
<ele>1374</ele>
<time>2014-10-04T12:21:28Z</time>
</trkpt>
<trkpt lat="42.941067" lon="-0.84583974">
<ele>1377</ele>
<time>2014-10-04T12:21:30Z</time>
</trkpt>
<trkpt lat="42.9411" lon="-0.8461039">
<ele>1377</ele>
<time>2014-10-04T12:21:32Z</time>
</trkpt>
<trkpt lat="42.941093" lon="-0.8463141">
<ele>1379</ele>
<time>2014-10-04T12:21:34Z</time>
</trkpt>
<trkpt lat="42.941113" lon="-0.8465481">
<ele>1379</ele>
<time>2014-10-04T12:21:36Z</time>
</trkpt>
<trkpt lat="42.941147" lon="-0.8467436">
<ele>1380</ele>
<time>2014-10-04T12:21:38Z</time>
</trkpt>
<trkpt lat="42.94116" lon="-0.8469527">
<ele>1379</ele>
<time>2014-10-04T12:21:40Z</time>
</trkpt>
<trkpt lat="42.941135" lon="-0.8471897">
<ele>1377</ele>
<time>2014-10-04T12:21:42Z</time>
</trkpt>
<trkpt lat="42.941048" lon="-0.84733814">
<ele>1379</ele>
<time>2014-10-04T12:21:44Z</time>
</trkpt>
<trkpt lat="42.940903" lon="-0.847206">
<ele>1377</ele>
<time>2014-10-04T12:21:46Z</time>
</trkpt>
<trkpt lat="42.940807" lon="-0.8470272">
<ele>1376</ele>
<time>2014-10-04T12:21:48Z</time>
</trkpt>
<trkpt lat="42.940834" lon="-0.8468321">
<ele>1376</ele>
<time>2014-10-04T12:21:50Z</time>
</trkpt>
<trkpt lat="42.940918" lon="-0.84662515">
<ele>1376</ele>
<time>2014-10-04T12:21:52Z</time>
</trkpt>
<trkpt lat="42.940964" lon="-0.84634626">
<ele>1377</ele>
<time>2014-10-04T12:21:54Z</time>
</trkpt>
<trkpt lat="42.941" lon="-0.8461292">
<ele>1377</ele>
<time>2014-10-04T12:21:56Z</time>
</trkpt>
<trkpt lat="42.941013" lon="-0.8459248">
<ele>1377</ele>
<time>2014-10-04T12:21:58Z</time>
</trkpt>
<trkpt lat="42.940975" lon="-0.8457141">
<ele>1377</ele>
<time>2014-10-04T12:22:00Z</time>
</trkpt>
<trkpt lat="42.94095" lon="-0.8454811">
<ele>1379</ele>
<time>2014-10-04T12:22:02Z</time>
</trkpt>
<trkpt lat="42.94093" lon="-0.84528553">
<ele>1380</ele>
<time>2014-10-04T12:22:04Z</time>
</trkpt>
<trkpt lat="42.94075" lon="-0.8452973">
<ele>1373</ele>
<time>2014-10-04T12:22:06Z</time>
</trkpt>
<trkpt lat="42.94069" lon="-0.8455205">
<ele>1372</ele>
<time>2014-10-04T12:22:08Z</time>
</trkpt>
<trkpt lat="42.940704" lon="-0.8457648">
<ele>1371</ele>
<time>2014-10-04T12:22:10Z</time>
</trkpt>
<trkpt lat="42.94078" lon="-0.845895">
<ele>1372</ele>
<time>2014-10-04T12:22:12Z</time>
</trkpt>
<trkpt lat="42.940853" lon="-0.8461252">
<ele>1373</ele>
<time>2014-10-04T12:22:14Z</time>
</trkpt>
<trkpt lat="42.940968" lon="-0.84628665">
<ele>1375</ele>
<time>2014-10-04T12:22:16Z</time>
</trkpt>
<trkpt lat="42.941036" lon="-0.84645206">
<ele>1373</ele>
<time>2014-10-04T12:22:18Z</time>
</trkpt>
<trkpt lat="42.941048" lon="-0.8466898">
<ele>1372</ele>
<time>2014-10-04T12:22:20Z</time>
</trkpt>
<trkpt lat="42.941048" lon="-0.846917">
<ele>1372</ele>
<time>2014-10-04T12:22:22Z</time>
</trkpt>
<trkpt lat="42.94112" lon="-0.84707487">
<ele>1372</ele>
<time>2014-10-04T12:22:24Z</time>
</trkpt>
<trkpt lat="42.941086" lon="-0.8472935">
<ele>1367</ele>
<time>2014-10-04T12:22:26Z</time>
</trkpt>
<trkpt lat="42.940964" lon="-0.8474525">
<ele>1366</ele>
<time>2014-10-04T12:22:28Z</time>
</trkpt>
<trkpt lat="42.94092" lon="-0.84719604">
<ele>1366</ele>
<time>2014-10-04T12:22:30Z</time>
</trkpt>
<trkpt lat="42.940907" lon="-0.8469743">
<ele>1367</ele>
<time>2014-10-04T12:22:32Z</time>
</trkpt>
<trkpt lat="42.94093" lon="-0.8467484">
<ele>1367</ele>
<time>2014-10-04T12:22:34Z</time>
</trkpt>
<trkpt lat="42.94101" lon="-0.84647775">
<ele>1366</ele>
<time>2014-10-04T12:22:36Z</time>
</trkpt>
<trkpt lat="42.940987" lon="-0.8462768">
<ele>1364</ele>
<time>2014-10-04T12:22:38Z</time>
</trkpt>
<trkpt lat="42.940987" lon="-0.8460533">
<ele>1362</ele>
<time>2014-10-04T12:22:40Z</time>
</trkpt>
<trkpt lat="42.940983" lon="-0.8457724">
<ele>1360</ele>
<time>2014-10-04T12:22:42Z</time>
</trkpt>
<trkpt lat="42.940956" lon="-0.8455536">
<ele>1360</ele>
<time>2014-10-04T12:22:44Z</time>
</trkpt>
<trkpt lat="42.940968" lon="-0.84536177">
<ele>1360</ele>
<time>2014-10-04T12:22:46Z</time>
</trkpt>
<trkpt lat="42.940952" lon="-0.84516054">
<ele>1365</ele>
<time>2014-10-04T12:22:48Z</time>
</trkpt>
<trkpt lat="42.940903" lon="-0.84497976">
<ele>1366</ele>
<time>2014-10-04T12:22:50Z</time>
</trkpt>
<trkpt lat="42.940907" lon="-0.84483296">
<ele>1363</ele>
<time>2014-10-04T12:22:52Z</time>
</trkpt>
<trkpt lat="42.940884" lon="-0.84467936">
<ele>1361</ele>
<time>2014-10-04T12:22:53Z</time>
</trkpt>
<trkpt lat="42.940834" lon="-0.84460795">
<ele>1361</ele>
<time>2014-10-04T12:22:56Z</time>
</trkpt>
<trkpt lat="42.94089" lon="-0.84470606">
<ele>1361</ele>
<time>2014-10-04T12:22:58Z</time>
</trkpt>
<trkpt lat="42.94101" lon="-0.84493583">
<ele>1364</ele>
<time>2014-10-04T12:23:00Z</time>
</trkpt>
<trkpt lat="42.94105" lon="-0.8451808">
<ele>1367</ele>
<time>2014-10-04T12:23:02Z</time>
</trkpt>
<trkpt lat="42.941082" lon="-0.8454749">
<ele>1370</ele>
<time>2014-10-04T12:23:04Z</time>
</trkpt>
<trkpt lat="42.94115" lon="-0.8456924">
<ele>1376</ele>
<time>2014-10-04T12:23:06Z</time>
</trkpt>
<trkpt lat="42.94119" lon="-0.8459008">
<ele>1378</ele>
<time>2014-10-04T12:23:08Z</time>
</trkpt>
<trkpt lat="42.941223" lon="-0.84611934">
<ele>1376</ele>
<time>2014-10-04T12:23:10Z</time>
</trkpt>
<trkpt lat="42.941162" lon="-0.84637535">
<ele>1376</ele>
<time>2014-10-04T12:23:12Z</time>
</trkpt>
<trkpt lat="42.94108" lon="-0.8465023">
<ele>1378</ele>
<time>2014-10-04T12:23:14Z</time>
</trkpt>
<trkpt lat="42.940907" lon="-0.8462316">
<ele>1375</ele>
<time>2014-10-04T12:23:16Z</time>
</trkpt>
<trkpt lat="42.94094" lon="-0.8459878">
<ele>1381</ele>
<time>2014-10-04T12:23:18Z</time>
</trkpt>
<trkpt lat="42.94102" lon="-0.84580535">
<ele>1385</ele>
<time>2014-10-04T12:23:20Z</time>
</trkpt>
<trkpt lat="42.94103" lon="-0.8456304">
<ele>1384</ele>
<time>2014-10-04T12:23:22Z</time>
</trkpt>
<trkpt lat="42.941048" lon="-0.8454089">
<ele>1382</ele>
<time>2014-10-04T12:23:24Z</time>
</trkpt>
<trkpt lat="42.94104" lon="-0.8452177">
<ele>1382</ele>
<time>2014-10-04T12:23:26Z</time>
</trkpt>
<trkpt lat="42.941025" lon="-0.8450368">
<ele>1382</ele>
<time>2014-10-04T12:23:28Z</time>
</trkpt>
<trkpt lat="42.940998" lon="-0.84481">
<ele>1379</ele>
<time>2014-10-04T12:23:30Z</time>
</trkpt>
<trkpt lat="42.940964" lon="-0.8446969">
<ele>1381</ele>
<time>2014-10-04T12:23:32Z</time>
</trkpt>
<trkpt lat="42.9409" lon="-0.844626">
<ele>1381</ele>
<time>2014-10-04T12:23:34Z</time>
</trkpt>
<trkpt lat="42.94084" lon="-0.84465176">
<ele>1382</ele>
<time>2014-10-04T12:23:36Z</time>
</trkpt>
<trkpt lat="42.940876" lon="-0.84495157">
<ele>1382</ele>
<time>2014-10-04T12:23:38Z</time>
</trkpt>
<trkpt lat="42.94091" lon="-0.8452155">
<ele>1385</ele>
<time>2014-10-04T12:23:40Z</time>
</trkpt>
<trkpt lat="42.940945" lon="-0.8454029">
<ele>1384</ele>
<time>2014-10-04T12:23:42Z</time>
</trkpt>
<trkpt lat="42.940964" lon="-0.8456324">
<ele>1384</ele>
<time>2014-10-04T12:23:43Z</time>
</trkpt>
<trkpt lat="42.94103" lon="-0.84581745">
<ele>1386</ele>
<time>2014-10-04T12:23:46Z</time>
</trkpt>
<trkpt lat="42.941055" lon="-0.84602773">
<ele>1388</ele>
<time>2014-10-04T12:23:48Z</time>
</trkpt>
<trkpt lat="42.941147" lon="-0.8462645">
<ele>1388</ele>
<time>2014-10-04T12:23:50Z</time>
</trkpt>
<trkpt lat="42.941154" lon="-0.84649473">
<ele>1388</ele>
<time>2014-10-04T12:23:52Z</time>
</trkpt>
<trkpt lat="42.94119" lon="-0.84668">
<ele>1388</ele>
<time>2014-10-04T12:23:54Z</time>
</trkpt>
<trkpt lat="42.94124" lon="-0.84684384">
<ele>1386</ele>
<time>2014-10-04T12:23:56Z</time>
</trkpt>
<trkpt lat="42.941235" lon="-0.84702164">
<ele>1385</ele>
<time>2014-10-04T12:23:58Z</time>
</trkpt>
<trkpt lat="42.941208" lon="-0.8471991">
<ele>1383</ele>
<time>2014-10-04T12:24:00Z</time>
</trkpt>
<trkpt lat="42.941177" lon="-0.84736586">
<ele>1384</ele>
<time>2014-10-04T12:24:02Z</time>
</trkpt>
<trkpt lat="42.94106" lon="-0.8474561">
<ele>1382</ele>
<time>2014-10-04T12:24:04Z</time>
</trkpt>
<trkpt lat="42.940914" lon="-0.8473462">
<ele>1379</ele>
<time>2014-10-04T12:24:06Z</time>
</trkpt>
<trkpt lat="42.94082" lon="-0.84713775">
<ele>1378</ele>
<time>2014-10-04T12:24:08Z</time>
</trkpt>
<trkpt lat="42.94079" lon="-0.8469616">
<ele>1378</ele>
<time>2014-10-04T12:24:10Z</time>
</trkpt>
<trkpt lat="42.94068" lon="-0.8467784">
<ele>1379</ele>
<time>2014-10-04T12:24:12Z</time>
</trkpt>
<trkpt lat="42.9406" lon="-0.84654343">
<ele>1379</ele>
<time>2014-10-04T12:24:14Z</time>
</trkpt>
<trkpt lat="42.940605" lon="-0.8463334">
<ele>1381</ele>
<time>2014-10-04T12:24:16Z</time>
</trkpt>
<trkpt lat="42.94065" lon="-0.8461624">
<ele>1379</ele>
<time>2014-10-04T12:24:17Z</time>
</trkpt>
<trkpt lat="42.940693" lon="-0.8459388">
<ele>1379</ele>
<time>2014-10-04T12:24:20Z</time>
</trkpt>
<trkpt lat="42.94072" lon="-0.8456857">
<ele>1380</ele>
<time>2014-10-04T12:24:22Z</time>
</trkpt>
<trkpt lat="42.940777" lon="-0.84542185">
<ele>1380</ele>
<time>2014-10-04T12:24:24Z</time>
</trkpt>
<trkpt lat="42.940845" lon="-0.8451641">
<ele>1379</ele>
<time>2014-10-04T12:24:26Z</time>
</trkpt>
<trkpt lat="42.940815" lon="-0.8449126">
<ele>1380</ele>
<time>2014-10-04T12:24:28Z</time>
</trkpt>
<trkpt lat="42.940876" lon="-0.8447438">
<ele>1380</ele>
<time>2014-10-04T12:24:30Z</time>
</trkpt>
<trkpt lat="42.940796" lon="-0.844568">
<ele>1379</ele>
<time>2014-10-04T12:24:32Z</time>
</trkpt>
<trkpt lat="42.940704" lon="-0.8444924">
<ele>1378</ele>
<time>2014-10-04T12:24:34Z</time>
</trkpt>
<trkpt lat="42.940582" lon="-0.84469265">
<ele>1379</ele>
<time>2014-10-04T12:24:36Z</time>
</trkpt>
<trkpt lat="42.940514" lon="-0.8449226">
<ele>1379</ele>
<time>2014-10-04T12:24:38Z</time>
</trkpt>
<trkpt lat="42.940556" lon="-0.84507275">
<ele>1380</ele>
<time>2014-10-04T12:24:40Z</time>
</trkpt>
<trkpt lat="42.94064" lon="-0.8452295">
<ele>1380</ele>
<time>2014-10-04T12:24:42Z</time>
</trkpt>
<trkpt lat="42.940742" lon="-0.8454038">
<ele>1381</ele>
<time>2014-10-04T12:24:44Z</time>
</trkpt>
<trkpt lat="42.94083" lon="-0.84554285">
<ele>1383</ele>
<time>2014-10-04T12:24:46Z</time>
</trkpt>
<trkpt lat="42.940914" lon="-0.84571594">
<ele>1381</ele>
<time>2014-10-04T12:24:48Z</time>
</trkpt>
<trkpt lat="42.940983" lon="-0.8458764">
<ele>1379</ele>
<time>2014-10-04T12:24:50Z</time>
</trkpt>
<trkpt lat="42.940933" lon="-0.8460361">
<ele>1376</ele>
<time>2014-10-04T12:24:52Z</time>
</trkpt>
<trkpt lat="42.940765" lon="-0.84599864">
<ele>1375</ele>
<time>2014-10-04T12:24:54Z</time>
</trkpt>
<trkpt lat="42.94067" lon="-0.84582186">
<ele>1373</ele>
<time>2014-10-04T12:24:56Z</time>
</trkpt>
<trkpt lat="42.940662" lon="-0.84555334">
<ele>1372</ele>
<time>2014-10-04T12:24:58Z</time>
</trkpt>
<trkpt lat="42.94066" lon="-0.84528524">
<ele>1372</ele>
<time>2014-10-04T12:25:00Z</time>
</trkpt>
<trkpt lat="42.940742" lon="-0.8450782">
<ele>1374</ele>
<time>2014-10-04T12:25:02Z</time>
</trkpt>
<trkpt lat="42.940796" lon="-0.84486955">
<ele>1376</ele>
<time>2014-10-04T12:25:04Z</time>
</trkpt>
<trkpt lat="42.94085" lon="-0.8446738">
<ele>1378</ele>
<time>2014-10-04T12:25:06Z</time>
</trkpt>
<trkpt lat="42.940914" lon="-0.84448296">
<ele>1378</ele>
<time>2014-10-04T12:25:08Z</time>
</trkpt>
<trkpt lat="42.940945" lon="-0.84427553">
<ele>1377</ele>
<time>2014-10-04T12:25:09Z</time>
</trkpt>
<trkpt lat="42.940895" lon="-0.84420484">
<ele>1376</ele>
<time>2014-10-04T12:25:12Z</time>
</trkpt>
<trkpt lat="42.940765" lon="-0.844641">
<ele>1373</ele>
<time>2014-10-04T12:25:13Z</time>
</trkpt>
<trkpt lat="42.940746" lon="-0.84481627">
<ele>1374</ele>
<time>2014-10-04T12:25:16Z</time>
</trkpt>
<trkpt lat="42.940758" lon="-0.8450031">
<ele>1372</ele>
<time>2014-10-04T12:25:18Z</time>
</trkpt>
<trkpt lat="42.94079" lon="-0.8451512">
<ele>1376</ele>
<time>2014-10-04T12:25:20Z</time>
</trkpt>
<trkpt lat="42.940804" lon="-0.845271">
<ele>1379</ele>
<time>2014-10-04T12:25:22Z</time>
</trkpt>
<trkpt lat="42.940834" lon="-0.84540415">
<ele>1378</ele>
<time>2014-10-04T12:25:24Z</time>
</trkpt>
<trkpt lat="42.94086" lon="-0.84560704">
<ele>1374</ele>
<time>2014-10-04T12:25:26Z</time>
</trkpt>
<trkpt lat="42.940895" lon="-0.84579194">
<ele>1377</ele>
<time>2014-10-04T12:25:28Z</time>
</trkpt>
<trkpt lat="42.94094" lon="-0.8459689">
<ele>1377</ele>
<time>2014-10-04T12:25:30Z</time>
</trkpt>
<trkpt lat="42.94094" lon="-0.8461687">
<ele>1375</ele>
<time>2014-10-04T12:25:32Z</time>
</trkpt>
<trkpt lat="42.9409" lon="-0.8463514">
<ele>1374</ele>
<time>2014-10-04T12:25:34Z</time>
</trkpt>
<trkpt lat="42.94075" lon="-0.8462891">
<ele>1369</ele>
<time>2014-10-04T12:25:36Z</time>
</trkpt>
<trkpt lat="42.94061" lon="-0.8460562">
<ele>1363</ele>
<time>2014-10-04T12:25:38Z</time>
</trkpt>
<trkpt lat="42.940647" lon="-0.8457927">
<ele>1364</ele>
<time>2014-10-04T12:25:40Z</time>
</trkpt>
<trkpt lat="42.9407" lon="-0.84559524">
<ele>1362</ele>
<time>2014-10-04T12:25:42Z</time>
</trkpt>
<trkpt lat="42.940765" lon="-0.8453807">
<ele>1361</ele>
<time>2014-10-04T12:25:44Z</time>
</trkpt>
<trkpt lat="42.940777" lon="-0.8451674">
<ele>1362</ele>
<time>2014-10-04T12:25:46Z</time>
</trkpt>
<trkpt lat="42.940823" lon="-0.8449748">
<ele>1365</ele>
<time>2014-10-04T12:25:48Z</time>
</trkpt>
<trkpt lat="42.94085" lon="-0.8447702">
<ele>1364</ele>
<time>2014-10-04T12:25:50Z</time>
</trkpt>
<trkpt lat="42.94083" lon="-0.84453815">
<ele>1365</ele>
<time>2014-10-04T12:25:52Z</time>
</trkpt>
<trkpt lat="42.94075" lon="-0.8444795">
<ele>1366</ele>
<time>2014-10-04T12:25:53Z</time>
</trkpt>
<trkpt lat="42.94067" lon="-0.8445459">
<ele>1364</ele>
<time>2014-10-04T12:25:56Z</time>
</trkpt>
<trkpt lat="42.940586" lon="-0.84465456">
<ele>1364</ele>
<time>2014-10-04T12:25:58Z</time>
</trkpt>
<trkpt lat="42.940643" lon="-0.8448479">
<ele>1366</ele>
<time>2014-10-04T12:26:00Z</time>
</trkpt>
<trkpt lat="42.94075" lon="-0.84504306">
<ele>1367</ele>
<time>2014-10-04T12:26:02Z</time>
</trkpt>
<trkpt lat="42.940853" lon="-0.845202">
<ele>1371</ele>
<time>2014-10-04T12:26:04Z</time>
</trkpt>
<trkpt lat="42.940926" lon="-0.84544426">
<ele>1372</ele>
<time>2014-10-04T12:26:06Z</time>
</trkpt>
<trkpt lat="42.94104" lon="-0.845664">
<ele>1374</ele>
<time>2014-10-04T12:26:09Z</time>
</trkpt>
<trkpt lat="42.941017" lon="-0.8459087">
<ele>1370</ele>
<time>2014-10-04T12:26:11Z</time>
</trkpt>
<trkpt lat="42.941013" lon="-0.84614307">
<ele>1370</ele>
<time>2014-10-04T12:26:13Z</time>
</trkpt>
<trkpt lat="42.941055" lon="-0.8463079">
<ele>1369</ele>
<time>2014-10-04T12:26:15Z</time>
</trkpt>
<trkpt lat="42.940998" lon="-0.8465187">
<ele>1365</ele>
<time>2014-10-04T12:26:17Z</time>
</trkpt>
<trkpt lat="42.94089" lon="-0.8467272">
<ele>1362</ele>
<time>2014-10-04T12:26:19Z</time>
</trkpt>
<trkpt lat="42.940834" lon="-0.8468779">
<ele>1361</ele>
<time>2014-10-04T12:26:21Z</time>
</trkpt>
<trkpt lat="42.940697" lon="-0.84703106">
<ele>1359</ele>
<time>2014-10-04T12:26:23Z</time>
</trkpt>
<trkpt lat="42.94053" lon="-0.8471625">
<ele>1358</ele>
<time>2014-10-04T12:26:25Z</time>
</trkpt>
<trkpt lat="42.94041" lon="-0.8469679">
<ele>1348</ele>
<time>2014-10-04T12:26:27Z</time>
</trkpt>
<trkpt lat="42.94037" lon="-0.8467345">
<ele>1347</ele>
<time>2014-10-04T12:26:29Z</time>
</trkpt>
<trkpt lat="42.940346" lon="-0.84656584">
<ele>1348</ele>
<time>2014-10-04T12:26:31Z</time>
</trkpt>
<trkpt lat="42.940304" lon="-0.84638923">
<ele>1349</ele>
<time>2014-10-04T12:26:33Z</time>
</trkpt>
<trkpt lat="42.940212" lon="-0.84622043">
<ele>1350</ele>
<time>2014-10-04T12:26:35Z</time>
</trkpt>
<trkpt lat="42.94012" lon="-0.84617823">
<ele>1347</ele>
<time>2014-10-04T12:26:37Z</time>
</trkpt>
<trkpt lat="42.94003" lon="-0.8460522">
<ele>1346</ele>
<time>2014-10-04T12:26:39Z</time>
</trkpt>
<trkpt lat="42.93997" lon="-0.8458369">
<ele>1350</ele>
<time>2014-10-04T12:26:41Z</time>
</trkpt>
<trkpt lat="42.939957" lon="-0.8457062">
<ele>1352</ele>
<time>2014-10-04T12:26:43Z</time>
</trkpt>
<trkpt lat="42.93999" lon="-0.8455263">
<ele>1350</ele>
<time>2014-10-04T12:26:45Z</time>
</trkpt>
<trkpt lat="42.940113" lon="-0.8453913">
<ele>1353</ele>
<time>2014-10-04T12:26:47Z</time>
</trkpt>
<trkpt lat="42.94025" lon="-0.845332">
<ele>1357</ele>
<time>2014-10-04T12:26:49Z</time>
</trkpt>
<trkpt lat="42.940403" lon="-0.8453241">
<ele>1358</ele>
<time>2014-10-04T12:26:51Z</time>
</trkpt>
<trkpt lat="42.940582" lon="-0.84550273">
<ele>1360</ele>
<time>2014-10-04T12:26:53Z</time>
</trkpt>
<trkpt lat="42.940643" lon="-0.8457311">
<ele>1361</ele>
<time>2014-10-04T12:26:55Z</time>
</trkpt>
<trkpt lat="42.94066" lon="-0.8459454">
<ele>1364</ele>
<time>2014-10-04T12:26:57Z</time>
</trkpt>
<trkpt lat="42.940628" lon="-0.846181">
<ele>1365</ele>
<time>2014-10-04T12:26:59Z</time>
</trkpt>
<trkpt lat="42.940617" lon="-0.8464509">
<ele>1367</ele>
<time>2014-10-04T12:27:01Z</time>
</trkpt>
<trkpt lat="42.94063" lon="-0.8466552">
<ele>1369</ele>
<time>2014-10-04T12:27:03Z</time>
</trkpt>
<trkpt lat="42.940567" lon="-0.84690374">
<ele>1369</ele>
<time>2014-10-04T12:27:05Z</time>
</trkpt>
<trkpt lat="42.940533" lon="-0.84713876">
<ele>1375</ele>
<time>2014-10-04T12:27:07Z</time>
</trkpt>
<trkpt lat="42.94041" lon="-0.8473035">
<ele>1379</ele>
<time>2014-10-04T12:27:09Z</time>
</trkpt>
<trkpt lat="42.94022" lon="-0.84725803">
<ele>1381</ele>
<time>2014-10-04T12:27:12Z</time>
</trkpt>
<trkpt lat="42.94012" lon="-0.8471609">
<ele>1382</ele>
<time>2014-10-04T12:27:14Z</time>
</trkpt>
<trkpt lat="42.94008" lon="-0.84701866">
<ele>1383</ele>
<time>2014-10-04T12:27:16Z</time>
</trkpt>
<trkpt lat="42.940044" lon="-0.8468582">
<ele>1386</ele>
<time>2014-10-04T12:27:18Z</time>
</trkpt>
<trkpt lat="42.940025" lon="-0.8466725">
<ele>1391</ele>
<time>2014-10-04T12:27:20Z</time>
</trkpt>
<trkpt lat="42.940056" lon="-0.84649235">
<ele>1392</ele>
<time>2014-10-04T12:27:22Z</time>
</trkpt>
<trkpt lat="42.94014" lon="-0.84632003">
<ele>1393</ele>
<time>2014-10-04T12:27:24Z</time>
</trkpt>
<trkpt lat="42.940334" lon="-0.84629303">
<ele>1398</ele>
<time>2014-10-04T12:27:26Z</time>
</trkpt>
<trkpt lat="42.940495" lon="-0.8463981">
<ele>1401</ele>
<time>2014-10-04T12:27:28Z</time>
</trkpt>
<trkpt lat="42.94062" lon="-0.8465795">
<ele>1404</ele>
<time>2014-10-04T12:27:30Z</time>
</trkpt>
<trkpt lat="42.94073" lon="-0.8467883">
<ele>1409</ele>
<time>2014-10-04T12:27:32Z</time>
</trkpt>
<trkpt lat="42.94076" lon="-0.84703666">
<ele>1412</ele>
<time>2014-10-04T12:27:34Z</time>
</trkpt>
<trkpt lat="42.940823" lon="-0.8472974">
<ele>1415</ele>
<time>2014-10-04T12:27:36Z</time>
</trkpt>
<trkpt lat="42.940876" lon="-0.8475578">
<ele>1417</ele>
<time>2014-10-04T12:27:38Z</time>
</trkpt>
<trkpt lat="42.940727" lon="-0.84777373">
<ele>1420</ele>
<time>2014-10-04T12:27:40Z</time>
</trkpt>
<trkpt lat="42.94062" lon="-0.84789294">
<ele>1422</ele>
<time>2014-10-04T12:27:42Z</time>
</trkpt>
<trkpt lat="42.940506" lon="-0.847902">
<ele>1424</ele>
<time>2014-10-04T12:27:44Z</time>
</trkpt>
<trkpt lat="42.940395" lon="-0.84782076">
<ele>1427</ele>
<time>2014-10-04T12:27:46Z</time>
</trkpt>
<trkpt lat="42.9403" lon="-0.84771264">
<ele>1430</ele>
<time>2014-10-04T12:27:48Z</time>
</trkpt>
<trkpt lat="42.940228" lon="-0.8475234">
<ele>1435</ele>
<time>2014-10-04T12:27:50Z</time>
</trkpt>
<trkpt lat="42.940228" lon="-0.8472977">
<ele>1440</ele>
<time>2014-10-04T12:27:52Z</time>
</trkpt>
<trkpt lat="42.940266" lon="-0.8470794">
<ele>1442</ele>
<time>2014-10-04T12:27:54Z</time>
</trkpt>
<trkpt lat="42.94034" lon="-0.8469007">
<ele>1445</ele>
<time>2014-10-04T12:27:56Z</time>
</trkpt>
<trkpt lat="42.940594" lon="-0.8469686">
<ele>1450</ele>
<time>2014-10-04T12:27:58Z</time>
</trkpt>
<trkpt lat="42.940826" lon="-0.8470697">
<ele>1455</ele>
<time>2014-10-04T12:28:00Z</time>
</trkpt>
<trkpt lat="42.940998" lon="-0.8472526">
<ele>1461</ele>
<time>2014-10-04T12:28:02Z</time>
</trkpt>
<trkpt lat="42.941082" lon="-0.8475178">
<ele>1467</ele>
<time>2014-10-04T12:28:04Z</time>
</trkpt>
<trkpt lat="42.94112" lon="-0.8477687">
<ele>1471</ele>
<time>2014-10-04T12:28:06Z</time>
</trkpt>
<trkpt lat="42.941128" lon="-0.8480181">
<ele>1472</ele>
<time>2014-10-04T12:28:08Z</time>
</trkpt>
<trkpt lat="42.940983" lon="-0.848134">
<ele>1476</ele>
<time>2014-10-04T12:28:09Z</time>
</trkpt>
<trkpt lat="42.940826" lon="-0.8482289">
<ele>1477</ele>
<time>2014-10-04T12:28:12Z</time>
</trkpt>
<trkpt lat="42.940704" lon="-0.8482138">
<ele>1479</ele>
<time>2014-10-04T12:28:14Z</time>
</trkpt>
<trkpt lat="42.940613" lon="-0.848049">
<ele>1485</ele>
<time>2014-10-04T12:28:16Z</time>
</trkpt>
<trkpt lat="42.940517" lon="-0.84790194">
<ele>1493</ele>
<time>2014-10-04T12:28:18Z</time>
</trkpt>
<trkpt lat="42.940502" lon="-0.8476723">
<ele>1500</ele>
<time>2014-10-04T12:28:20Z</time>
</trkpt>
<trkpt lat="42.9405" lon="-0.8474559">
<ele>1506</ele>
<time>2014-10-04T12:28:22Z</time>
</trkpt>
<trkpt lat="42.94056" lon="-0.84735125">
<ele>1509</ele>
<time>2014-10-04T12:28:24Z</time>
</trkpt>
<trkpt lat="42.940666" lon="-0.84717095">
<ele>1510</ele>
<time>2014-10-04T12:28:26Z</time>
</trkpt>
<trkpt lat="42.940857" lon="-0.8470999">
<ele>1515</ele>
<time>2014-10-04T12:28:28Z</time>
</trkpt>
<trkpt lat="42.941055" lon="-0.84719586">
<ele>1521</ele>
<time>2014-10-04T12:28:30Z</time>
</trkpt>
<trkpt lat="42.94122" lon="-0.84728676">
<ele>1524</ele>
<time>2014-10-04T12:28:32Z</time>
</trkpt>
<trkpt lat="42.9414" lon="-0.8473986">
<ele>1530</ele>
<time>2014-10-04T12:28:33Z</time>
</trkpt>
<trkpt lat="42.941574" lon="-0.8475335">
<ele>1534</ele>
<time>2014-10-04T12:28:36Z</time>
</trkpt>
<trkpt lat="42.941696" lon="-0.84772366">
<ele>1541</ele>
<time>2014-10-04T12:28:38Z</time>
</trkpt>
<trkpt lat="42.941795" lon="-0.8479589">
<ele>1544</ele>
<time>2014-10-04T12:28:40Z</time>
</trkpt>
<trkpt lat="42.94192" lon="-0.8481867">
<ele>1550</ele>
<time>2014-10-04T12:28:42Z</time>
</trkpt>
<trkpt lat="42.941982" lon="-0.84838563">
<ele>1554</ele>
<time>2014-10-04T12:28:44Z</time>
</trkpt>
<trkpt lat="42.94202" lon="-0.8486618">
<ele>1560</ele>
<time>2014-10-04T12:28:46Z</time>
</trkpt>
<trkpt lat="42.941998" lon="-0.8489029">
<ele>1568</ele>
<time>2014-10-04T12:28:48Z</time>
</trkpt>
<trkpt lat="42.941933" lon="-0.8490928">
<ele>1570</ele>
<time>2014-10-04T12:28:49Z</time>
</trkpt>
<trkpt lat="42.941826" lon="-0.84921837">
<ele>1571</ele>
<time>2014-10-04T12:28:51Z</time>
</trkpt>
<trkpt lat="42.941635" lon="-0.8492269">
<ele>1572</ele>
<time>2014-10-04T12:28:54Z</time>
</trkpt>
<trkpt lat="42.94149" lon="-0.8492039">
<ele>1573</ele>
<time>2014-10-04T12:28:56Z</time>
</trkpt>
<trkpt lat="42.941353" lon="-0.84909004">
<ele>1575</ele>
<time>2014-10-04T12:28:58Z</time>
</trkpt>
<trkpt lat="42.941227" lon="-0.84905124">
<ele>1576</ele>
<time>2014-10-04T12:29:00Z</time>
</trkpt>
<trkpt lat="42.941124" lon="-0.8488662">
<ele>1578</ele>
<time>2014-10-04T12:29:02Z</time>
</trkpt>
<trkpt lat="42.941044" lon="-0.8487434">
<ele>1582</ele>
<time>2014-10-04T12:29:04Z</time>
</trkpt>
<trkpt lat="42.940964" lon="-0.8485881">
<ele>1588</ele>
<time>2014-10-04T12:29:06Z</time>
</trkpt>
<trkpt lat="42.940907" lon="-0.8484258">
<ele>1595</ele>
<time>2014-10-04T12:29:08Z</time>
</trkpt>
<trkpt lat="42.940887" lon="-0.8482613">
<ele>1601</ele>
<time>2014-10-04T12:29:10Z</time>
</trkpt>
<trkpt lat="42.940823" lon="-0.8480655">
<ele>1606</ele>
<time>2014-10-04T12:29:12Z</time>
</trkpt>
<trkpt lat="42.940746" lon="-0.84787554">
<ele>1614</ele>
<time>2014-10-04T12:29:14Z</time>
</trkpt>
<trkpt lat="42.940754" lon="-0.8476895">
<ele>1617</ele>
<time>2014-10-04T12:29:16Z</time>
</trkpt>
<trkpt lat="42.94085" lon="-0.8475214">
<ele>1621</ele>
<time>2014-10-04T12:29:18Z</time>
</trkpt>
<trkpt lat="42.941017" lon="-0.8473777">
<ele>1624</ele>
<time>2014-10-04T12:29:20Z</time>
</trkpt>
<trkpt lat="42.94122" lon="-0.84741974">
<ele>1630</ele>
<time>2014-10-04T12:29:22Z</time>
</trkpt>
<trkpt lat="42.941402" lon="-0.8475227">
<ele>1633</ele>
<time>2014-10-04T12:29:24Z</time>
</trkpt>
<trkpt lat="42.94154" lon="-0.84770465">
<ele>1638</ele>
<time>2014-10-04T12:29:26Z</time>
</trkpt>
<trkpt lat="42.941673" lon="-0.8478908">
<ele>1644</ele>
<time>2014-10-04T12:29:28Z</time>
</trkpt>
<trkpt lat="42.94176" lon="-0.8481334">
<ele>1649</ele>
<time>2014-10-04T12:29:30Z</time>
</trkpt>
<trkpt lat="42.941772" lon="-0.8484103">
<ele>1655</ele>
<time>2014-10-04T12:29:32Z</time>
</trkpt>
<trkpt lat="42.941723" lon="-0.8486086">
<ele>1660</ele>
<time>2014-10-04T12:29:34Z</time>
</trkpt>
<trkpt lat="42.941643" lon="-0.84873915">
<ele>1661</ele>
<time>2014-10-04T12:29:36Z</time>
</trkpt>
<trkpt lat="42.94153" lon="-0.8488392">
<ele>1661</ele>
<time>2014-10-04T12:29:38Z</time>
</trkpt>
<trkpt lat="42.941353" lon="-0.8489069">
<ele>1662</ele>
<time>2014-10-04T12:29:40Z</time>
</trkpt>
<trkpt lat="42.94123" lon="-0.8488195">
<ele>1663</ele>
<time>2014-10-04T12:29:42Z</time>
</trkpt>
<trkpt lat="42.941143" lon="-0.8486971">
<ele>1665</ele>
<time>2014-10-04T12:29:44Z</time>
</trkpt>
<trkpt lat="42.941048" lon="-0.84851986">
<ele>1666</ele>
<time>2014-10-04T12:29:46Z</time>
</trkpt>
<trkpt lat="42.941044" lon="-0.8482327">
<ele>1669</ele>
<time>2014-10-04T12:29:48Z</time>
</trkpt>
<trkpt lat="42.941147" lon="-0.8480378">
<ele>1674</ele>
<time>2014-10-04T12:29:50Z</time>
</trkpt>
<trkpt lat="42.941307" lon="-0.84798914">
<ele>1681</ele>
<time>2014-10-04T12:29:52Z</time>
</trkpt>
<trkpt lat="42.941483" lon="-0.8480219">
<ele>1684</ele>
<time>2014-10-04T12:29:53Z</time>
</trkpt>
<trkpt lat="42.9416" lon="-0.8483183">
<ele>1687</ele>
<time>2014-10-04T12:29:56Z</time>
</trkpt>
<trkpt lat="42.941677" lon="-0.8486028">
<ele>1695</ele>
<time>2014-10-04T12:29:58Z</time>
</trkpt>
<trkpt lat="42.941677" lon="-0.8488474">
<ele>1700</ele>
<time>2014-10-04T12:30:00Z</time>
</trkpt>
<trkpt lat="42.941624" lon="-0.84905654">
<ele>1702</ele>
<time>2014-10-04T12:30:02Z</time>
</trkpt>
<trkpt lat="42.941498" lon="-0.8491782">
<ele>1702</ele>
<time>2014-10-04T12:30:04Z</time>
</trkpt>
<trkpt lat="42.94136" lon="-0.8490094">
<ele>1703</ele>
<time>2014-10-04T12:30:06Z</time>
</trkpt>
<trkpt lat="42.941235" lon="-0.84883136">
<ele>1704</ele>
<time>2014-10-04T12:30:08Z</time>
</trkpt>
<trkpt lat="42.941185" lon="-0.84860104">
<ele>1704</ele>
<time>2014-10-04T12:30:10Z</time>
</trkpt>
<trkpt lat="42.941185" lon="-0.8483173">
<ele>1705</ele>
<time>2014-10-04T12:30:12Z</time>
</trkpt>
<trkpt lat="42.94129" lon="-0.84807616">
<ele>1708</ele>
<time>2014-10-04T12:30:14Z</time>
</trkpt>
<trkpt lat="42.941463" lon="-0.8479184">
<ele>1712</ele>
<time>2014-10-04T12:30:16Z</time>
</trkpt>
<trkpt lat="42.941612" lon="-0.8478545">
<ele>1718</ele>
<time>2014-10-04T12:30:18Z</time>
</trkpt>
<trkpt lat="42.94178" lon="-0.8478089">
<ele>1721</ele>
<time>2014-10-04T12:30:20Z</time>
</trkpt>
<trkpt lat="42.94198" lon="-0.8478252">
<ele>1723</ele>
<time>2014-10-04T12:30:22Z</time>
</trkpt>
<trkpt lat="42.942165" lon="-0.8479173">
<ele>1725</ele>
<time>2014-10-04T12:30:24Z</time>
</trkpt>
<trkpt lat="42.9423" lon="-0.8481917">
<ele>1732</ele>
<time>2014-10-04T12:30:26Z</time>
</trkpt>
<trkpt lat="42.94237" lon="-0.84842914">
<ele>1741</ele>
<time>2014-10-04T12:30:28Z</time>
</trkpt>
<trkpt lat="42.94243" lon="-0.84867465">
<ele>1746</ele>
<time>2014-10-04T12:30:30Z</time>
</trkpt>
<trkpt lat="42.94246" lon="-0.84892106">
<ele>1750</ele>
<time>2014-10-04T12:30:32Z</time>
</trkpt>
<trkpt lat="42.942425" lon="-0.8491323">
<ele>1754</ele>
<time>2014-10-04T12:30:34Z</time>
</trkpt>
<trkpt lat="42.942356" lon="-0.84931505">
<ele>1757</ele>
<time>2014-10-04T12:30:36Z</time>
</trkpt>
<trkpt lat="42.94229" lon="-0.8494928">
<ele>1759</ele>
<time>2014-10-04T12:30:38Z</time>
</trkpt>
<trkpt lat="42.942165" lon="-0.8496058">
<ele>1760</ele>
<time>2014-10-04T12:30:40Z</time>
</trkpt>
<trkpt lat="42.94202" lon="-0.8494778">
<ele>1763</ele>
<time>2014-10-04T12:30:42Z</time>
</trkpt>
<trkpt lat="42.941925" lon="-0.8493854">
<ele>1766</ele>
<time>2014-10-04T12:30:44Z</time>
</trkpt>
<trkpt lat="42.941826" lon="-0.8492059">
<ele>1765</ele>
<time>2014-10-04T12:30:46Z</time>
</trkpt>
<trkpt lat="42.941765" lon="-0.84891737">
<ele>1769</ele>
<time>2014-10-04T12:30:48Z</time>
</trkpt>
<trkpt lat="42.941757" lon="-0.84869593">
<ele>1774</ele>
<time>2014-10-04T12:30:50Z</time>
</trkpt>
<trkpt lat="42.941795" lon="-0.8484623">
<ele>1774</ele>
<time>2014-10-04T12:30:52Z</time>
</trkpt>
<trkpt lat="42.941925" lon="-0.84822893">
<ele>1775</ele>
<time>2014-10-04T12:30:54Z</time>
</trkpt>
<trkpt lat="42.942078" lon="-0.84810704">
<ele>1779</ele>
<time>2014-10-04T12:30:56Z</time>
</trkpt>
<trkpt lat="42.942226" lon="-0.84804887">
<ele>1781</ele>
<time>2014-10-04T12:30:58Z</time>
</trkpt>
<trkpt lat="42.94246" lon="-0.84806097">
<ele>1779</ele>
<time>2014-10-04T12:31:00Z</time>
</trkpt>
<trkpt lat="42.94265" lon="-0.84814835">
<ele>1782</ele>
<time>2014-10-04T12:31:02Z</time>
</trkpt>
<trkpt lat="42.94283" lon="-0.8482209">
<ele>1786</ele>
<time>2014-10-04T12:31:04Z</time>
</trkpt>
<trkpt lat="42.942978" lon="-0.848328">
<ele>1789</ele>
<time>2014-10-04T12:31:06Z</time>
</trkpt>
<trkpt lat="42.94303" lon="-0.848508">
<ele>1791</ele>
<time>2014-10-04T12:31:08Z</time>
</trkpt>
<trkpt lat="42.943035" lon="-0.84870803">
<ele>1797</ele>
<time>2014-10-04T12:31:10Z</time>
</trkpt>
<trkpt lat="42.943016" lon="-0.8488674">
<ele>1803</ele>
<time>2014-10-04T12:31:12Z</time>
</trkpt>
<trkpt lat="42.94297" lon="-0.8490353">
<ele>1805</ele>
<time>2014-10-04T12:31:14Z</time>
</trkpt>
<trkpt lat="42.942814" lon="-0.8491371">
<ele>1810</ele>
<time>2014-10-04T12:31:16Z</time>
</trkpt>
<trkpt lat="42.942677" lon="-0.8491296">
<ele>1810</ele>
<time>2014-10-04T12:31:18Z</time>
</trkpt>
<trkpt lat="42.942547" lon="-0.8489678">
<ele>1811</ele>
<time>2014-10-04T12:31:20Z</time>
</trkpt>
<trkpt lat="42.94241" lon="-0.848762">
<ele>1815</ele>
<time>2014-10-04T12:31:22Z</time>
</trkpt>
<trkpt lat="42.94236" lon="-0.84851694">
<ele>1820</ele>
<time>2014-10-04T12:31:24Z</time>
</trkpt>
<trkpt lat="42.942364" lon="-0.8482508">
<ele>1824</ele>
<time>2014-10-04T12:31:26Z</time>
</trkpt>
<trkpt lat="42.942417" lon="-0.8479963">
<ele>1826</ele>
<time>2014-10-04T12:31:28Z</time>
</trkpt>
<trkpt lat="42.942577" lon="-0.84783137">
<ele>1826</ele>
<time>2014-10-04T12:31:30Z</time>
</trkpt>
<trkpt lat="42.94278" lon="-0.8477504">
<ele>1826</ele>
<time>2014-10-04T12:31:31Z</time>
</trkpt>
<trkpt lat="42.942997" lon="-0.8477657">
<ele>1827</ele>
<time>2014-10-04T12:31:33Z</time>
</trkpt>
<trkpt lat="42.943176" lon="-0.84793556">
<ele>1832</ele>
<time>2014-10-04T12:31:36Z</time>
</trkpt>
<trkpt lat="42.94333" lon="-0.8480519">
<ele>1838</ele>
<time>2014-10-04T12:31:38Z</time>
</trkpt>
<trkpt lat="42.94348" lon="-0.84813124">
<ele>1842</ele>
<time>2014-10-04T12:31:40Z</time>
</trkpt>
<trkpt lat="42.9436" lon="-0.84825075">
<ele>1847</ele>
<time>2014-10-04T12:31:42Z</time>
</trkpt>
<trkpt lat="42.943638" lon="-0.8483985">
<ele>1848</ele>
<time>2014-10-04T12:31:44Z</time>
</trkpt>
<trkpt lat="42.94366" lon="-0.84858847">
<ele>1849</ele>
<time>2014-10-04T12:31:46Z</time>
</trkpt>
<trkpt lat="42.9436" lon="-0.8487913">
<ele>1852</ele>
<time>2014-10-04T12:31:48Z</time>
</trkpt>
<trkpt lat="42.943523" lon="-0.8489398">
<ele>1857</ele>
<time>2014-10-04T12:31:50Z</time>
</trkpt>
<trkpt lat="42.94344" lon="-0.8490803">
<ele>1858</ele>
<time>2014-10-04T12:31:52Z</time>
</trkpt>
<trkpt lat="42.94332" lon="-0.84921736">
<ele>1859</ele>
<time>2014-10-04T12:31:54Z</time>
</trkpt>
<trkpt lat="42.943153" lon="-0.84933513">
<ele>1860</ele>
<time>2014-10-04T12:31:56Z</time>
</trkpt>
<trkpt lat="42.94308" lon="-0.84935206">
<ele>1862</ele>
<time>2014-10-04T12:31:58Z</time>
</trkpt>
<trkpt lat="42.942944" lon="-0.8493728">
<ele>1862</ele>
<time>2014-10-04T12:32:00Z</time>
</trkpt>
<trkpt lat="42.94278" lon="-0.8493955">
<ele>1863</ele>
<time>2014-10-04T12:32:02Z</time>
</trkpt>
<trkpt lat="42.94268" lon="-0.84920937">
<ele>1867</ele>
<time>2014-10-04T12:32:04Z</time>
</trkpt>
<trkpt lat="42.9426" lon="-0.8490461">
<ele>1871</ele>
<time>2014-10-04T12:32:06Z</time>
</trkpt>
<trkpt lat="42.94257" lon="-0.84877217">
<ele>1874</ele>
<time>2014-10-04T12:32:08Z</time>
</trkpt>
<trkpt lat="42.942635" lon="-0.84849316">
<ele>1879</ele>
<time>2014-10-04T12:32:10Z</time>
</trkpt>
<trkpt lat="42.942684" lon="-0.84829205">
<ele>1884</ele>
<time>2014-10-04T12:32:12Z</time>
</trkpt>
<trkpt lat="42.94278" lon="-0.8480643">
<ele>1884</ele>
<time>2014-10-04T12:32:14Z</time>
</trkpt>
<trkpt lat="42.942917" lon="-0.8478322">
<ele>1883</ele>
<time>2014-10-04T12:32:16Z</time>
</trkpt>
<trkpt lat="42.943024" lon="-0.8475472">
<ele>1885</ele>
<time>2014-10-04T12:32:18Z</time>
</trkpt>
<trkpt lat="42.943176" lon="-0.84740907">
<ele>1887</ele>
<time>2014-10-04T12:32:20Z</time>
</trkpt>
<trkpt lat="42.94332" lon="-0.8472937">
<ele>1888</ele>
<time>2014-10-04T12:32:22Z</time>
</trkpt>
<trkpt lat="42.94354" lon="-0.847205">
<ele>1892</ele>
<time>2014-10-04T12:32:24Z</time>
</trkpt>
<trkpt lat="42.943718" lon="-0.8472016">
<ele>1897</ele>
<time>2014-10-04T12:32:26Z</time>
</trkpt>
<trkpt lat="42.943867" lon="-0.84726924">
<ele>1901</ele>
<time>2014-10-04T12:32:28Z</time>
</trkpt>
<trkpt lat="42.943977" lon="-0.8474268">
<ele>1905</ele>
<time>2014-10-04T12:32:30Z</time>
</trkpt>
<trkpt lat="42.944027" lon="-0.847621">
<ele>1910</ele>
<time>2014-10-04T12:32:32Z</time>
</trkpt>
<trkpt lat="42.943996" lon="-0.84780496">
<ele>1913</ele>
<time>2014-10-04T12:32:34Z</time>
</trkpt>
<trkpt lat="42.94396" lon="-0.84800786">
<ele>1916</ele>
<time>2014-10-04T12:32:36Z</time>
</trkpt>
<trkpt lat="42.943897" lon="-0.848197">
<ele>1919</ele>
<time>2014-10-04T12:32:38Z</time>
</trkpt>
<trkpt lat="42.94384" lon="-0.8483084">
<ele>1920</ele>
<time>2014-10-04T12:32:40Z</time>
</trkpt>
<trkpt lat="42.943684" lon="-0.8484361">
<ele>1921</ele>
<time>2014-10-04T12:32:41Z</time>
</trkpt>
<trkpt lat="42.94349" lon="-0.848466">
<ele>1922</ele>
<time>2014-10-04T12:32:44Z</time>
</trkpt>
<trkpt lat="42.943302" lon="-0.84845287">
<ele>1922</ele>
<time>2014-10-04T12:32:46Z</time>
</trkpt>
<trkpt lat="42.94317" lon="-0.84837776">
<ele>1924</ele>
<time>2014-10-04T12:32:48Z</time>
</trkpt>
<trkpt lat="42.94305" lon="-0.8482316">
<ele>1930</ele>
<time>2014-10-04T12:32:50Z</time>
</trkpt>
<trkpt lat="42.94294" lon="-0.84808457">
<ele>1935</ele>
<time>2014-10-04T12:32:52Z</time>
</trkpt>
<trkpt lat="42.942894" lon="-0.8478837">
<ele>1935</ele>
<time>2014-10-04T12:32:54Z</time>
</trkpt>
<trkpt lat="42.9429" lon="-0.84764344">
<ele>1937</ele>
<time>2014-10-04T12:32:56Z</time>
</trkpt>
<trkpt lat="42.942905" lon="-0.8473979">
<ele>1938</ele>
<time>2014-10-04T12:32:58Z</time>
</trkpt>
<trkpt lat="42.94292" lon="-0.8471846">
<ele>1939</ele>
<time>2014-10-04T12:33:00Z</time>
</trkpt>
<trkpt lat="42.943016" lon="-0.8469588">
<ele>1939</ele>
<time>2014-10-04T12:33:02Z</time>
</trkpt>
<trkpt lat="42.9431" lon="-0.8467325">
<ele>1939</ele>
<time>2014-10-04T12:33:04Z</time>
</trkpt>
<trkpt lat="42.943214" lon="-0.84658253">
<ele>1939</ele>
<time>2014-10-04T12:33:06Z</time>
</trkpt>
<trkpt lat="42.94338" lon="-0.84640294">
<ele>1939</ele>
<time>2014-10-04T12:33:08Z</time>
</trkpt>
<trkpt lat="42.94354" lon="-0.84629816">
<ele>1941</ele>
<time>2014-10-04T12:33:10Z</time>
</trkpt>
<trkpt lat="42.943687" lon="-0.8462298">
<ele>1941</ele>
<time>2014-10-04T12:33:12Z</time>
</trkpt>
<trkpt lat="42.943886" lon="-0.84624636">
<ele>1942</ele>
<time>2014-10-04T12:33:13Z</time>
</trkpt>
<trkpt lat="42.944065" lon="-0.8463565">
<ele>1943</ele>
<time>2014-10-04T12:33:15Z</time>
</trkpt>
<trkpt lat="42.94421" lon="-0.8464241">
<ele>1943</ele>
<time>2014-10-04T12:33:18Z</time>
</trkpt>
<trkpt lat="42.94437" lon="-0.8465486">
<ele>1945</ele>
<time>2014-10-04T12:33:20Z</time>
</trkpt>
<trkpt lat="42.94446" lon="-0.8467128">
<ele>1949</ele>
<time>2014-10-04T12:33:22Z</time>
</trkpt>
<trkpt lat="42.944542" lon="-0.8468674">
<ele>1949</ele>
<time>2014-10-04T12:33:24Z</time>
</trkpt>
<trkpt lat="42.94464" lon="-0.84704614">
<ele>1948</ele>
<time>2014-10-04T12:33:26Z</time>
</trkpt>
<trkpt lat="42.94473" lon="-0.8472447">
<ele>1949</ele>
<time>2014-10-04T12:33:28Z</time>
</trkpt>
<trkpt lat="42.944736" lon="-0.84746385">
<ele>1951</ele>
<time>2014-10-04T12:33:30Z</time>
</trkpt>
<trkpt lat="42.944687" lon="-0.84766334">
<ele>1955</ele>
<time>2014-10-04T12:33:32Z</time>
</trkpt>
<trkpt lat="42.94459" lon="-0.84780824">
<ele>1957</ele>
<time>2014-10-04T12:33:34Z</time>
</trkpt>
<trkpt lat="42.944447" lon="-0.8479072">
<ele>1957</ele>
<time>2014-10-04T12:33:36Z</time>
</trkpt>
<trkpt lat="42.944275" lon="-0.84794366">
<ele>1958</ele>
<time>2014-10-04T12:33:38Z</time>
</trkpt>
<trkpt lat="42.94413" lon="-0.8479669">
<ele>1959</ele>
<time>2014-10-04T12:33:40Z</time>
</trkpt>
<trkpt lat="42.943974" lon="-0.8480517">
<ele>1960</ele>
<time>2014-10-04T12:33:42Z</time>
</trkpt>
<trkpt lat="42.94382" lon="-0.8480678">
<ele>1960</ele>
<time>2014-10-04T12:33:44Z</time>
</trkpt>
<trkpt lat="42.94367" lon="-0.8480505">
<ele>1961</ele>
<time>2014-10-04T12:33:46Z</time>
</trkpt>
<trkpt lat="42.943523" lon="-0.8479257">
<ele>1964</ele>
<time>2014-10-04T12:33:48Z</time>
</trkpt>
<trkpt lat="42.943447" lon="-0.8477058">
<ele>1965</ele>
<time>2014-10-04T12:33:50Z</time>
</trkpt>
<trkpt lat="42.94338" lon="-0.84747326">
<ele>1966</ele>
<time>2014-10-04T12:33:52Z</time>
</trkpt>
<trkpt lat="42.943314" lon="-0.84728307">
<ele>1967</ele>
<time>2014-10-04T12:33:54Z</time>
</trkpt>
<trkpt lat="42.94325" lon="-0.8471102">
<ele>1968</ele>
<time>2014-10-04T12:33:56Z</time>
</trkpt>
<trkpt lat="42.94331" lon="-0.84683377">
<ele>1967</ele>
<time>2014-10-04T12:33:58Z</time>
</trkpt>
<trkpt lat="42.943333" lon="-0.84659874">
<ele>1967</ele>
<time>2014-10-04T12:34:00Z</time>
</trkpt>
<trkpt lat="42.943295" lon="-0.84639853">
<ele>1966</ele>
<time>2014-10-04T12:34:02Z</time>
</trkpt>
<trkpt lat="42.943245" lon="-0.8461891">
<ele>1967</ele>
<time>2014-10-04T12:34:04Z</time>
</trkpt>
<trkpt lat="42.943153" lon="-0.84600806">
<ele>1968</ele>
<time>2014-10-04T12:34:06Z</time>
</trkpt>
<trkpt lat="42.943073" lon="-0.84582824">
<ele>1970</ele>
<time>2014-10-04T12:34:08Z</time>
</trkpt>
<trkpt lat="42.94304" lon="-0.84559476">
<ele>1970</ele>
<time>2014-10-04T12:34:10Z</time>
</trkpt>
<trkpt lat="42.943054" lon="-0.84534717">
<ele>1971</ele>
<time>2014-10-04T12:34:12Z</time>
</trkpt>
<trkpt lat="42.94315" lon="-0.8451153">
<ele>1974</ele>
<time>2014-10-04T12:34:14Z</time>
</trkpt>
<trkpt lat="42.94331" lon="-0.8450089">
<ele>1974</ele>
<time>2014-10-04T12:34:16Z</time>
</trkpt>
<trkpt lat="42.9435" lon="-0.8449539">
<ele>1976</ele>
<time>2014-10-04T12:34:18Z</time>
</trkpt>
<trkpt lat="42.943687" lon="-0.8449618">
<ele>1977</ele>
<time>2014-10-04T12:34:20Z</time>
</trkpt>
<trkpt lat="42.943848" lon="-0.8449675">
<ele>1978</ele>
<time>2014-10-04T12:34:22Z</time>
</trkpt>
<trkpt lat="42.94401" lon="-0.8449565">
<ele>1979</ele>
<time>2014-10-04T12:34:24Z</time>
</trkpt>
<trkpt lat="42.944164" lon="-0.84493655">
<ele>1980</ele>
<time>2014-10-04T12:34:26Z</time>
</trkpt>
<trkpt lat="42.944324" lon="-0.8448588">
<ele>1980</ele>
<time>2014-10-04T12:34:28Z</time>
</trkpt>
<trkpt lat="42.944504" lon="-0.844877">
<ele>1979</ele>
<time>2014-10-04T12:34:29Z</time>
</trkpt>
<trkpt lat="42.944656" lon="-0.8449339">
<ele>1979</ele>
<time>2014-10-04T12:34:32Z</time>
</trkpt>
<trkpt lat="42.944805" lon="-0.8450496">
<ele>1980</ele>
<time>2014-10-04T12:34:34Z</time>
</trkpt>
<trkpt lat="42.944927" lon="-0.84520304">
<ele>1981</ele>
<time>2014-10-04T12:34:36Z</time>
</trkpt>
<trkpt lat="42.945026" lon="-0.84537065">
<ele>1982</ele>
<time>2014-10-04T12:34:38Z</time>
</trkpt>
<trkpt lat="42.945164" lon="-0.8455408">
<ele>1986</ele>
<time>2014-10-04T12:34:40Z</time>
</trkpt>
<trkpt lat="42.94531" lon="-0.8456484">
<ele>1990</ele>
<time>2014-10-04T12:34:42Z</time>
</trkpt>
<trkpt lat="42.945473" lon="-0.8457154">
<ele>1991</ele>
<time>2014-10-04T12:34:44Z</time>
</trkpt>
<trkpt lat="42.94563" lon="-0.84578025">
<ele>1992</ele>
<time>2014-10-04T12:34:46Z</time>
</trkpt>
<trkpt lat="42.945793" lon="-0.8457718">
<ele>1993</ele>
<time>2014-10-04T12:34:48Z</time>
</trkpt>
<trkpt lat="42.94594" lon="-0.845431">
<ele>1995</ele>
<time>2014-10-04T12:34:50Z</time>
</trkpt>
<trkpt lat="42.946033" lon="-0.84512275">
<ele>1997</ele>
<time>2014-10-04T12:34:52Z</time>
</trkpt>
<trkpt lat="42.946087" lon="-0.84478956">
<ele>1998</ele>
<time>2014-10-04T12:34:54Z</time>
</trkpt>
<trkpt lat="42.946114" lon="-0.84451383">
<ele>1997</ele>
<time>2014-10-04T12:34:56Z</time>
</trkpt>
<trkpt lat="42.946117" lon="-0.84427935">
<ele>1994</ele>
<time>2014-10-04T12:34:57Z</time>
</trkpt>
<trkpt lat="42.94608" lon="-0.8440236">
<ele>1994</ele>
<time>2014-10-04T12:35:00Z</time>
</trkpt>
<trkpt lat="42.946114" lon="-0.8437414">
<ele>1996</ele>
<time>2014-10-04T12:35:02Z</time>
</trkpt>
<trkpt lat="42.946163" lon="-0.8434304">
<ele>1995</ele>
<time>2014-10-04T12:35:04Z</time>
</trkpt>
<trkpt lat="42.946236" lon="-0.8431961">
<ele>1993</ele>
<time>2014-10-04T12:35:06Z</time>
</trkpt>
<trkpt lat="42.946342" lon="-0.84297615">
<ele>1993</ele>
<time>2014-10-04T12:35:08Z</time>
</trkpt>
<trkpt lat="42.946495" lon="-0.8428529">
<ele>1992</ele>
<time>2014-10-04T12:35:10Z</time>
</trkpt>
<trkpt lat="42.94664" lon="-0.84277505">
<ele>1994</ele>
<time>2014-10-04T12:35:12Z</time>
</trkpt>
<trkpt lat="42.94673" lon="-0.8427145">
<ele>1993</ele>
<time>2014-10-04T12:35:14Z</time>
</trkpt>
<trkpt lat="42.946842" lon="-0.8426642">
<ele>1993</ele>
<time>2014-10-04T12:35:16Z</time>
</trkpt>
<trkpt lat="42.94698" lon="-0.84270424">
<ele>1991</ele>
<time>2014-10-04T12:35:18Z</time>
</trkpt>
<trkpt lat="42.94711" lon="-0.8427397">
<ele>1988</ele>
<time>2014-10-04T12:35:20Z</time>
</trkpt>
<trkpt lat="42.9472" lon="-0.84274167">
<ele>1986</ele>
<time>2014-10-04T12:35:22Z</time>
</trkpt>
<trkpt lat="42.947315" lon="-0.8427878">
<ele>1983</ele>
<time>2014-10-04T12:35:24Z</time>
</trkpt>
<trkpt lat="42.94744" lon="-0.8428317">
<ele>1978</ele>
<time>2014-10-04T12:35:26Z</time>
</trkpt>
<trkpt lat="42.94758" lon="-0.842852">
<ele>1973</ele>
<time>2014-10-04T12:35:28Z</time>
</trkpt>
<trkpt lat="42.94765" lon="-0.8430043">
<ele>1970</ele>
<time>2014-10-04T12:35:30Z</time>
</trkpt>
<trkpt lat="42.947655" lon="-0.84317595">
<ele>1971</ele>
<time>2014-10-04T12:35:32Z</time>
</trkpt>
<trkpt lat="42.947662" lon="-0.84331185">
<ele>1968</ele>
<time>2014-10-04T12:35:34Z</time>
</trkpt>
<trkpt lat="42.947655" lon="-0.8434645">
<ele>1967</ele>
<time>2014-10-04T12:35:36Z</time>
</trkpt>
<trkpt lat="42.94767" lon="-0.843576">
<ele>1967</ele>
<time>2014-10-04T12:35:38Z</time>
</trkpt>
<trkpt lat="42.947704" lon="-0.8437227">
<ele>1967</ele>
<time>2014-10-04T12:35:40Z</time>
</trkpt>
<trkpt lat="42.947773" lon="-0.8438373">
<ele>1963</ele>
<time>2014-10-04T12:35:42Z</time>
</trkpt>
<trkpt lat="42.94785" lon="-0.84397376">
<ele>1961</ele>
<time>2014-10-04T12:35:44Z</time>
</trkpt>
<trkpt lat="42.947937" lon="-0.8440702">
<ele>1960</ele>
<time>2014-10-04T12:35:46Z</time>
</trkpt>
<trkpt lat="42.948063" lon="-0.8441698">
<ele>1955</ele>
<time>2014-10-04T12:35:48Z</time>
</trkpt>
<trkpt lat="42.948154" lon="-0.8442957">
<ele>1953</ele>
<time>2014-10-04T12:35:50Z</time>
</trkpt>
<trkpt lat="42.948196" lon="-0.84441495">
<ele>1949</ele>
<time>2014-10-04T12:35:52Z</time>
</trkpt>
<trkpt lat="42.94822" lon="-0.84456044">
<ele>1946</ele>
<time>2014-10-04T12:35:54Z</time>
</trkpt>
<trkpt lat="42.948223" lon="-0.8447104">
<ele>1945</ele>
<time>2014-10-04T12:35:56Z</time>
</trkpt>
<trkpt lat="42.948223" lon="-0.8448408">
<ele>1943</ele>
<time>2014-10-04T12:35:58Z</time>
</trkpt>
<trkpt lat="42.948257" lon="-0.8449888">
<ele>1939</ele>
<time>2014-10-04T12:36:00Z</time>
</trkpt>
<trkpt lat="42.9483" lon="-0.8451965">
<ele>1940</ele>
<time>2014-10-04T12:36:02Z</time>
</trkpt>
<trkpt lat="42.94832" lon="-0.8453616">
<ele>1942</ele>
<time>2014-10-04T12:36:04Z</time>
</trkpt>
<trkpt lat="42.94828" lon="-0.8454783">
<ele>1938</ele>
<time>2014-10-04T12:36:06Z</time>
</trkpt>
<trkpt lat="42.948162" lon="-0.84555566">
<ele>1936</ele>
<time>2014-10-04T12:36:08Z</time>
</trkpt>
<trkpt lat="42.94804" lon="-0.84557784">
<ele>1938</ele>
<time>2014-10-04T12:36:10Z</time>
</trkpt>
<trkpt lat="42.94793" lon="-0.84559387">
<ele>1939</ele>
<time>2014-10-04T12:36:12Z</time>
</trkpt>
<trkpt lat="42.947803" lon="-0.84564126">
<ele>1935</ele>
<time>2014-10-04T12:36:14Z</time>
</trkpt>
<trkpt lat="42.94769" lon="-0.8457202">
<ele>1934</ele>
<time>2014-10-04T12:36:16Z</time>
</trkpt>
<trkpt lat="42.947563" lon="-0.845775">
<ele>1934</ele>
<time>2014-10-04T12:36:18Z</time>
</trkpt>
<trkpt lat="42.947384" lon="-0.8457872">
<ele>1935</ele>
<time>2014-10-04T12:36:20Z</time>
</trkpt>
<trkpt lat="42.947227" lon="-0.8456875">
<ele>1937</ele>
<time>2014-10-04T12:36:22Z</time>
</trkpt>
<trkpt lat="42.947098" lon="-0.84565026">
<ele>1939</ele>
<time>2014-10-04T12:36:24Z</time>
</trkpt>
<trkpt lat="42.946957" lon="-0.84556204">
<ele>1937</ele>
<time>2014-10-04T12:36:26Z</time>
</trkpt>
<trkpt lat="42.946804" lon="-0.84550226">
<ele>1937</ele>
<time>2014-10-04T12:36:28Z</time>
</trkpt>
<trkpt lat="42.946655" lon="-0.8454071">
<ele>1935</ele>
<time>2014-10-04T12:36:30Z</time>
</trkpt>
<trkpt lat="42.9465" lon="-0.8453459">
<ele>1931</ele>
<time>2014-10-04T12:36:32Z</time>
</trkpt>
<trkpt lat="42.94633" lon="-0.8452268">
<ele>1931</ele>
<time>2014-10-04T12:36:34Z</time>
</trkpt>
<trkpt lat="42.94622" lon="-0.845159">
<ele>1928</ele>
<time>2014-10-04T12:36:35Z</time>
</trkpt>
<trkpt lat="42.946064" lon="-0.8451109">
<ele>1925</ele>
<time>2014-10-04T12:36:38Z</time>
</trkpt>
<trkpt lat="42.945923" lon="-0.84509647">
<ele>1925</ele>
<time>2014-10-04T12:36:40Z</time>
</trkpt>
<trkpt lat="42.94586" lon="-0.8451915">
<ele>1925</ele>
<time>2014-10-04T12:36:42Z</time>
</trkpt>
<trkpt lat="42.945774" lon="-0.84531045">
<ele>1926</ele>
<time>2014-10-04T12:36:44Z</time>
</trkpt>
<trkpt lat="42.9457" lon="-0.84543717">
<ele>1927</ele>
<time>2014-10-04T12:36:46Z</time>
</trkpt>
<trkpt lat="42.94564" lon="-0.8455716">
<ele>1925</ele>
<time>2014-10-04T12:36:48Z</time>
</trkpt>
<trkpt lat="42.94554" lon="-0.84573424">
<ele>1923</ele>
<time>2014-10-04T12:36:50Z</time>
</trkpt>
<trkpt lat="42.945396" lon="-0.8458336">
<ele>1922</ele>
<time>2014-10-04T12:36:52Z</time>
</trkpt>
<trkpt lat="42.945244" lon="-0.84590393">
<ele>1922</ele>
<time>2014-10-04T12:36:54Z</time>
</trkpt>
<trkpt lat="42.945194" lon="-0.8459756">
<ele>1921</ele>
<time>2014-10-04T12:36:56Z</time>
</trkpt>
<trkpt lat="42.945087" lon="-0.8460723">
<ele>1920</ele>
<time>2014-10-04T12:36:58Z</time>
</trkpt>
<trkpt lat="42.94499" lon="-0.8462119">
<ele>1922</ele>
<time>2014-10-04T12:37:00Z</time>
</trkpt>
<trkpt lat="42.94491" lon="-0.8463561">
<ele>1924</ele>
<time>2014-10-04T12:37:02Z</time>
</trkpt>
<trkpt lat="42.944824" lon="-0.84652954">
<ele>1926</ele>
<time>2014-10-04T12:37:04Z</time>
</trkpt>
<trkpt lat="42.94477" lon="-0.84669435">
<ele>1929</ele>
<time>2014-10-04T12:37:06Z</time>
</trkpt>
<trkpt lat="42.944714" lon="-0.8468445">
<ele>1931</ele>
<time>2014-10-04T12:37:08Z</time>
</trkpt>
<trkpt lat="42.94458" lon="-0.84692276">
<ele>1932</ele>
<time>2014-10-04T12:37:10Z</time>
</trkpt>
<trkpt lat="42.944424" lon="-0.84698415">
<ele>1931</ele>
<time>2014-10-04T12:37:12Z</time>
</trkpt>
<trkpt lat="42.94435" lon="-0.8470004">
<ele>1931</ele>
<time>2014-10-04T12:37:14Z</time>
</trkpt>
<trkpt lat="42.944214" lon="-0.8470013">
<ele>1931</ele>
<time>2014-10-04T12:37:16Z</time>
</trkpt>
<trkpt lat="42.944096" lon="-0.8470483">
<ele>1933</ele>
<time>2014-10-04T12:37:18Z</time>
</trkpt>
<trkpt lat="42.94398" lon="-0.8470985">
<ele>1933</ele>
<time>2014-10-04T12:37:20Z</time>
</trkpt>
<trkpt lat="42.94389" lon="-0.8472411">
<ele>1934</ele>
<time>2014-10-04T12:37:22Z</time>
</trkpt>
<trkpt lat="42.943752" lon="-0.8473052">
<ele>1933</ele>
<time>2014-10-04T12:37:24Z</time>
</trkpt>
<trkpt lat="42.94363" lon="-0.8472924">
<ele>1933</ele>
<time>2014-10-04T12:37:26Z</time>
</trkpt>
<trkpt lat="42.943504" lon="-0.84712577">
<ele>1928</ele>
<time>2014-10-04T12:37:28Z</time>
</trkpt>
<trkpt lat="42.943413" lon="-0.8469585">
<ele>1926</ele>
<time>2014-10-04T12:37:30Z</time>
</trkpt>
<trkpt lat="42.943348" lon="-0.8467836">
<ele>1923</ele>
<time>2014-10-04T12:37:32Z</time>
</trkpt>
<trkpt lat="42.94324" lon="-0.8466191">
<ele>1921</ele>
<time>2014-10-04T12:37:34Z</time>
</trkpt>
<trkpt lat="42.943142" lon="-0.84648734">
<ele>1921</ele>
<time>2014-10-04T12:37:36Z</time>
</trkpt>
<trkpt lat="42.942997" lon="-0.84651136">
<ele>1921</ele>
<time>2014-10-04T12:37:38Z</time>
</trkpt>
<trkpt lat="42.94285" lon="-0.8465871">
<ele>1920</ele>
<time>2014-10-04T12:37:40Z</time>
</trkpt>
<trkpt lat="42.9427" lon="-0.84664166">
<ele>1918</ele>
<time>2014-10-04T12:37:42Z</time>
</trkpt>
<trkpt lat="42.94252" lon="-0.8466128">
<ele>1914</ele>
<time>2014-10-04T12:37:44Z</time>
</trkpt>
<trkpt lat="42.942444" lon="-0.846376">
<ele>1909</ele>
<time>2014-10-04T12:37:46Z</time>
</trkpt>
<trkpt lat="42.94252" lon="-0.8461521">
<ele>1907</ele>
<time>2014-10-04T12:37:48Z</time>
</trkpt>
<trkpt lat="42.942657" lon="-0.8460393">
<ele>1904</ele>
<time>2014-10-04T12:37:50Z</time>
</trkpt>
<trkpt lat="42.94283" lon="-0.84598297">
<ele>1903</ele>
<time>2014-10-04T12:37:52Z</time>
</trkpt>
<trkpt lat="42.943005" lon="-0.8459457">
<ele>1902</ele>
<time>2014-10-04T12:37:54Z</time>
</trkpt>
<trkpt lat="42.94315" lon="-0.8459144">
<ele>1900</ele>
<time>2014-10-04T12:37:56Z</time>
</trkpt>
<trkpt lat="42.943333" lon="-0.8458704">
<ele>1895</ele>
<time>2014-10-04T12:37:58Z</time>
</trkpt>
<trkpt lat="42.943527" lon="-0.84584814">
<ele>1890</ele>
<time>2014-10-04T12:38:00Z</time>
</trkpt>
<trkpt lat="42.943718" lon="-0.8457909">
<ele>1889</ele>
<time>2014-10-04T12:38:02Z</time>
</trkpt>
<trkpt lat="42.94388" lon="-0.84573424">
<ele>1888</ele>
<time>2014-10-04T12:38:04Z</time>
</trkpt>
<trkpt lat="42.944046" lon="-0.8456298">
<ele>1885</ele>
<time>2014-10-04T12:38:06Z</time>
</trkpt>
<trkpt lat="42.944153" lon="-0.84544945">
<ele>1882</ele>
<time>2014-10-04T12:38:08Z</time>
</trkpt>
<trkpt lat="42.94427" lon="-0.84528565">
<ele>1879</ele>
<time>2014-10-04T12:38:10Z</time>
</trkpt>
<trkpt lat="42.94432" lon="-0.84511966">
<ele>1874</ele>
<time>2014-10-04T12:38:12Z</time>
</trkpt>
<trkpt lat="42.94438" lon="-0.84490806">
<ele>1869</ele>
<time>2014-10-04T12:38:14Z</time>
</trkpt>
<trkpt lat="42.944473" lon="-0.8447081">
<ele>1865</ele>
<time>2014-10-04T12:38:16Z</time>
</trkpt>
<trkpt lat="42.944706" lon="-0.8447089">
<ele>1858</ele>
<time>2014-10-04T12:38:18Z</time>
</trkpt>
<trkpt lat="42.944885" lon="-0.84478927">
<ele>1856</ele>
<time>2014-10-04T12:38:20Z</time>
</trkpt>
<trkpt lat="42.94505" lon="-0.8449779">
<ele>1848</ele>
<time>2014-10-04T12:38:22Z</time>
</trkpt>
<trkpt lat="42.945187" lon="-0.8451735">
<ele>1845</ele>
<time>2014-10-04T12:38:24Z</time>
</trkpt>
<trkpt lat="42.945324" lon="-0.8453667">
<ele>1845</ele>
<time>2014-10-04T12:38:26Z</time>
</trkpt>
<trkpt lat="42.945457" lon="-0.8455239">
<ele>1846</ele>
<time>2014-10-04T12:38:28Z</time>
</trkpt>
<trkpt lat="42.9456" lon="-0.84562725">
<ele>1845</ele>
<time>2014-10-04T12:38:30Z</time>
</trkpt>
<trkpt lat="42.94578" lon="-0.8456463">
<ele>1844</ele>
<time>2014-10-04T12:38:32Z</time>
</trkpt>
<trkpt lat="42.945976" lon="-0.84561247">
<ele>1845</ele>
<time>2014-10-04T12:38:34Z</time>
</trkpt>
<trkpt lat="42.94617" lon="-0.84555006">
<ele>1846</ele>
<time>2014-10-04T12:38:36Z</time>
</trkpt>
<trkpt lat="42.94634" lon="-0.8455375">
<ele>1847</ele>
<time>2014-10-04T12:38:38Z</time>
</trkpt>
<trkpt lat="42.946503" lon="-0.84550315">
<ele>1848</ele>
<time>2014-10-04T12:38:40Z</time>
</trkpt>
<trkpt lat="42.94669" lon="-0.84553075">
<ele>1851</ele>
<time>2014-10-04T12:38:42Z</time>
</trkpt>
<trkpt lat="42.94688" lon="-0.8455426">
<ele>1853</ele>
<time>2014-10-04T12:38:44Z</time>
</trkpt>
<trkpt lat="42.94702" lon="-0.8455164">
<ele>1854</ele>
<time>2014-10-04T12:38:46Z</time>
</trkpt>
<trkpt lat="42.94726" lon="-0.8454931">
<ele>1855</ele>
<time>2014-10-04T12:38:48Z</time>
</trkpt>
<trkpt lat="42.947483" lon="-0.84551805">
<ele>1856</ele>
<time>2014-10-04T12:38:50Z</time>
</trkpt>
<trkpt lat="42.947647" lon="-0.84554726">
<ele>1855</ele>
<time>2014-10-04T12:38:52Z</time>
</trkpt>
<trkpt lat="42.947807" lon="-0.84559715">
<ele>1854</ele>
<time>2014-10-04T12:38:54Z</time>
</trkpt>
<trkpt lat="42.947872" lon="-0.8458937">
<ele>1851</ele>
<time>2014-10-04T12:38:56Z</time>
</trkpt>
<trkpt lat="42.9479" lon="-0.8461088">
<ele>1854</ele>
<time>2014-10-04T12:38:58Z</time>
</trkpt>
<trkpt lat="42.947887" lon="-0.84627134">
<ele>1853</ele>
<time>2014-10-04T12:39:00Z</time>
</trkpt>
<trkpt lat="42.94783" lon="-0.84650093">
<ele>1852</ele>
<time>2014-10-04T12:39:02Z</time>
</trkpt>
<trkpt lat="42.94775" lon="-0.84671795">
<ele>1851</ele>
<time>2014-10-04T12:39:04Z</time>
</trkpt>
<trkpt lat="42.9477" lon="-0.8468267">
<ele>1853</ele>
<time>2014-10-04T12:39:06Z</time>
</trkpt>
<trkpt lat="42.947586" lon="-0.8469446">
<ele>1850</ele>
<time>2014-10-04T12:39:08Z</time>
</trkpt>
<trkpt lat="42.947468" lon="-0.8470412">
<ele>1852</ele>
<time>2014-10-04T12:39:10Z</time>
</trkpt>
<trkpt lat="42.947342" lon="-0.847139">
<ele>1854</ele>
<time>2014-10-04T12:39:11Z</time>
</trkpt>
<trkpt lat="42.947212" lon="-0.8471875">
<ele>1854</ele>
<time>2014-10-04T12:39:14Z</time>
</trkpt>
<trkpt lat="42.94709" lon="-0.8471963">
<ele>1856</ele>
<time>2014-10-04T12:39:16Z</time>
</trkpt>
<trkpt lat="42.94685" lon="-0.84716934">
<ele>1858</ele>
<time>2014-10-04T12:39:19Z</time>
</trkpt>
<trkpt lat="42.946743" lon="-0.8471226">
<ele>1858</ele>
<time>2014-10-04T12:39:21Z</time>
</trkpt>
<trkpt lat="42.946613" lon="-0.84702766">
<ele>1859</ele>
<time>2014-10-04T12:39:23Z</time>
</trkpt>
<trkpt lat="42.94653" lon="-0.8469178">
<ele>1860</ele>
<time>2014-10-04T12:39:25Z</time>
</trkpt>
<trkpt lat="42.946438" lon="-0.84676087">
<ele>1861</ele>
<time>2014-10-04T12:39:27Z</time>
</trkpt>
<trkpt lat="42.946377" lon="-0.8464904">
<ele>1864</ele>
<time>2014-10-04T12:39:29Z</time>
</trkpt>
<trkpt lat="42.946365" lon="-0.8461988">
<ele>1867</ele>
<time>2014-10-04T12:39:31Z</time>
</trkpt>
<trkpt lat="42.94647" lon="-0.84599453">
<ele>1870</ele>
<time>2014-10-04T12:39:33Z</time>
</trkpt>
<trkpt lat="42.946606" lon="-0.8457821">
<ele>1870</ele>
<time>2014-10-04T12:39:35Z</time>
</trkpt>
<trkpt lat="42.946793" lon="-0.84565383">
<ele>1872</ele>
<time>2014-10-04T12:39:37Z</time>
</trkpt>
<trkpt lat="42.946964" lon="-0.84552795">
<ele>1873</ele>
<time>2014-10-04T12:39:39Z</time>
</trkpt>
<trkpt lat="42.9471" lon="-0.8453468">
<ele>1871</ele>
<time>2014-10-04T12:39:41Z</time>
</trkpt>
<trkpt lat="42.947292" lon="-0.84517354">
<ele>1873</ele>
<time>2014-10-04T12:39:43Z</time>
</trkpt>
<trkpt lat="42.94746" lon="-0.8450799">
<ele>1877</ele>
<time>2014-10-04T12:39:45Z</time>
</trkpt>
<trkpt lat="42.947624" lon="-0.84503764">
<ele>1876</ele>
<time>2014-10-04T12:39:47Z</time>
</trkpt>
<trkpt lat="42.947803" lon="-0.8451144">
<ele>1875</ele>
<time>2014-10-04T12:39:49Z</time>
</trkpt>
<trkpt lat="42.94793" lon="-0.845266">
<ele>1877</ele>
<time>2014-10-04T12:39:51Z</time>
</trkpt>
<trkpt lat="42.948006" lon="-0.8454991">
<ele>1879</ele>
<time>2014-10-04T12:39:53Z</time>
</trkpt>
<trkpt lat="42.948036" lon="-0.84569585">
<ele>1880</ele>
<time>2014-10-04T12:39:55Z</time>
</trkpt>
<trkpt lat="42.94801" lon="-0.8459299">
<ele>1878</ele>
<time>2014-10-04T12:39:57Z</time>
</trkpt>
<trkpt lat="42.947952" lon="-0.8461529">
<ele>1883</ele>
<time>2014-10-04T12:39:59Z</time>
</trkpt>
<trkpt lat="42.947895" lon="-0.846315">
<ele>1888</ele>
<time>2014-10-04T12:40:01Z</time>
</trkpt>
<trkpt lat="42.94782" lon="-0.84645087">
<ele>1888</ele>
<time>2014-10-04T12:40:03Z</time>
</trkpt>
<trkpt lat="42.94771" lon="-0.8465963">
<ele>1888</ele>
<time>2014-10-04T12:40:05Z</time>
</trkpt>
<trkpt lat="42.947605" lon="-0.8466954">
<ele>1889</ele>
<time>2014-10-04T12:40:07Z</time>
</trkpt>
<trkpt lat="42.94751" lon="-0.8468371">
<ele>1889</ele>
<time>2014-10-04T12:40:09Z</time>
</trkpt>
<trkpt lat="42.947372" lon="-0.84694284">
<ele>1889</ele>
<time>2014-10-04T12:40:11Z</time>
</trkpt>
<trkpt lat="42.94726" lon="-0.84700805">
<ele>1887</ele>
<time>2014-10-04T12:40:12Z</time>
</trkpt>
<trkpt lat="42.947117" lon="-0.84699917">
<ele>1887</ele>
<time>2014-10-04T12:40:15Z</time>
</trkpt>
<trkpt lat="42.94696" lon="-0.8467508">
<ele>1888</ele>
<time>2014-10-04T12:40:17Z</time>
</trkpt>
<trkpt lat="42.946865" lon="-0.8465308">
<ele>1887</ele>
<time>2014-10-04T12:40:19Z</time>
</trkpt>
<trkpt lat="42.946827" lon="-0.8463042">
<ele>1884</ele>
<time>2014-10-04T12:40:21Z</time>
</trkpt>
<trkpt lat="42.9468" lon="-0.84608155">
<ele>1885</ele>
<time>2014-10-04T12:40:23Z</time>
</trkpt>
<trkpt lat="42.9468" lon="-0.8458467">
<ele>1883</ele>
<time>2014-10-04T12:40:25Z</time>
</trkpt>
<trkpt lat="42.946785" lon="-0.84561986">
<ele>1879</ele>
<time>2014-10-04T12:40:27Z</time>
</trkpt>
<trkpt lat="42.946785" lon="-0.8453615">
<ele>1876</ele>
<time>2014-10-04T12:40:29Z</time>
</trkpt>
<trkpt lat="42.946877" lon="-0.84511495">
<ele>1874</ele>
<time>2014-10-04T12:40:31Z</time>
</trkpt>
<trkpt lat="42.94697" lon="-0.844898">
<ele>1874</ele>
<time>2014-10-04T12:40:33Z</time>
</trkpt>
<trkpt lat="42.94707" lon="-0.8446895">
<ele>1873</ele>
<time>2014-10-04T12:40:35Z</time>
</trkpt>
<trkpt lat="42.94722" lon="-0.8445351">
<ele>1877</ele>
<time>2014-10-04T12:40:37Z</time>
</trkpt>
<trkpt lat="42.94732" lon="-0.84442145">
<ele>1876</ele>
<time>2014-10-04T12:40:39Z</time>
</trkpt>
<trkpt lat="42.9475" lon="-0.8443835">
<ele>1869</ele>
<time>2014-10-04T12:40:41Z</time>
</trkpt>
<trkpt lat="42.94769" lon="-0.84446055">
<ele>1867</ele>
<time>2014-10-04T12:40:43Z</time>
</trkpt>
<trkpt lat="42.947834" lon="-0.84456384">
<ele>1863</ele>
<time>2014-10-04T12:40:45Z</time>
</trkpt>
<trkpt lat="42.947933" lon="-0.8447752">
<ele>1858</ele>
<time>2014-10-04T12:40:47Z</time>
</trkpt>
<trkpt lat="42.947968" lon="-0.84502363">
<ele>1855</ele>
<time>2014-10-04T12:40:49Z</time>
</trkpt>
<trkpt lat="42.94797" lon="-0.84524596">
<ele>1853</ele>
<time>2014-10-04T12:40:51Z</time>
</trkpt>
<trkpt lat="42.947945" lon="-0.8454637">
<ele>1851</ele>
<time>2014-10-04T12:40:53Z</time>
</trkpt>
<trkpt lat="42.947906" lon="-0.84564126">
<ele>1850</ele>
<time>2014-10-04T12:40:55Z</time>
</trkpt>
<trkpt lat="42.94787" lon="-0.8458448">
<ele>1846</ele>
<time>2014-10-04T12:40:57Z</time>
</trkpt>
<trkpt lat="42.94782" lon="-0.8460636">
<ele>1844</ele>
<time>2014-10-04T12:40:59Z</time>
</trkpt>
<trkpt lat="42.947777" lon="-0.84630734">
<ele>1844</ele>
<time>2014-10-04T12:41:01Z</time>
</trkpt>
<trkpt lat="42.94776" lon="-0.84654504">
<ele>1844</ele>
<time>2014-10-04T12:41:03Z</time>
</trkpt>
<trkpt lat="42.947754" lon="-0.8466651">
<ele>1844</ele>
<time>2014-10-04T12:41:05Z</time>
</trkpt>
<trkpt lat="42.94774" lon="-0.84674245">
<ele>1844</ele>
<time>2014-10-04T12:41:07Z</time>
</trkpt>
<trkpt lat="42.94756" lon="-0.8468319">
<ele>1843</ele>
<time>2014-10-04T12:41:08Z</time>
</trkpt>
<trkpt lat="42.94741" lon="-0.84685117">
<ele>1845</ele>
<time>2014-10-04T12:41:11Z</time>
</trkpt>
<trkpt lat="42.947327" lon="-0.8469855">
<ele>1843</ele>
<time>2014-10-04T12:41:13Z</time>
</trkpt>
<trkpt lat="42.94722" lon="-0.8471235">
<ele>1840</ele>
<time>2014-10-04T12:41:15Z</time>
</trkpt>
<trkpt lat="42.947147" lon="-0.8472881">
<ele>1841</ele>
<time>2014-10-04T12:41:17Z</time>
</trkpt>
<trkpt lat="42.946995" lon="-0.84734505">
<ele>1839</ele>
<time>2014-10-04T12:41:19Z</time>
</trkpt>
<trkpt lat="42.946815" lon="-0.8472709">
<ele>1838</ele>
<time>2014-10-04T12:41:21Z</time>
</trkpt>
<trkpt lat="42.946724" lon="-0.8471066">
<ele>1835</ele>
<time>2014-10-04T12:41:23Z</time>
</trkpt>
<trkpt lat="42.946682" lon="-0.8468623">
<ele>1831</ele>
<time>2014-10-04T12:41:25Z</time>
</trkpt>
<trkpt lat="42.94672" lon="-0.84663296">
<ele>1830</ele>
<time>2014-10-04T12:41:27Z</time>
</trkpt>
<trkpt lat="42.94679" lon="-0.84641504">
<ele>1829</ele>
<time>2014-10-04T12:41:28Z</time>
</trkpt>
<trkpt lat="42.946835" lon="-0.8461985">
<ele>1829</ele>
<time>2014-10-04T12:41:31Z</time>
</trkpt>
<trkpt lat="42.946907" lon="-0.8459989">
<ele>1828</ele>
<time>2014-10-04T12:41:33Z</time>
</trkpt>
<trkpt lat="42.946976" lon="-0.8457708">
<ele>1825</ele>
<time>2014-10-04T12:41:35Z</time>
</trkpt>
<trkpt lat="42.947083" lon="-0.8455697">
<ele>1817</ele>
<time>2014-10-04T12:41:37Z</time>
</trkpt>
<trkpt lat="42.94724" lon="-0.8454586">
<ele>1813</ele>
<time>2014-10-04T12:41:39Z</time>
</trkpt>
<trkpt lat="42.947437" lon="-0.8454774">
<ele>1809</ele>
<time>2014-10-04T12:41:41Z</time>
</trkpt>
<trkpt lat="42.94764" lon="-0.845493">
<ele>1805</ele>
<time>2014-10-04T12:41:43Z</time>
</trkpt>
<trkpt lat="42.947853" lon="-0.84553444">
<ele>1803</ele>
<time>2014-10-04T12:41:45Z</time>
</trkpt>
<trkpt lat="42.94807" lon="-0.8455842">
<ele>1802</ele>
<time>2014-10-04T12:41:47Z</time>
</trkpt>
<trkpt lat="42.94827" lon="-0.84554625">
<ele>1802</ele>
<time>2014-10-04T12:41:49Z</time>
</trkpt>
<trkpt lat="42.948505" lon="-0.84573525">
<ele>1793</ele>
<time>2014-10-04T12:41:51Z</time>
</trkpt>
<trkpt lat="42.948715" lon="-0.8458789">
<ele>1790</ele>
<time>2014-10-04T12:41:53Z</time>
</trkpt>
<trkpt lat="42.948914" lon="-0.8460081">
<ele>1787</ele>
<time>2014-10-04T12:41:55Z</time>
</trkpt>
<trkpt lat="42.949112" lon="-0.84615356">
<ele>1781</ele>
<time>2014-10-04T12:41:57Z</time>
</trkpt>
<trkpt lat="42.94929" lon="-0.84635454">
<ele>1780</ele>
<time>2014-10-04T12:41:59Z</time>
</trkpt>
<trkpt lat="42.94945" lon="-0.84655845">
<ele>1780</ele>
<time>2014-10-04T12:42:01Z</time>
</trkpt>
<trkpt lat="42.949654" lon="-0.8466255">
<ele>1780</ele>
<time>2014-10-04T12:42:03Z</time>
</trkpt>
<trkpt lat="42.94985" lon="-0.84674287">
<ele>1779</ele>
<time>2014-10-04T12:42:05Z</time>
</trkpt>
<trkpt lat="42.950016" lon="-0.8468801">
<ele>1780</ele>
<time>2014-10-04T12:42:07Z</time>
</trkpt>
<trkpt lat="42.950165" lon="-0.84707755">
<ele>1780</ele>
<time>2014-10-04T12:42:09Z</time>
</trkpt>
<trkpt lat="42.950314" lon="-0.84728533">
<ele>1780</ele>
<time>2014-10-04T12:42:11Z</time>
</trkpt>
<trkpt lat="42.950447" lon="-0.8475006">
<ele>1781</ele>
<time>2014-10-04T12:42:13Z</time>
</trkpt>
<trkpt lat="42.950596" lon="-0.8477147">
<ele>1781</ele>
<time>2014-10-04T12:42:15Z</time>
</trkpt>
<trkpt lat="42.950752" lon="-0.84794664">
<ele>1784</ele>
<time>2014-10-04T12:42:17Z</time>
</trkpt>
<trkpt lat="42.95086" lon="-0.8481442">
<ele>1785</ele>
<time>2014-10-04T12:42:19Z</time>
</trkpt>
<trkpt lat="42.950974" lon="-0.84832764">
<ele>1783</ele>
<time>2014-10-04T12:42:21Z</time>
</trkpt>
<trkpt lat="42.951065" lon="-0.84860456">
<ele>1784</ele>
<time>2014-10-04T12:42:23Z</time>
</trkpt>
<trkpt lat="42.95113" lon="-0.8488021">
<ele>1786</ele>
<time>2014-10-04T12:42:25Z</time>
</trkpt>
<trkpt lat="42.951168" lon="-0.84900737">
<ele>1784</ele>
<time>2014-10-04T12:42:27Z</time>
</trkpt>
<trkpt lat="42.951122" lon="-0.8492224">
<ele>1782</ele>
<time>2014-10-04T12:42:29Z</time>
</trkpt>
<trkpt lat="42.95095" lon="-0.8491198">
<ele>1778</ele>
<time>2014-10-04T12:42:31Z</time>
</trkpt>
<trkpt lat="42.9509" lon="-0.8488382">
<ele>1779</ele>
<time>2014-10-04T12:42:33Z</time>
</trkpt>
<trkpt lat="42.950924" lon="-0.848601">
<ele>1780</ele>
<time>2014-10-04T12:42:35Z</time>
</trkpt>
<trkpt lat="42.95095" lon="-0.84843403">
<ele>1780</ele>
<time>2014-10-04T12:42:37Z</time>
</trkpt>
<trkpt lat="42.95094" lon="-0.8482372">
<ele>1781</ele>
<time>2014-10-04T12:42:39Z</time>
</trkpt>
<trkpt lat="42.950954" lon="-0.8480362">
<ele>1782</ele>
<time>2014-10-04T12:42:41Z</time>
</trkpt>
<trkpt lat="42.951046" lon="-0.84784997">
<ele>1783</ele>
<time>2014-10-04T12:42:43Z</time>
</trkpt>
<trkpt lat="42.951107" lon="-0.8476781">
<ele>1784</ele>
<time>2014-10-04T12:42:45Z</time>
</trkpt>
<trkpt lat="42.951134" lon="-0.8474003">
<ele>1784</ele>
<time>2014-10-04T12:42:47Z</time>
</trkpt>
<trkpt lat="42.951096" lon="-0.8472549">
<ele>1786</ele>
<time>2014-10-04T12:42:49Z</time>
</trkpt>
<trkpt lat="42.951077" lon="-0.84707785">
<ele>1788</ele>
<time>2014-10-04T12:42:51Z</time>
</trkpt>
<trkpt lat="42.95103" lon="-0.8469187">
<ele>1791</ele>
<time>2014-10-04T12:42:53Z</time>
</trkpt>
<trkpt lat="42.951008" lon="-0.84675443">
<ele>1790</ele>
<time>2014-10-04T12:42:55Z</time>
</trkpt>
<trkpt lat="42.950996" lon="-0.84660566">
<ele>1791</ele>
<time>2014-10-04T12:42:57Z</time>
</trkpt>
<trkpt lat="42.95096" lon="-0.84643924">
<ele>1791</ele>
<time>2014-10-04T12:42:59Z</time>
</trkpt>
<trkpt lat="42.950882" lon="-0.84627384">
<ele>1789</ele>
<time>2014-10-04T12:43:01Z</time>
</trkpt>
<trkpt lat="42.95083" lon="-0.84612393">
<ele>1789</ele>
<time>2014-10-04T12:43:03Z</time>
</trkpt>
<trkpt lat="42.9508" lon="-0.8459442">
<ele>1790</ele>
<time>2014-10-04T12:43:05Z</time>
</trkpt>
<trkpt lat="42.950794" lon="-0.8457308">
<ele>1790</ele>
<time>2014-10-04T12:43:07Z</time>
</trkpt>
<trkpt lat="42.950752" lon="-0.845527">
<ele>1789</ele>
<time>2014-10-04T12:43:09Z</time>
</trkpt>
<trkpt lat="42.950718" lon="-0.8452917">
<ele>1790</ele>
<time>2014-10-04T12:43:11Z</time>
</trkpt>
<trkpt lat="42.950665" lon="-0.8450305">
<ele>1791</ele>
<time>2014-10-04T12:43:13Z</time>
</trkpt>
<trkpt lat="42.950638" lon="-0.84481424">
<ele>1792</ele>
<time>2014-10-04T12:43:15Z</time>
</trkpt>
<trkpt lat="42.95063" lon="-0.84462416">
<ele>1793</ele>
<time>2014-10-04T12:43:17Z</time>
</trkpt>
<trkpt lat="42.9506" lon="-0.8444272">
<ele>1791</ele>
<time>2014-10-04T12:43:19Z</time>
</trkpt>
<trkpt lat="42.95053" lon="-0.84424627">
<ele>1792</ele>
<time>2014-10-04T12:43:21Z</time>
</trkpt>
<trkpt lat="42.950417" lon="-0.8442405">
<ele>1793</ele>
<time>2014-10-04T12:43:23Z</time>
</trkpt>
<trkpt lat="42.950348" lon="-0.84439933">
<ele>1793</ele>
<time>2014-10-04T12:43:25Z</time>
</trkpt>
<trkpt lat="42.95035" lon="-0.8446738">
<ele>1795</ele>
<time>2014-10-04T12:43:27Z</time>
</trkpt>
<trkpt lat="42.95051" lon="-0.84483206">
<ele>1800</ele>
<time>2014-10-04T12:43:29Z</time>
</trkpt>
<trkpt lat="42.950535" lon="-0.8450359">
<ele>1802</ele>
<time>2014-10-04T12:43:31Z</time>
</trkpt>
<trkpt lat="42.950554" lon="-0.8452156">
<ele>1803</ele>
<time>2014-10-04T12:43:33Z</time>
</trkpt>
<trkpt lat="42.950607" lon="-0.84539986">
<ele>1801</ele>
<time>2014-10-04T12:43:35Z</time>
</trkpt>
<trkpt lat="42.950573" lon="-0.84556395">
<ele>1798</ele>
<time>2014-10-04T12:43:37Z</time>
</trkpt>
<trkpt lat="42.950428" lon="-0.8455982">
<ele>1794</ele>
<time>2014-10-04T12:43:39Z</time>
</trkpt>
<trkpt lat="42.950386" lon="-0.84534514">
<ele>1797</ele>
<time>2014-10-04T12:43:41Z</time>
</trkpt>
<trkpt lat="42.950394" lon="-0.84512556">
<ele>1798</ele>
<time>2014-10-04T12:43:43Z</time>
</trkpt>
<trkpt lat="42.950462" lon="-0.84487474">
<ele>1796</ele>
<time>2014-10-04T12:43:45Z</time>
</trkpt>
<trkpt lat="42.950523" lon="-0.84461725">
<ele>1796</ele>
<time>2014-10-04T12:43:47Z</time>
</trkpt>
<trkpt lat="42.95053" lon="-0.8443972">
<ele>1797</ele>
<time>2014-10-04T12:43:49Z</time>
</trkpt>
<trkpt lat="42.950535" lon="-0.8441438">
<ele>1793</ele>
<time>2014-10-04T12:43:51Z</time>
</trkpt>
<trkpt lat="42.950504" lon="-0.84392166">
<ele>1794</ele>
<time>2014-10-04T12:43:53Z</time>
</trkpt>
<trkpt lat="42.950466" lon="-0.8437164">
<ele>1795</ele>
<time>2014-10-04T12:43:55Z</time>
</trkpt>
<trkpt lat="42.950474" lon="-0.84349716">
<ele>1792</ele>
<time>2014-10-04T12:43:57Z</time>
</trkpt>
<trkpt lat="42.9504" lon="-0.84332603">
<ele>1794</ele>
<time>2014-10-04T12:43:59Z</time>
</trkpt>
<trkpt lat="42.95031" lon="-0.843261">
<ele>1794</ele>
<time>2014-10-04T12:44:01Z</time>
</trkpt>
<trkpt lat="42.950188" lon="-0.84331936">
<ele>1792</ele>
<time>2014-10-04T12:44:03Z</time>
</trkpt>
<trkpt lat="42.95012" lon="-0.8435198">
<ele>1788</ele>
<time>2014-10-04T12:44:05Z</time>
</trkpt>
<trkpt lat="42.95011" lon="-0.84377617">
<ele>1786</ele>
<time>2014-10-04T12:44:07Z</time>
</trkpt>
<trkpt lat="42.950195" lon="-0.84401095">
<ele>1786</ele>
<time>2014-10-04T12:44:09Z</time>
</trkpt>
<trkpt lat="42.950275" lon="-0.8442492">
<ele>1785</ele>
<time>2014-10-04T12:44:11Z</time>
</trkpt>
<trkpt lat="42.950325" lon="-0.84450996">
<ele>1784</ele>
<time>2014-10-04T12:44:13Z</time>
</trkpt>
<trkpt lat="42.95036" lon="-0.84470624">
<ele>1784</ele>
<time>2014-10-04T12:44:15Z</time>
</trkpt>
<trkpt lat="42.9504" lon="-0.84489053">
<ele>1782</ele>
<time>2014-10-04T12:44:17Z</time>
</trkpt>
<trkpt lat="42.950413" lon="-0.8451276">
<ele>1779</ele>
<time>2014-10-04T12:44:19Z</time>
</trkpt>
<trkpt lat="42.950447" lon="-0.84535855">
<ele>1780</ele>
<time>2014-10-04T12:44:21Z</time>
</trkpt>
<trkpt lat="42.950485" lon="-0.8455787">
<ele>1779</ele>
<time>2014-10-04T12:44:23Z</time>
</trkpt>
<trkpt lat="42.95057" lon="-0.8458069">
<ele>1778</ele>
<time>2014-10-04T12:44:25Z</time>
</trkpt>
<trkpt lat="42.95066" lon="-0.8460378">
<ele>1778</ele>
<time>2014-10-04T12:44:27Z</time>
</trkpt>
<trkpt lat="42.950733" lon="-0.84628165">
<ele>1775</ele>
<time>2014-10-04T12:44:29Z</time>
</trkpt>
<trkpt lat="42.950798" lon="-0.8465367">
<ele>1773</ele>
<time>2014-10-04T12:44:31Z</time>
</trkpt>
<trkpt lat="42.95084" lon="-0.84678286">
<ele>1773</ele>
<time>2014-10-04T12:44:33Z</time>
</trkpt>
<trkpt lat="42.950966" lon="-0.8470171">
<ele>1773</ele>
<time>2014-10-04T12:44:35Z</time>
</trkpt>
<trkpt lat="42.951065" lon="-0.8472475">
<ele>1776</ele>
<time>2014-10-04T12:44:37Z</time>
</trkpt>
<trkpt lat="42.951103" lon="-0.8474684">
<ele>1780</ele>
<time>2014-10-04T12:44:39Z</time>
</trkpt>
<trkpt lat="42.951176" lon="-0.8476264">
<ele>1781</ele>
<time>2014-10-04T12:44:41Z</time>
</trkpt>
<trkpt lat="42.95126" lon="-0.84780264">
<ele>1779</ele>
<time>2014-10-04T12:44:43Z</time>
</trkpt>
<trkpt lat="42.951378" lon="-0.8479512">
<ele>1778</ele>
<time>2014-10-04T12:44:45Z</time>
</trkpt>
<trkpt lat="42.951496" lon="-0.8481333">
<ele>1780</ele>
<time>2014-10-04T12:44:47Z</time>
</trkpt>
<trkpt lat="42.951557" lon="-0.8483319">
<ele>1780</ele>
<time>2014-10-04T12:44:49Z</time>
</trkpt>
<trkpt lat="42.95154" lon="-0.84859735">
<ele>1780</ele>
<time>2014-10-04T12:44:51Z</time>
</trkpt>
<trkpt lat="42.951538" lon="-0.8488212">
<ele>1785</ele>
<time>2014-10-04T12:44:53Z</time>
</trkpt>
<trkpt lat="42.95155" lon="-0.8490274">
<ele>1788</ele>
<time>2014-10-04T12:44:55Z</time>
</trkpt>
<trkpt lat="42.951588" lon="-0.8492534">
<ele>1790</ele>
<time>2014-10-04T12:44:57Z</time>
</trkpt>
<trkpt lat="42.95162" lon="-0.8494374">
<ele>1792</ele>
<time>2014-10-04T12:44:59Z</time>
</trkpt>
<trkpt lat="42.951607" lon="-0.8496374">
<ele>1793</ele>
<time>2014-10-04T12:45:01Z</time>
</trkpt>
<trkpt lat="42.95157" lon="-0.8498499">
<ele>1796</ele>
<time>2014-10-04T12:45:03Z</time>
</trkpt>
<trkpt lat="42.95154" lon="-0.8500456">
<ele>1797</ele>
<time>2014-10-04T12:45:05Z</time>
</trkpt>
<trkpt lat="42.95152" lon="-0.8502487">
<ele>1797</ele>
<time>2014-10-04T12:45:07Z</time>
</trkpt>
<trkpt lat="42.951515" lon="-0.8504816">
<ele>1799</ele>
<time>2014-10-04T12:45:09Z</time>
</trkpt>
<trkpt lat="42.951538" lon="-0.8506872">
<ele>1800</ele>
<time>2014-10-04T12:45:11Z</time>
</trkpt>
<trkpt lat="42.951557" lon="-0.85090464">
<ele>1801</ele>
<time>2014-10-04T12:45:13Z</time>
</trkpt>
<trkpt lat="42.951508" lon="-0.8511035">
<ele>1800</ele>
<time>2014-10-04T12:45:14Z</time>
</trkpt>
<trkpt lat="42.951363" lon="-0.85112816">
<ele>1799</ele>
<time>2014-10-04T12:45:17Z</time>
</trkpt>
<trkpt lat="42.95121" lon="-0.85098064">
<ele>1798</ele>
<time>2014-10-04T12:45:19Z</time>
</trkpt>
<trkpt lat="42.951233" lon="-0.85072875">
<ele>1802</ele>
<time>2014-10-04T12:45:21Z</time>
</trkpt>
<trkpt lat="42.95126" lon="-0.8505104">
<ele>1805</ele>
<time>2014-10-04T12:45:23Z</time>
</trkpt>
<trkpt lat="42.951237" lon="-0.85028446">
<ele>1805</ele>
<time>2014-10-04T12:45:25Z</time>
</trkpt>
<trkpt lat="42.951225" lon="-0.85002136">
<ele>1806</ele>
<time>2014-10-04T12:45:27Z</time>
</trkpt>
<trkpt lat="42.95125" lon="-0.8497865">
<ele>1808</ele>
<time>2014-10-04T12:45:29Z</time>
</trkpt>
<trkpt lat="42.951244" lon="-0.8495669">
<ele>1808</ele>
<time>2014-10-04T12:45:31Z</time>
</trkpt>
<trkpt lat="42.951256" lon="-0.84934044">
<ele>1806</ele>
<time>2014-10-04T12:45:33Z</time>
</trkpt>
<trkpt lat="42.95128" lon="-0.8491207">
<ele>1806</ele>
<time>2014-10-04T12:45:35Z</time>
</trkpt>
<trkpt lat="42.951324" lon="-0.84889066">
<ele>1806</ele>
<time>2014-10-04T12:45:37Z</time>
</trkpt>
<trkpt lat="42.951344" lon="-0.84867364">
<ele>1806</ele>
<time>2014-10-04T12:45:39Z</time>
</trkpt>
<trkpt lat="42.95128" lon="-0.8484502">
<ele>1805</ele>
<time>2014-10-04T12:45:41Z</time>
</trkpt>
<trkpt lat="42.95128" lon="-0.84819424">
<ele>1805</ele>
<time>2014-10-04T12:45:43Z</time>
</trkpt>
<trkpt lat="42.951214" lon="-0.84796464">
<ele>1803</ele>
<time>2014-10-04T12:45:45Z</time>
</trkpt>
<trkpt lat="42.951164" lon="-0.84770715">
<ele>1802</ele>
<time>2014-10-04T12:45:47Z</time>
</trkpt>
<trkpt lat="42.951134" lon="-0.84745735">
<ele>1805</ele>
<time>2014-10-04T12:45:49Z</time>
</trkpt>
<trkpt lat="42.951134" lon="-0.8472284">
<ele>1808</ele>
<time>2014-10-04T12:45:51Z</time>
</trkpt>
<trkpt lat="42.951176" lon="-0.8469819">
<ele>1809</ele>
<time>2014-10-04T12:45:53Z</time>
</trkpt>
<trkpt lat="42.951187" lon="-0.8467762">
<ele>1810</ele>
<time>2014-10-04T12:45:55Z</time>
</trkpt>
<trkpt lat="42.95113" lon="-0.8466489">
<ele>1810</ele>
<time>2014-10-04T12:45:57Z</time>
</trkpt>
<trkpt lat="42.951103" lon="-0.8465122">
<ele>1812</ele>
<time>2014-10-04T12:45:59Z</time>
</trkpt>
<trkpt lat="42.951084" lon="-0.8463104">
<ele>1814</ele>
<time>2014-10-04T12:46:01Z</time>
</trkpt>
<trkpt lat="42.95106" lon="-0.84615564">
<ele>1813</ele>
<time>2014-10-04T12:46:03Z</time>
</trkpt>
<trkpt lat="42.95105" lon="-0.84594685">
<ele>1814</ele>
<time>2014-10-04T12:46:05Z</time>
</trkpt>
<trkpt lat="42.951004" lon="-0.8457873">
<ele>1817</ele>
<time>2014-10-04T12:46:07Z</time>
</trkpt>
<trkpt lat="42.950947" lon="-0.8456548">
<ele>1815</ele>
<time>2014-10-04T12:46:09Z</time>
</trkpt>
<trkpt lat="42.950893" lon="-0.8454649">
<ele>1814</ele>
<time>2014-10-04T12:46:11Z</time>
</trkpt>
<trkpt lat="42.950806" lon="-0.845353">
<ele>1813</ele>
<time>2014-10-04T12:46:13Z</time>
</trkpt>
<trkpt lat="42.950695" lon="-0.84543794">
<ele>1815</ele>
<time>2014-10-04T12:46:15Z</time>
</trkpt>
<trkpt lat="42.95066" lon="-0.8456476">
<ele>1817</ele>
<time>2014-10-04T12:46:17Z</time>
</trkpt>
<trkpt lat="42.950783" lon="-0.84592426">
<ele>1817</ele>
<time>2014-10-04T12:46:19Z</time>
</trkpt>
<trkpt lat="42.950928" lon="-0.84616125">
<ele>1819</ele>
<time>2014-10-04T12:46:21Z</time>
</trkpt>
<trkpt lat="42.95106" lon="-0.8463606">
<ele>1822</ele>
<time>2014-10-04T12:46:23Z</time>
</trkpt>
<trkpt lat="42.9512" lon="-0.8465939">
<ele>1825</ele>
<time>2014-10-04T12:46:25Z</time>
</trkpt>
<trkpt lat="42.951225" lon="-0.8468089">
<ele>1830</ele>
<time>2014-10-04T12:46:27Z</time>
</trkpt>
<trkpt lat="42.951233" lon="-0.84700996">
<ele>1831</ele>
<time>2014-10-04T12:46:29Z</time>
</trkpt>
<trkpt lat="42.951275" lon="-0.84724325">
<ele>1831</ele>
<time>2014-10-04T12:46:31Z</time>
</trkpt>
<trkpt lat="42.95132" lon="-0.84748524">
<ele>1834</ele>
<time>2014-10-04T12:46:33Z</time>
</trkpt>
<trkpt lat="42.95134" lon="-0.84768623">
<ele>1837</ele>
<time>2014-10-04T12:46:35Z</time>
</trkpt>
<trkpt lat="42.95136" lon="-0.84789354">
<ele>1835</ele>
<time>2014-10-04T12:46:37Z</time>
</trkpt>
<trkpt lat="42.951355" lon="-0.84809744">
<ele>1834</ele>
<time>2014-10-04T12:46:39Z</time>
</trkpt>
<trkpt lat="42.95135" lon="-0.84830284">
<ele>1831</ele>
<time>2014-10-04T12:46:41Z</time>
</trkpt>
<trkpt lat="42.95134" lon="-0.8485328">
<ele>1829</ele>
<time>2014-10-04T12:46:43Z</time>
</trkpt>
<trkpt lat="42.951218" lon="-0.8486479">
<ele>1826</ele>
<time>2014-10-04T12:46:45Z</time>
</trkpt>
<trkpt lat="42.951077" lon="-0.8485554">
<ele>1825</ele>
<time>2014-10-04T12:46:47Z</time>
</trkpt>
<trkpt lat="42.951023" lon="-0.84833074">
<ele>1824</ele>
<time>2014-10-04T12:46:49Z</time>
</trkpt>
<trkpt lat="42.951008" lon="-0.848099">
<ele>1825</ele>
<time>2014-10-04T12:46:51Z</time>
</trkpt>
<trkpt lat="42.951065" lon="-0.84783614">
<ele>1826</ele>
<time>2014-10-04T12:46:53Z</time>
</trkpt>
<trkpt lat="42.951122" lon="-0.8475676">
<ele>1827</ele>
<time>2014-10-04T12:46:55Z</time>
</trkpt>
<trkpt lat="42.95116" lon="-0.84730256">
<ele>1828</ele>
<time>2014-10-04T12:46:57Z</time>
</trkpt>
<trkpt lat="42.951157" lon="-0.84706044">
<ele>1827</ele>
<time>2014-10-04T12:46:59Z</time>
</trkpt>
<trkpt lat="42.951138" lon="-0.8467853">
<ele>1829</ele>
<time>2014-10-04T12:47:01Z</time>
</trkpt>
<trkpt lat="42.951088" lon="-0.8465457">
<ele>1832</ele>
<time>2014-10-04T12:47:03Z</time>
</trkpt>
<trkpt lat="42.951073" lon="-0.8463225">
<ele>1833</ele>
<time>2014-10-04T12:47:05Z</time>
</trkpt>
<trkpt lat="42.95102" lon="-0.8461065">
<ele>1835</ele>
<time>2014-10-04T12:47:07Z</time>
</trkpt>
<trkpt lat="42.95095" lon="-0.8459476">
<ele>1838</ele>
<time>2014-10-04T12:47:09Z</time>
</trkpt>
<trkpt lat="42.950886" lon="-0.8458013">
<ele>1838</ele>
<time>2014-10-04T12:47:11Z</time>
</trkpt>
<trkpt lat="42.950787" lon="-0.8456669">
<ele>1837</ele>
<time>2014-10-04T12:47:13Z</time>
</trkpt>
<trkpt lat="42.950714" lon="-0.8455248">
<ele>1840</ele>
<time>2014-10-04T12:47:15Z</time>
</trkpt>
<trkpt lat="42.950653" lon="-0.84535635">
<ele>1838</ele>
<time>2014-10-04T12:47:17Z</time>
</trkpt>
<trkpt lat="42.950592" lon="-0.8451467">
<ele>1838</ele>
<time>2014-10-04T12:47:19Z</time>
</trkpt>
<trkpt lat="42.95053" lon="-0.8449776">
<ele>1840</ele>
<time>2014-10-04T12:47:21Z</time>
</trkpt>
<trkpt lat="42.95044" lon="-0.8449633">
<ele>1837</ele>
<time>2014-10-04T12:47:23Z</time>
</trkpt>
<trkpt lat="42.95037" lon="-0.84520835">
<ele>1832</ele>
<time>2014-10-04T12:47:25Z</time>
</trkpt>
<trkpt lat="42.950542" lon="-0.8454367">
<ele>1834</ele>
<time>2014-10-04T12:47:27Z</time>
</trkpt>
<trkpt lat="42.95067" lon="-0.84552723">
<ele>1838</ele>
<time>2014-10-04T12:47:29Z</time>
</trkpt>
<trkpt lat="42.950794" lon="-0.84569544">
<ele>1833</ele>
<time>2014-10-04T12:47:31Z</time>
</trkpt>
<trkpt lat="42.950897" lon="-0.8459298">
<ele>1833</ele>
<time>2014-10-04T12:47:33Z</time>
</trkpt>
<trkpt lat="42.95095" lon="-0.8461357">
<ele>1836</ele>
<time>2014-10-04T12:47:35Z</time>
</trkpt>
<trkpt lat="42.950985" lon="-0.8463497">
<ele>1838</ele>
<time>2014-10-04T12:47:37Z</time>
</trkpt>
<trkpt lat="42.951027" lon="-0.8466224">
<ele>1841</ele>
<time>2014-10-04T12:47:39Z</time>
</trkpt>
<trkpt lat="42.951073" lon="-0.84687746">
<ele>1843</ele>
<time>2014-10-04T12:47:41Z</time>
</trkpt>
<trkpt lat="42.95109" lon="-0.84714615">
<ele>1846</ele>
<time>2014-10-04T12:47:43Z</time>
</trkpt>
<trkpt lat="42.951122" lon="-0.84740764">
<ele>1849</ele>
<time>2014-10-04T12:47:45Z</time>
</trkpt>
<trkpt lat="42.951168" lon="-0.84764165">
<ele>1853</ele>
<time>2014-10-04T12:47:47Z</time>
</trkpt>
<trkpt lat="42.9512" lon="-0.8478574">
<ele>1856</ele>
<time>2014-10-04T12:47:49Z</time>
</trkpt>
<trkpt lat="42.95118" lon="-0.84804416">
<ele>1857</ele>
<time>2014-10-04T12:47:51Z</time>
</trkpt>
<trkpt lat="42.95107" lon="-0.848197">
<ele>1857</ele>
<time>2014-10-04T12:47:53Z</time>
</trkpt>
<trkpt lat="42.950893" lon="-0.84811264">
<ele>1856</ele>
<time>2014-10-04T12:47:55Z</time>
</trkpt>
<trkpt lat="42.95081" lon="-0.84781677">
<ele>1855</ele>
<time>2014-10-04T12:47:57Z</time>
</trkpt>
<trkpt lat="42.95089" lon="-0.84758306">
<ele>1858</ele>
<time>2014-10-04T12:47:59Z</time>
</trkpt>
<trkpt lat="42.95095" lon="-0.8473711">
<ele>1860</ele>
<time>2014-10-04T12:48:01Z</time>
</trkpt>
<trkpt lat="42.95102" lon="-0.8470886">
<ele>1861</ele>
<time>2014-10-04T12:48:03Z</time>
</trkpt>
<trkpt lat="42.951107" lon="-0.8468827">
<ele>1865</ele>
<time>2014-10-04T12:48:05Z</time>
</trkpt>
<trkpt lat="42.95117" lon="-0.84669095">
<ele>1866</ele>
<time>2014-10-04T12:48:07Z</time>
</trkpt>
<trkpt lat="42.951225" lon="-0.8464777">
<ele>1866</ele>
<time>2014-10-04T12:48:09Z</time>
</trkpt>
<trkpt lat="42.95123" lon="-0.8462472">
<ele>1869</ele>
<time>2014-10-04T12:48:11Z</time>
</trkpt>
<trkpt lat="42.95124" lon="-0.84600466">
<ele>1869</ele>
<time>2014-10-04T12:48:13Z</time>
</trkpt>
<trkpt lat="42.951138" lon="-0.8458373">
<ele>1875</ele>
<time>2014-10-04T12:48:15Z</time>
</trkpt>
<trkpt lat="42.95107" lon="-0.84572655">
<ele>1876</ele>
<time>2014-10-04T12:48:17Z</time>
</trkpt>
<trkpt lat="42.95098" lon="-0.84577173">
<ele>1876</ele>
<time>2014-10-04T12:48:19Z</time>
</trkpt>
<trkpt lat="42.95091" lon="-0.8460216">
<ele>1879</ele>
<time>2014-10-04T12:48:21Z</time>
</trkpt>
<trkpt lat="42.951015" lon="-0.8462261">
<ele>1885</ele>
<time>2014-10-04T12:48:23Z</time>
</trkpt>
<trkpt lat="42.951073" lon="-0.84639275">
<ele>1890</ele>
<time>2014-10-04T12:48:25Z</time>
</trkpt>
<trkpt lat="42.951122" lon="-0.8465859">
<ele>1893</ele>
<time>2014-10-04T12:48:27Z</time>
</trkpt>
<trkpt lat="42.951183" lon="-0.8468296">
<ele>1898</ele>
<time>2014-10-04T12:48:29Z</time>
</trkpt>
<trkpt lat="42.95122" lon="-0.84705436">
<ele>1906</ele>
<time>2014-10-04T12:48:31Z</time>
</trkpt>
<trkpt lat="42.951233" lon="-0.84730583">
<ele>1910</ele>
<time>2014-10-04T12:48:33Z</time>
</trkpt>
<trkpt lat="42.951237" lon="-0.8475403">
<ele>1911</ele>
<time>2014-10-04T12:48:35Z</time>
</trkpt>
<trkpt lat="42.951233" lon="-0.8477597">
<ele>1913</ele>
<time>2014-10-04T12:48:37Z</time>
</trkpt>
<trkpt lat="42.95132" lon="-0.8479286">
<ele>1915</ele>
<time>2014-10-04T12:48:39Z</time>
</trkpt>
<trkpt lat="42.951355" lon="-0.8481232">
<ele>1919</ele>
<time>2014-10-04T12:48:41Z</time>
</trkpt>
<trkpt lat="42.951366" lon="-0.8482594">
<ele>1923</ele>
<time>2014-10-04T12:48:43Z</time>
</trkpt>
<trkpt lat="42.951237" lon="-0.8484011">
<ele>1920</ele>
<time>2014-10-04T12:48:45Z</time>
</trkpt>
<trkpt lat="42.951054" lon="-0.848288">
<ele>1919</ele>
<time>2014-10-04T12:48:47Z</time>
</trkpt>
<trkpt lat="42.95098" lon="-0.8480072">
<ele>1922</ele>
<time>2014-10-04T12:48:49Z</time>
</trkpt>
<trkpt lat="42.95093" lon="-0.84774595">
<ele>1922</ele>
<time>2014-10-04T12:48:51Z</time>
</trkpt>
<trkpt lat="42.951046" lon="-0.8475815">
<ele>1923</ele>
<time>2014-10-04T12:48:53Z</time>
</trkpt>
<trkpt lat="42.95112" lon="-0.8473751">
<ele>1925</ele>
<time>2014-10-04T12:48:55Z</time>
</trkpt>
<trkpt lat="42.951187" lon="-0.84712654">
<ele>1926</ele>
<time>2014-10-04T12:48:57Z</time>
</trkpt>
<trkpt lat="42.95127" lon="-0.846922">
<ele>1929</ele>
<time>2014-10-04T12:48:59Z</time>
</trkpt>
<trkpt lat="42.95137" lon="-0.84668523">
<ele>1931</ele>
<time>2014-10-04T12:49:01Z</time>
</trkpt>
<trkpt lat="42.951416" lon="-0.8464591">
<ele>1936</ele>
<time>2014-10-04T12:49:03Z</time>
</trkpt>
<trkpt lat="42.95144" lon="-0.8462058">
<ele>1935</ele>
<time>2014-10-04T12:49:05Z</time>
</trkpt>
<trkpt lat="42.95144" lon="-0.8459282">
<ele>1940</ele>
<time>2014-10-04T12:49:07Z</time>
</trkpt>
<trkpt lat="42.95143" lon="-0.8456911">
<ele>1943</ele>
<time>2014-10-04T12:49:09Z</time>
</trkpt>
<trkpt lat="42.95142" lon="-0.84546953">
<ele>1947</ele>
<time>2014-10-04T12:49:11Z</time>
</trkpt>
<trkpt lat="42.951416" lon="-0.84520966">
<ele>1950</ele>
<time>2014-10-04T12:49:13Z</time>
</trkpt>
<trkpt lat="42.951412" lon="-0.84496874">
<ele>1952</ele>
<time>2014-10-04T12:49:15Z</time>
</trkpt>
<trkpt lat="42.951397" lon="-0.8447854">
<ele>1954</ele>
<time>2014-10-04T12:49:17Z</time>
</trkpt>
<trkpt lat="42.951412" lon="-0.84454054">
<ele>1955</ele>
<time>2014-10-04T12:49:19Z</time>
</trkpt>
<trkpt lat="42.951435" lon="-0.84428895">
<ele>1955</ele>
<time>2014-10-04T12:49:21Z</time>
</trkpt>
<trkpt lat="42.951492" lon="-0.8440835">
<ele>1956</ele>
<time>2014-10-04T12:49:23Z</time>
</trkpt>
<trkpt lat="42.951576" lon="-0.84385604">
<ele>1956</ele>
<time>2014-10-04T12:49:25Z</time>
</trkpt>
<trkpt lat="42.951645" lon="-0.84360546">
<ele>1959</ele>
<time>2014-10-04T12:49:27Z</time>
</trkpt>
<trkpt lat="42.951694" lon="-0.8433736">
<ele>1963</ele>
<time>2014-10-04T12:49:29Z</time>
</trkpt>
<trkpt lat="42.951744" lon="-0.8431225">
<ele>1964</ele>
<time>2014-10-04T12:49:31Z</time>
</trkpt>
<trkpt lat="42.95178" lon="-0.8428172">
<ele>1964</ele>
<time>2014-10-04T12:49:33Z</time>
</trkpt>
<trkpt lat="42.951847" lon="-0.84263015">
<ele>1967</ele>
<time>2014-10-04T12:49:35Z</time>
</trkpt>
<trkpt lat="42.95193" lon="-0.8423996">
<ele>1965</ele>
<time>2014-10-04T12:49:37Z</time>
</trkpt>
<trkpt lat="42.951912" lon="-0.8421242">
<ele>1963</ele>
<time>2014-10-04T12:49:39Z</time>
</trkpt>
<trkpt lat="42.95193" lon="-0.8418839">
<ele>1967</ele>
<time>2014-10-04T12:49:41Z</time>
</trkpt>
<trkpt lat="42.951923" lon="-0.8417057">
<ele>1967</ele>
<time>2014-10-04T12:49:43Z</time>
</trkpt>
<trkpt lat="42.951874" lon="-0.84148383">
<ele>1967</ele>
<time>2014-10-04T12:49:45Z</time>
</trkpt>
<trkpt lat="42.95182" lon="-0.84126514">
<ele>1967</ele>
<time>2014-10-04T12:49:47Z</time>
</trkpt>
<trkpt lat="42.951736" lon="-0.841043">
<ele>1967</ele>
<time>2014-10-04T12:49:49Z</time>
</trkpt>
<trkpt lat="42.951603" lon="-0.8409288">
<ele>1967</ele>
<time>2014-10-04T12:49:51Z</time>
</trkpt>
<trkpt lat="42.951508" lon="-0.84113556">
<ele>1965</ele>
<time>2014-10-04T12:49:53Z</time>
</trkpt>
<trkpt lat="42.951435" lon="-0.8413219">
<ele>1966</ele>
<time>2014-10-04T12:49:55Z</time>
</trkpt>
<trkpt lat="42.95144" lon="-0.8415272">
<ele>1966</ele>
<time>2014-10-04T12:49:57Z</time>
</trkpt>
<trkpt lat="42.95142" lon="-0.8417623">
<ele>1963</ele>
<time>2014-10-04T12:49:59Z</time>
</trkpt>
<trkpt lat="42.951427" lon="-0.84200245">
<ele>1964</ele>
<time>2014-10-04T12:50:01Z</time>
</trkpt>
<trkpt lat="42.95145" lon="-0.8422215">
<ele>1964</ele>
<time>2014-10-04T12:50:03Z</time>
</trkpt>
<trkpt lat="42.951485" lon="-0.84241736">
<ele>1963</ele>
<time>2014-10-04T12:50:05Z</time>
</trkpt>
<trkpt lat="42.951466" lon="-0.84267443">
<ele>1962</ele>
<time>2014-10-04T12:50:07Z</time>
</trkpt>
<trkpt lat="42.95138" lon="-0.8429492">
<ele>1959</ele>
<time>2014-10-04T12:50:09Z</time>
</trkpt>
<trkpt lat="42.951336" lon="-0.8432003">
<ele>1958</ele>
<time>2014-10-04T12:50:11Z</time>
</trkpt>
<trkpt lat="42.951324" lon="-0.8434265">
<ele>1957</ele>
<time>2014-10-04T12:50:13Z</time>
</trkpt>
<trkpt lat="42.95131" lon="-0.8436609">
<ele>1956</ele>
<time>2014-10-04T12:50:15Z</time>
</trkpt>
<trkpt lat="42.95136" lon="-0.84393924">
<ele>1958</ele>
<time>2014-10-04T12:50:17Z</time>
</trkpt>
<trkpt lat="42.951385" lon="-0.8440981">
<ele>1963</ele>
<time>2014-10-04T12:50:19Z</time>
</trkpt>
<trkpt lat="42.95138" lon="-0.8442718">
<ele>1962</ele>
<time>2014-10-04T12:50:21Z</time>
</trkpt>
<trkpt lat="42.9514" lon="-0.8444863">
<ele>1962</ele>
<time>2014-10-04T12:50:23Z</time>
</trkpt>
<trkpt lat="42.951427" lon="-0.84471893">
<ele>1963</ele>
<time>2014-10-04T12:50:25Z</time>
</trkpt>
<trkpt lat="42.951527" lon="-0.8447976">
<ele>1965</ele>
<time>2014-10-04T12:50:27Z</time>
</trkpt>
<trkpt lat="42.951572" lon="-0.8450013">
<ele>1963</ele>
<time>2014-10-04T12:50:29Z</time>
</trkpt>
<trkpt lat="42.95164" lon="-0.84519446">
<ele>1963</ele>
<time>2014-10-04T12:50:31Z</time>
</trkpt>
<trkpt lat="42.951622" lon="-0.8453667">
<ele>1965</ele>
<time>2014-10-04T12:50:33Z</time>
</trkpt>
<trkpt lat="42.951572" lon="-0.8455483">
<ele>1966</ele>
<time>2014-10-04T12:50:35Z</time>
</trkpt>
<trkpt lat="42.951553" lon="-0.8457449">
<ele>1966</ele>
<time>2014-10-04T12:50:37Z</time>
</trkpt>
<trkpt lat="42.951534" lon="-0.84595096">
<ele>1966</ele>
<time>2014-10-04T12:50:39Z</time>
</trkpt>
<trkpt lat="42.95152" lon="-0.8461255">
<ele>1966</ele>
<time>2014-10-04T12:50:41Z</time>
</trkpt>
<trkpt lat="42.951626" lon="-0.8463472">
<ele>1972</ele>
<time>2014-10-04T12:50:43Z</time>
</trkpt>
<trkpt lat="42.951645" lon="-0.8465371">
<ele>1974</ele>
<time>2014-10-04T12:50:45Z</time>
</trkpt>
<trkpt lat="42.951614" lon="-0.8467757">
<ele>1976</ele>
<time>2014-10-04T12:50:47Z</time>
</trkpt>
<trkpt lat="42.951668" lon="-0.847008">
<ele>1981</ele>
<time>2014-10-04T12:50:49Z</time>
</trkpt>
<trkpt lat="42.951687" lon="-0.8472129">
<ele>1984</ele>
<time>2014-10-04T12:50:51Z</time>
</trkpt>
<trkpt lat="42.951694" lon="-0.84737">
<ele>1988</ele>
<time>2014-10-04T12:50:53Z</time>
</trkpt>
<trkpt lat="42.951527" lon="-0.84740204">
<ele>1987</ele>
<time>2014-10-04T12:50:55Z</time>
</trkpt>
<trkpt lat="42.951397" lon="-0.84719676">
<ele>1986</ele>
<time>2014-10-04T12:50:57Z</time>
</trkpt>
<trkpt lat="42.95137" lon="-0.84691525">
<ele>1985</ele>
<time>2014-10-04T12:50:59Z</time>
</trkpt>
<trkpt lat="42.95136" lon="-0.84663904">
<ele>1986</ele>
<time>2014-10-04T12:51:01Z</time>
</trkpt>
<trkpt lat="42.9514" lon="-0.8464453">
<ele>1988</ele>
<time>2014-10-04T12:51:03Z</time>
</trkpt>
<trkpt lat="42.951427" lon="-0.8461915">
<ele>1988</ele>
<time>2014-10-04T12:51:05Z</time>
</trkpt>
<trkpt lat="42.95151" lon="-0.84598386">
<ele>1989</ele>
<time>2014-10-04T12:51:07Z</time>
</trkpt>
<trkpt lat="42.951527" lon="-0.8457222">
<ele>1993</ele>
<time>2014-10-04T12:51:09Z</time>
</trkpt>
<trkpt lat="42.951553" lon="-0.8454828">
<ele>1992</ele>
<time>2014-10-04T12:51:11Z</time>
</trkpt>
<trkpt lat="42.95159" lon="-0.84520596">
<ele>1992</ele>
<time>2014-10-04T12:51:13Z</time>
</trkpt>
<trkpt lat="42.95163" lon="-0.8449245">
<ele>1995</ele>
<time>2014-10-04T12:51:15Z</time>
</trkpt>
<trkpt lat="42.95164" lon="-0.84463495">
<ele>1999</ele>
<time>2014-10-04T12:51:17Z</time>
</trkpt>
<trkpt lat="42.951653" lon="-0.84436953">
<ele>2001</ele>
<time>2014-10-04T12:51:19Z</time>
</trkpt>
<trkpt lat="42.951668" lon="-0.84408814">
<ele>2002</ele>
<time>2014-10-04T12:51:21Z</time>
</trkpt>
<trkpt lat="42.951694" lon="-0.84379166">
<ele>2004</ele>
<time>2014-10-04T12:51:23Z</time>
</trkpt>
<trkpt lat="42.951748" lon="-0.84352374">
<ele>2005</ele>
<time>2014-10-04T12:51:25Z</time>
</trkpt>
<trkpt lat="42.9518" lon="-0.8432775">
<ele>2005</ele>
<time>2014-10-04T12:51:27Z</time>
</trkpt>
<trkpt lat="42.95188" lon="-0.84303236">
<ele>2005</ele>
<time>2014-10-04T12:51:29Z</time>
</trkpt>
<trkpt lat="42.951927" lon="-0.8428066">
<ele>2004</ele>
<time>2014-10-04T12:51:31Z</time>
</trkpt>
<trkpt lat="42.951935" lon="-0.84257793">
<ele>2005</ele>
<time>2014-10-04T12:51:33Z</time>
</trkpt>
<trkpt lat="42.95194" lon="-0.8422998">
<ele>2004</ele>
<time>2014-10-04T12:51:35Z</time>
</trkpt>
<trkpt lat="42.951935" lon="-0.8420623">
<ele>2008</ele>
<time>2014-10-04T12:51:37Z</time>
</trkpt>
<trkpt lat="42.95196" lon="-0.8418822">
<ele>2009</ele>
<time>2014-10-04T12:51:39Z</time>
</trkpt>
<trkpt lat="42.952057" lon="-0.841689">
<ele>2009</ele>
<time>2014-10-04T12:51:41Z</time>
</trkpt>
<trkpt lat="42.952095" lon="-0.8414519">
<ele>2010</ele>
<time>2014-10-04T12:51:43Z</time>
</trkpt>
<trkpt lat="42.952118" lon="-0.84122825">
<ele>2011</ele>
<time>2014-10-04T12:51:45Z</time>
</trkpt>
<trkpt lat="42.95208" lon="-0.84097767">
<ele>2010</ele>
<time>2014-10-04T12:51:47Z</time>
</trkpt>
<trkpt lat="42.952065" lon="-0.8407129">
<ele>2010</ele>
<time>2014-10-04T12:51:49Z</time>
</trkpt>
<trkpt lat="42.952114" lon="-0.8404415">
<ele>2011</ele>
<time>2014-10-04T12:51:51Z</time>
</trkpt>
<trkpt lat="42.952137" lon="-0.8402403">
<ele>2010</ele>
<time>2014-10-04T12:51:53Z</time>
</trkpt>
<trkpt lat="42.95219" lon="-0.84000146">
<ele>2006</ele>
<time>2014-10-04T12:51:55Z</time>
</trkpt>
<trkpt lat="42.952137" lon="-0.83975023">
<ele>2005</ele>
<time>2014-10-04T12:51:57Z</time>
</trkpt>
<trkpt lat="42.952045" lon="-0.83948666">
<ele>2004</ele>
<time>2014-10-04T12:51:59Z</time>
</trkpt>
<trkpt lat="42.951862" lon="-0.8392946">
<ele>2006</ele>
<time>2014-10-04T12:52:01Z</time>
</trkpt>
<trkpt lat="42.951675" lon="-0.83941823">
<ele>2007</ele>
<time>2014-10-04T12:52:03Z</time>
</trkpt>
<trkpt lat="42.9515" lon="-0.83953553">
<ele>2009</ele>
<time>2014-10-04T12:52:05Z</time>
</trkpt>
<trkpt lat="42.95149" lon="-0.83970684">
<ele>2006</ele>
<time>2014-10-04T12:52:07Z</time>
</trkpt>
<trkpt lat="42.951443" lon="-0.83982736">
<ele>2005</ele>
<time>2014-10-04T12:52:09Z</time>
</trkpt>
<trkpt lat="42.95152" lon="-0.8400868">
<ele>2006</ele>
<time>2014-10-04T12:52:11Z</time>
</trkpt>
<trkpt lat="42.951538" lon="-0.8403636">
<ele>2001</ele>
<time>2014-10-04T12:52:13Z</time>
</trkpt>
<trkpt lat="42.95153" lon="-0.84058946">
<ele>1998</ele>
<time>2014-10-04T12:52:15Z</time>
</trkpt>
<trkpt lat="42.951477" lon="-0.84078974">
<ele>1995</ele>
<time>2014-10-04T12:52:17Z</time>
</trkpt>
<trkpt lat="42.951393" lon="-0.8409737">
<ele>1991</ele>
<time>2014-10-04T12:52:19Z</time>
</trkpt>
<trkpt lat="42.951347" lon="-0.8412037">
<ele>1991</ele>
<time>2014-10-04T12:52:21Z</time>
</trkpt>
<trkpt lat="42.95136" lon="-0.84139365">
<ele>1986</ele>
<time>2014-10-04T12:52:23Z</time>
</trkpt>
<trkpt lat="42.95134" lon="-0.8415912">
<ele>1983</ele>
<time>2014-10-04T12:52:25Z</time>
</trkpt>
<trkpt lat="42.95131" lon="-0.8417759">
<ele>1982</ele>
<time>2014-10-04T12:52:27Z</time>
</trkpt>
<trkpt lat="42.951244" lon="-0.8419917">
<ele>1975</ele>
<time>2014-10-04T12:52:29Z</time>
</trkpt>
<trkpt lat="42.951164" lon="-0.8422497">
<ele>1972</ele>
<time>2014-10-04T12:52:31Z</time>
</trkpt>
<trkpt lat="42.951153" lon="-0.84243464">
<ele>1973</ele>
<time>2014-10-04T12:52:33Z</time>
</trkpt>
<trkpt lat="42.951138" lon="-0.8426466">
<ele>1973</ele>
<time>2014-10-04T12:52:35Z</time>
</trkpt>
<trkpt lat="42.95116" lon="-0.8428887">
<ele>1971</ele>
<time>2014-10-04T12:52:37Z</time>
</trkpt>
<trkpt lat="42.95119" lon="-0.8431139">
<ele>1971</ele>
<time>2014-10-04T12:52:39Z</time>
</trkpt>
<trkpt lat="42.951202" lon="-0.84334755">
<ele>1973</ele>
<time>2014-10-04T12:52:41Z</time>
</trkpt>
<trkpt lat="42.95121" lon="-0.8435476">
<ele>1975</ele>
<time>2014-10-04T12:52:43Z</time>
</trkpt>
<trkpt lat="42.95116" lon="-0.843745">
<ele>1975</ele>
<time>2014-10-04T12:52:45Z</time>
</trkpt>
<trkpt lat="42.951115" lon="-0.8439548">
<ele>1975</ele>
<time>2014-10-04T12:52:47Z</time>
</trkpt>
<trkpt lat="42.951096" lon="-0.84415066">
<ele>1976</ele>
<time>2014-10-04T12:52:49Z</time>
</trkpt>
<trkpt lat="42.95112" lon="-0.8443824">
<ele>1975</ele>
<time>2014-10-04T12:52:51Z</time>
</trkpt>
<trkpt lat="42.95113" lon="-0.8446461">
<ele>1979</ele>
<time>2014-10-04T12:52:53Z</time>
</trkpt>
<trkpt lat="42.951107" lon="-0.84488285">
<ele>1986</ele>
<time>2014-10-04T12:52:55Z</time>
</trkpt>
<trkpt lat="42.95107" lon="-0.84509736">
<ele>1989</ele>
<time>2014-10-04T12:52:57Z</time>
</trkpt>
<trkpt lat="42.951035" lon="-0.84531456">
<ele>1991</ele>
<time>2014-10-04T12:52:59Z</time>
</trkpt>
<trkpt lat="42.951042" lon="-0.84547365">
<ele>1996</ele>
<time>2014-10-04T12:53:01Z</time>
</trkpt>
<trkpt lat="42.95105" lon="-0.8456396">
<ele>1997</ele>
<time>2014-10-04T12:53:03Z</time>
</trkpt>
<trkpt lat="42.951073" lon="-0.84585106">
<ele>1997</ele>
<time>2014-10-04T12:53:05Z</time>
</trkpt>
<trkpt lat="42.951096" lon="-0.84603786">
<ele>1998</ele>
<time>2014-10-04T12:53:07Z</time>
</trkpt>
<trkpt lat="42.951126" lon="-0.8462293">
<ele>1996</ele>
<time>2014-10-04T12:53:09Z</time>
</trkpt>
<trkpt lat="42.951138" lon="-0.8464359">
<ele>1997</ele>
<time>2014-10-04T12:53:11Z</time>
</trkpt>
<trkpt lat="42.95114" lon="-0.8466359">
<ele>2000</ele>
<time>2014-10-04T12:53:13Z</time>
</trkpt>
<trkpt lat="42.951157" lon="-0.84683174">
<ele>2001</ele>
<time>2014-10-04T12:53:15Z</time>
</trkpt>
<trkpt lat="42.951195" lon="-0.84708226">
<ele>2003</ele>
<time>2014-10-04T12:53:17Z</time>
</trkpt>
<trkpt lat="42.95122" lon="-0.84721345">
<ele>2008</ele>
<time>2014-10-04T12:53:19Z</time>
</trkpt>
<trkpt lat="42.9512" lon="-0.8473871">
<ele>2010</ele>
<time>2014-10-04T12:53:21Z</time>
</trkpt>
<trkpt lat="42.951164" lon="-0.8475857">
<ele>2013</ele>
<time>2014-10-04T12:53:23Z</time>
</trkpt>
<trkpt lat="42.95113" lon="-0.84779495">
<ele>2013</ele>
<time>2014-10-04T12:53:25Z</time>
</trkpt>
<trkpt lat="42.95115" lon="-0.8479754">
<ele>2014</ele>
<time>2014-10-04T12:53:27Z</time>
</trkpt>
<trkpt lat="42.951157" lon="-0.84819937">
<ele>2015</ele>
<time>2014-10-04T12:53:29Z</time>
</trkpt>
<trkpt lat="42.951153" lon="-0.8484253">
<ele>2017</ele>
<time>2014-10-04T12:53:31Z</time>
</trkpt>
<trkpt lat="42.951126" lon="-0.8485851">
<ele>2021</ele>
<time>2014-10-04T12:53:33Z</time>
</trkpt>
<trkpt lat="42.951057" lon="-0.8487286">
<ele>2020</ele>
<time>2014-10-04T12:53:35Z</time>
</trkpt>
<trkpt lat="42.95098" lon="-0.84887">
<ele>2022</ele>
<time>2014-10-04T12:53:37Z</time>
</trkpt>
<trkpt lat="42.95089" lon="-0.84899366">
<ele>2023</ele>
<time>2014-10-04T12:53:39Z</time>
</trkpt>
<trkpt lat="42.950882" lon="-0.8491774">
<ele>2017</ele>
<time>2014-10-04T12:53:41Z</time>
</trkpt>
<trkpt lat="42.950905" lon="-0.84941405">
<ele>2018</ele>
<time>2014-10-04T12:53:43Z</time>
</trkpt>
<trkpt lat="42.950912" lon="-0.849594">
<ele>2019</ele>
<time>2014-10-04T12:53:45Z</time>
</trkpt>
<trkpt lat="42.95084" lon="-0.8497648">
<ele>2012</ele>
<time>2014-10-04T12:53:47Z</time>
</trkpt>
<trkpt lat="42.95064" lon="-0.84982044">
<ele>2007</ele>
<time>2014-10-04T12:53:49Z</time>
</trkpt>
<trkpt lat="42.95045" lon="-0.84961444">
<ele>2005</ele>
<time>2014-10-04T12:53:51Z</time>
</trkpt>
<trkpt lat="42.950375" lon="-0.8493963">
<ele>2008</ele>
<time>2014-10-04T12:53:53Z</time>
</trkpt>
<trkpt lat="42.950317" lon="-0.8492206">
<ele>2008</ele>
<time>2014-10-04T12:53:55Z</time>
</trkpt>
<trkpt lat="42.95028" lon="-0.8490145">
<ele>2008</ele>
<time>2014-10-04T12:53:57Z</time>
</trkpt>
<trkpt lat="42.950283" lon="-0.84881467">
<ele>2010</ele>
<time>2014-10-04T12:53:59Z</time>
</trkpt>
<trkpt lat="42.950268" lon="-0.84854776">
<ele>2009</ele>
<time>2014-10-04T12:54:01Z</time>
</trkpt>
<trkpt lat="42.95023" lon="-0.84827006">
<ele>2006</ele>
<time>2014-10-04T12:54:03Z</time>
</trkpt>
<trkpt lat="42.950184" lon="-0.84798586">
<ele>2007</ele>
<time>2014-10-04T12:54:05Z</time>
</trkpt>
<trkpt lat="42.95012" lon="-0.8477742">
<ele>2009</ele>
<time>2014-10-04T12:54:07Z</time>
</trkpt>
<trkpt lat="42.950035" lon="-0.8475572">
<ele>2007</ele>
<time>2014-10-04T12:54:09Z</time>
</trkpt>
<trkpt lat="42.94995" lon="-0.847354">
<ele>2006</ele>
<time>2014-10-04T12:54:11Z</time>
</trkpt>
<trkpt lat="42.94991" lon="-0.84708947">
<ele>2005</ele>
<time>2014-10-04T12:54:13Z</time>
</trkpt>
<trkpt lat="42.949856" lon="-0.8468033">
<ele>2005</ele>
<time>2014-10-04T12:54:15Z</time>
</trkpt>
<trkpt lat="42.949806" lon="-0.84659106">
<ele>2004</ele>
<time>2014-10-04T12:54:17Z</time>
</trkpt>
<trkpt lat="42.949764" lon="-0.84637296">
<ele>2002</ele>
<time>2014-10-04T12:54:19Z</time>
</trkpt>
<trkpt lat="42.94973" lon="-0.84607494">
<ele>2003</ele>
<time>2014-10-04T12:54:21Z</time>
</trkpt>
<trkpt lat="42.949726" lon="-0.84578377">
<ele>2004</ele>
<time>2014-10-04T12:54:23Z</time>
</trkpt>
<trkpt lat="42.94976" lon="-0.8454832">
<ele>2005</ele>
<time>2014-10-04T12:54:25Z</time>
</trkpt>
<trkpt lat="42.949783" lon="-0.84519005">
<ele>2005</ele>
<time>2014-10-04T12:54:27Z</time>
</trkpt>
<trkpt lat="42.949768" lon="-0.8448961">
<ele>2006</ele>
<time>2014-10-04T12:54:29Z</time>
</trkpt>
<trkpt lat="42.94975" lon="-0.84460837">
<ele>2006</ele>
<time>2014-10-04T12:54:31Z</time>
</trkpt>
<trkpt lat="42.94969" lon="-0.84436053">
<ele>2006</ele>
<time>2014-10-04T12:54:33Z</time>
</trkpt>
<trkpt lat="42.94966" lon="-0.84408915">
<ele>2005</ele>
<time>2014-10-04T12:54:35Z</time>
</trkpt>
<trkpt lat="42.949623" lon="-0.84381604">
<ele>2004</ele>
<time>2014-10-04T12:54:37Z</time>
</trkpt>
<trkpt lat="42.94957" lon="-0.84353846">
<ele>2003</ele>
<time>2014-10-04T12:54:39Z</time>
</trkpt>
<trkpt lat="42.94952" lon="-0.8432973">
<ele>2002</ele>
<time>2014-10-04T12:54:41Z</time>
</trkpt>
<trkpt lat="42.94951" lon="-0.8430577">
<ele>2001</ele>
<time>2014-10-04T12:54:43Z</time>
</trkpt>
<trkpt lat="42.949497" lon="-0.8428216">
<ele>2000</ele>
<time>2014-10-04T12:54:45Z</time>
</trkpt>
<trkpt lat="42.949554" lon="-0.84261525">
<ele>1998</ele>
<time>2014-10-04T12:54:47Z</time>
</trkpt>
<trkpt lat="42.949615" lon="-0.8424198">
<ele>1998</ele>
<time>2014-10-04T12:54:49Z</time>
</trkpt>
<trkpt lat="42.949696" lon="-0.8421839">
<ele>1999</ele>
<time>2014-10-04T12:54:51Z</time>
</trkpt>
<trkpt lat="42.94979" lon="-0.84196895">
<ele>2001</ele>
<time>2014-10-04T12:54:53Z</time>
</trkpt>
<trkpt lat="42.94978" lon="-0.8417373">
<ele>2005</ele>
<time>2014-10-04T12:54:55Z</time>
</trkpt>
<trkpt lat="42.94976" lon="-0.84151274">
<ele>2008</ele>
<time>2014-10-04T12:54:57Z</time>
</trkpt>
<trkpt lat="42.949745" lon="-0.84129393">
<ele>2010</ele>
<time>2014-10-04T12:54:59Z</time>
</trkpt>
<trkpt lat="42.949764" lon="-0.841073">
<ele>2011</ele>
<time>2014-10-04T12:55:01Z</time>
</trkpt>
<trkpt lat="42.949806" lon="-0.8408612">
<ele>2010</ele>
<time>2014-10-04T12:55:03Z</time>
</trkpt>
<trkpt lat="42.949936" lon="-0.8406137">
<ele>2012</ele>
<time>2014-10-04T12:55:05Z</time>
</trkpt>
<trkpt lat="42.950016" lon="-0.8404367">
<ele>2015</ele>
<time>2014-10-04T12:55:07Z</time>
</trkpt>
<trkpt lat="42.950073" lon="-0.8402449">
<ele>2015</ele>
<time>2014-10-04T12:55:09Z</time>
</trkpt>
<trkpt lat="42.95014" lon="-0.8399864">
<ele>2015</ele>
<time>2014-10-04T12:55:11Z</time>
</trkpt>
<trkpt lat="42.95012" lon="-0.83978003">
<ele>2015</ele>
<time>2014-10-04T12:55:13Z</time>
</trkpt>
<trkpt lat="42.950157" lon="-0.83952653">
<ele>2015</ele>
<time>2014-10-04T12:55:15Z</time>
</trkpt>
<trkpt lat="42.95024" lon="-0.83923686">
<ele>2014</ele>
<time>2014-10-04T12:55:17Z</time>
</trkpt>
<trkpt lat="42.950317" lon="-0.8389882">
<ele>2014</ele>
<time>2014-10-04T12:55:19Z</time>
</trkpt>
<trkpt lat="42.950386" lon="-0.83876264">
<ele>2014</ele>
<time>2014-10-04T12:55:21Z</time>
</trkpt>
<trkpt lat="42.95044" lon="-0.83854425">
<ele>2013</ele>
<time>2014-10-04T12:55:23Z</time>
</trkpt>
<trkpt lat="42.95049" lon="-0.8383081">
<ele>2010</ele>
<time>2014-10-04T12:55:25Z</time>
</trkpt>
<trkpt lat="42.950554" lon="-0.8380288">
<ele>2011</ele>
<time>2014-10-04T12:55:27Z</time>
</trkpt>
<trkpt lat="42.950607" lon="-0.83780557">
<ele>2008</ele>
<time>2014-10-04T12:55:29Z</time>
</trkpt>
<trkpt lat="42.95068" lon="-0.8375533">
<ele>2008</ele>
<time>2014-10-04T12:55:31Z</time>
</trkpt>
<trkpt lat="42.95077" lon="-0.83730483">
<ele>2008</ele>
<time>2014-10-04T12:55:33Z</time>
</trkpt>
<trkpt lat="42.9508" lon="-0.837027">
<ele>2007</ele>
<time>2014-10-04T12:55:35Z</time>
</trkpt>
<trkpt lat="42.950935" lon="-0.836835">
<ele>2005</ele>
<time>2014-10-04T12:55:37Z</time>
</trkpt>
<trkpt lat="42.951122" lon="-0.83679414">
<ele>2001</ele>
<time>2014-10-04T12:55:38Z</time>
</trkpt>
<trkpt lat="42.951183" lon="-0.83696383">
<ele>1999</ele>
<time>2014-10-04T12:55:41Z</time>
</trkpt>
<trkpt lat="42.951187" lon="-0.83712065">
<ele>2000</ele>
<time>2014-10-04T12:55:43Z</time>
</trkpt>
<trkpt lat="42.951168" lon="-0.83727247">
<ele>2001</ele>
<time>2014-10-04T12:55:45Z</time>
</trkpt>
<trkpt lat="42.951122" lon="-0.8374456">
<ele>2000</ele>
<time>2014-10-04T12:55:47Z</time>
</trkpt>
<trkpt lat="42.951046" lon="-0.8376645">
<ele>2000</ele>
<time>2014-10-04T12:55:49Z</time>
</trkpt>
<trkpt lat="42.950966" lon="-0.837893">
<ele>2001</ele>
<time>2014-10-04T12:55:51Z</time>
</trkpt>
<trkpt lat="42.950928" lon="-0.8380056">
<ele>1998</ele>
<time>2014-10-04T12:55:53Z</time>
</trkpt>
<trkpt lat="42.95087" lon="-0.83814067">
<ele>1996</ele>
<time>2014-10-04T12:55:55Z</time>
</trkpt>
<trkpt lat="42.950836" lon="-0.83835375">
<ele>1997</ele>
<time>2014-10-04T12:55:57Z</time>
</trkpt>
<trkpt lat="42.9508" lon="-0.838516">
<ele>1998</ele>
<time>2014-10-04T12:55:59Z</time>
</trkpt>
<trkpt lat="42.95074" lon="-0.838712">
<ele>1994</ele>
<time>2014-10-04T12:56:01Z</time>
</trkpt>
<trkpt lat="42.9507" lon="-0.83890235">
<ele>1995</ele>
<time>2014-10-04T12:56:03Z</time>
</trkpt>
<trkpt lat="42.950657" lon="-0.839052">
<ele>1997</ele>
<time>2014-10-04T12:56:05Z</time>
</trkpt>
<trkpt lat="42.95058" lon="-0.8392002">
<ele>1995</ele>
<time>2014-10-04T12:56:07Z</time>
</trkpt>
<trkpt lat="42.95049" lon="-0.83937955">
<ele>1995</ele>
<time>2014-10-04T12:56:09Z</time>
</trkpt>
<trkpt lat="42.950382" lon="-0.8395189">
<ele>1996</ele>
<time>2014-10-04T12:56:11Z</time>
</trkpt>
<trkpt lat="42.950264" lon="-0.83967793">
<ele>1995</ele>
<time>2014-10-04T12:56:13Z</time>
</trkpt>
<trkpt lat="42.95015" lon="-0.8398669">
<ele>1995</ele>
<time>2014-10-04T12:56:15Z</time>
</trkpt>
<trkpt lat="42.95016" lon="-0.84009784">
<ele>1997</ele>
<time>2014-10-04T12:56:17Z</time>
</trkpt>
<trkpt lat="42.950184" lon="-0.8403469">
<ele>1999</ele>
<time>2014-10-04T12:56:19Z</time>
</trkpt>
<trkpt lat="42.95023" lon="-0.84058875">
<ele>2001</ele>
<time>2014-10-04T12:56:21Z</time>
</trkpt>
<trkpt lat="42.950237" lon="-0.84079474">
<ele>2002</ele>
<time>2014-10-04T12:56:23Z</time>
</trkpt>
<trkpt lat="42.950233" lon="-0.8410226">
<ele>2003</ele>
<time>2014-10-04T12:56:25Z</time>
</trkpt>
<trkpt lat="42.950222" lon="-0.8412292">
<ele>2005</ele>
<time>2014-10-04T12:56:27Z</time>
</trkpt>
<trkpt lat="42.9502" lon="-0.841461">
<ele>2006</ele>
<time>2014-10-04T12:56:29Z</time>
</trkpt>
<trkpt lat="42.950176" lon="-0.84167194">
<ele>2010</ele>
<time>2014-10-04T12:56:31Z</time>
</trkpt>
<trkpt lat="42.95016" lon="-0.84184307">
<ele>2009</ele>
<time>2014-10-04T12:56:33Z</time>
</trkpt>
<trkpt lat="42.95012" lon="-0.84204227">
<ele>2007</ele>
<time>2014-10-04T12:56:35Z</time>
</trkpt>
<trkpt lat="42.950077" lon="-0.8422416">
<ele>2008</ele>
<time>2014-10-04T12:56:37Z</time>
</trkpt>
<trkpt lat="42.95005" lon="-0.8424115">
<ele>2006</ele>
<time>2014-10-04T12:56:39Z</time>
</trkpt>
<trkpt lat="42.950024" lon="-0.84261435">
<ele>2004</ele>
<time>2014-10-04T12:56:41Z</time>
</trkpt>
<trkpt lat="42.95001" lon="-0.84281135">
<ele>2004</ele>
<time>2014-10-04T12:56:43Z</time>
</trkpt>
<trkpt lat="42.950012" lon="-0.8429648">
<ele>2005</ele>
<time>2014-10-04T12:56:45Z</time>
</trkpt>
<trkpt lat="42.949978" lon="-0.84317344">
<ele>2002</ele>
<time>2014-10-04T12:56:47Z</time>
</trkpt>
<trkpt lat="42.94992" lon="-0.84341806">
<ele>2003</ele>
<time>2014-10-04T12:56:49Z</time>
</trkpt>
<trkpt lat="42.949886" lon="-0.8436913">
<ele>2004</ele>
<time>2014-10-04T12:56:51Z</time>
</trkpt>
<trkpt lat="42.949898" lon="-0.84379137">
<ele>2006</ele>
<time>2014-10-04T12:56:53Z</time>
</trkpt>
<trkpt lat="42.94984" lon="-0.84399235">
<ele>2002</ele>
<time>2014-10-04T12:56:55Z</time>
</trkpt>
<trkpt lat="42.94986" lon="-0.84420466">
<ele>2005</ele>
<time>2014-10-04T12:56:57Z</time>
</trkpt>
<trkpt lat="42.949837" lon="-0.84441096">
<ele>2006</ele>
<time>2014-10-04T12:56:59Z</time>
</trkpt>
<trkpt lat="42.94978" lon="-0.84462106">
<ele>2007</ele>
<time>2014-10-04T12:57:01Z</time>
</trkpt>
<trkpt lat="42.94973" lon="-0.8448492">
<ele>2008</ele>
<time>2014-10-04T12:57:03Z</time>
</trkpt>
<trkpt lat="42.9497" lon="-0.84506124">
<ele>2008</ele>
<time>2014-10-04T12:57:05Z</time>
</trkpt>
<trkpt lat="42.94966" lon="-0.84530365">
<ele>2008</ele>
<time>2014-10-04T12:57:07Z</time>
</trkpt>
<trkpt lat="42.949696" lon="-0.8455861">
<ele>2008</ele>
<time>2014-10-04T12:57:09Z</time>
</trkpt>
<trkpt lat="42.94975" lon="-0.8456677">
<ele>2011</ele>
<time>2014-10-04T12:57:11Z</time>
</trkpt>
<trkpt lat="42.949753" lon="-0.845846">
<ele>2010</ele>
<time>2014-10-04T12:57:13Z</time>
</trkpt>
<trkpt lat="42.949734" lon="-0.8460758">
<ele>2012</ele>
<time>2014-10-04T12:57:15Z</time>
</trkpt>
<trkpt lat="42.949696" lon="-0.84623104">
<ele>2012</ele>
<time>2014-10-04T12:57:17Z</time>
</trkpt>
<trkpt lat="42.94967" lon="-0.8463767">
<ele>2008</ele>
<time>2014-10-04T12:57:19Z</time>
</trkpt>
<trkpt lat="42.949642" lon="-0.846553">
<ele>2005</ele>
<time>2014-10-04T12:57:21Z</time>
</trkpt>
<trkpt lat="42.94966" lon="-0.84673107">
<ele>2004</ele>
<time>2014-10-04T12:57:23Z</time>
</trkpt>
<trkpt lat="42.949703" lon="-0.84684646">
<ele>2000</ele>
<time>2014-10-04T12:57:25Z</time>
</trkpt>
<trkpt lat="42.949696" lon="-0.84702605">
<ele>1997</ele>
<time>2014-10-04T12:57:27Z</time>
</trkpt>
<trkpt lat="42.949673" lon="-0.8472105">
<ele>1994</ele>
<time>2014-10-04T12:57:29Z</time>
</trkpt>
<trkpt lat="42.949654" lon="-0.8473805">
<ele>1992</ele>
<time>2014-10-04T12:57:31Z</time>
</trkpt>
<trkpt lat="42.9496" lon="-0.8474896">
<ele>1987</ele>
<time>2014-10-04T12:57:33Z</time>
</trkpt>
<trkpt lat="42.949554" lon="-0.84763676">
<ele>1979</ele>
<time>2014-10-04T12:57:35Z</time>
</trkpt>
<trkpt lat="42.94949" lon="-0.8478455">
<ele>1973</ele>
<time>2014-10-04T12:57:37Z</time>
</trkpt>
<trkpt lat="42.949432" lon="-0.8480259">
<ele>1970</ele>
<time>2014-10-04T12:57:39Z</time>
</trkpt>
<trkpt lat="42.949364" lon="-0.84817934">
<ele>1968</ele>
<time>2014-10-04T12:57:41Z</time>
</trkpt>
<trkpt lat="42.949306" lon="-0.8483582">
<ele>1968</ele>
<time>2014-10-04T12:57:43Z</time>
</trkpt>
<trkpt lat="42.949154" lon="-0.8484866">
<ele>1967</ele>
<time>2014-10-04T12:57:44Z</time>
</trkpt>
<trkpt lat="42.94894" lon="-0.8484728">
<ele>1967</ele>
<time>2014-10-04T12:57:47Z</time>
</trkpt>
<trkpt lat="42.948803" lon="-0.8485394">
<ele>1967</ele>
<time>2014-10-04T12:57:49Z</time>
</trkpt>
<trkpt lat="42.948723" lon="-0.84860265">
<ele>1967</ele>
<time>2014-10-04T12:57:51Z</time>
</trkpt>
<trkpt lat="42.948566" lon="-0.84875894">
<ele>1966</ele>
<time>2014-10-04T12:57:53Z</time>
</trkpt>
<trkpt lat="42.948563" lon="-0.84893054">
<ele>1965</ele>
<time>2014-10-04T12:57:55Z</time>
</trkpt>
<trkpt lat="42.948494" lon="-0.8491148">
<ele>1965</ele>
<time>2014-10-04T12:57:57Z</time>
</trkpt>
<trkpt lat="42.94841" lon="-0.84926766">
<ele>1965</ele>
<time>2014-10-04T12:57:59Z</time>
</trkpt>
<trkpt lat="42.9483" lon="-0.8494088">
<ele>1967</ele>
<time>2014-10-04T12:58:01Z</time>
</trkpt>
<trkpt lat="42.948177" lon="-0.8494966">
<ele>1969</ele>
<time>2014-10-04T12:58:03Z</time>
</trkpt>
<trkpt lat="42.948032" lon="-0.84955025">
<ele>1970</ele>
<time>2014-10-04T12:58:05Z</time>
</trkpt>
<trkpt lat="42.947876" lon="-0.84957004">
<ele>1971</ele>
<time>2014-10-04T12:58:06Z</time>
</trkpt>
<trkpt lat="42.94771" lon="-0.84946537">
<ele>1969</ele>
<time>2014-10-04T12:58:09Z</time>
</trkpt>
<trkpt lat="42.94755" lon="-0.8493533">
<ele>1967</ele>
<time>2014-10-04T12:58:11Z</time>
</trkpt>
<trkpt lat="42.94739" lon="-0.84923106">
<ele>1969</ele>
<time>2014-10-04T12:58:13Z</time>
</trkpt>
<trkpt lat="42.94729" lon="-0.8491497">
<ele>1971</ele>
<time>2014-10-04T12:58:15Z</time>
</trkpt>
<trkpt lat="42.947166" lon="-0.84893054">
<ele>1970</ele>
<time>2014-10-04T12:58:17Z</time>
</trkpt>
<trkpt lat="42.94705" lon="-0.8486863">
<ele>1971</ele>
<time>2014-10-04T12:58:19Z</time>
</trkpt>
<trkpt lat="42.946987" lon="-0.8484946">
<ele>1976</ele>
<time>2014-10-04T12:58:21Z</time>
</trkpt>
<trkpt lat="42.946957" lon="-0.84833777">
<ele>1978</ele>
<time>2014-10-04T12:58:23Z</time>
</trkpt>
<trkpt lat="42.946968" lon="-0.8481313">
<ele>1979</ele>
<time>2014-10-04T12:58:25Z</time>
</trkpt>
<trkpt lat="42.947056" lon="-0.84775954">
<ele>1983</ele>
<time>2014-10-04T12:58:27Z</time>
</trkpt>
<trkpt lat="42.947147" lon="-0.84749925">
<ele>1983</ele>
<time>2014-10-04T12:58:29Z</time>
</trkpt>
<trkpt lat="42.947216" lon="-0.84723294">
<ele>1982</ele>
<time>2014-10-04T12:58:31Z</time>
</trkpt>
<trkpt lat="42.94728" lon="-0.8469875">
<ele>1982</ele>
<time>2014-10-04T12:58:33Z</time>
</trkpt>
<trkpt lat="42.94737" lon="-0.84674656">
<ele>1982</ele>
<time>2014-10-04T12:58:34Z</time>
</trkpt>
<trkpt lat="42.947636" lon="-0.8466099">
<ele>1986</ele>
<time>2014-10-04T12:58:37Z</time>
</trkpt>
<trkpt lat="42.94782" lon="-0.84656084">
<ele>1988</ele>
<time>2014-10-04T12:58:39Z</time>
</trkpt>
<trkpt lat="42.94799" lon="-0.84660125">
<ele>1988</ele>
<time>2014-10-04T12:58:41Z</time>
</trkpt>
<trkpt lat="42.948147" lon="-0.8467306">
<ele>1989</ele>
<time>2014-10-04T12:58:43Z</time>
</trkpt>
<trkpt lat="42.948242" lon="-0.8469532">
<ele>1993</ele>
<time>2014-10-04T12:58:45Z</time>
</trkpt>
<trkpt lat="42.948288" lon="-0.8471526">
<ele>1998</ele>
<time>2014-10-04T12:58:47Z</time>
</trkpt>
<trkpt lat="42.94833" lon="-0.84733516">
<ele>2002</ele>
<time>2014-10-04T12:58:49Z</time>
</trkpt>
<trkpt lat="42.948364" lon="-0.847502">
<ele>2005</ele>
<time>2014-10-04T12:58:51Z</time>
</trkpt>
<trkpt lat="42.948425" lon="-0.84768194">
<ele>2007</ele>
<time>2014-10-04T12:58:53Z</time>
</trkpt>
<trkpt lat="42.948498" lon="-0.8478857">
<ele>2009</ele>
<time>2014-10-04T12:58:55Z</time>
</trkpt>
<trkpt lat="42.948555" lon="-0.8480726">
<ele>2011</ele>
<time>2014-10-04T12:58:57Z</time>
</trkpt>
<trkpt lat="42.948647" lon="-0.8481785">
<ele>2011</ele>
<time>2014-10-04T12:58:59Z</time>
</trkpt>
<trkpt lat="42.948727" lon="-0.8483403">
<ele>2009</ele>
<time>2014-10-04T12:59:01Z</time>
</trkpt>
<trkpt lat="42.948814" lon="-0.8484921">
<ele>2007</ele>
<time>2014-10-04T12:59:03Z</time>
</trkpt>
<trkpt lat="42.948853" lon="-0.8486847">
<ele>2006</ele>
<time>2014-10-04T12:59:05Z</time>
</trkpt>
<trkpt lat="42.94894" lon="-0.8488805">
<ele>2004</ele>
<time>2014-10-04T12:59:07Z</time>
</trkpt>
<trkpt lat="42.949043" lon="-0.84911436">
<ele>2002</ele>
<time>2014-10-04T12:59:09Z</time>
</trkpt>
<trkpt lat="42.949097" lon="-0.8493454">
<ele>2000</ele>
<time>2014-10-04T12:59:11Z</time>
</trkpt>
<trkpt lat="42.949127" lon="-0.84953284">
<ele>1997</ele>
<time>2014-10-04T12:59:13Z</time>
</trkpt>
<trkpt lat="42.949116" lon="-0.84975785">
<ele>1991</ele>
<time>2014-10-04T12:59:15Z</time>
</trkpt>
<trkpt lat="42.949158" lon="-0.8499719">
<ele>1987</ele>
<time>2014-10-04T12:59:17Z</time>
</trkpt>
<trkpt lat="42.94922" lon="-0.85017717">
<ele>1986</ele>
<time>2014-10-04T12:59:19Z</time>
</trkpt>
<trkpt lat="42.949238" lon="-0.85041773">
<ele>1983</ele>
<time>2014-10-04T12:59:21Z</time>
</trkpt>
<trkpt lat="42.949245" lon="-0.8506207">
<ele>1980</ele>
<time>2014-10-04T12:59:23Z</time>
</trkpt>
<trkpt lat="42.94923" lon="-0.85083336">
<ele>1972</ele>
<time>2014-10-04T12:59:25Z</time>
</trkpt>
<trkpt lat="42.94914" lon="-0.85103524">
<ele>1966</ele>
<time>2014-10-04T12:59:27Z</time>
</trkpt>
<trkpt lat="42.948975" lon="-0.8511791">
<ele>1962</ele>
<time>2014-10-04T12:59:29Z</time>
</trkpt>
<trkpt lat="42.948803" lon="-0.8512669">
<ele>1956</ele>
<time>2014-10-04T12:59:31Z</time>
</trkpt>
<trkpt lat="42.94862" lon="-0.8512679">
<ele>1949</ele>
<time>2014-10-04T12:59:33Z</time>
</trkpt>
<trkpt lat="42.94844" lon="-0.8511962">
<ele>1946</ele>
<time>2014-10-04T12:59:34Z</time>
</trkpt>
<trkpt lat="42.94829" lon="-0.85109955">
<ele>1945</ele>
<time>2014-10-04T12:59:37Z</time>
</trkpt>
<trkpt lat="42.948147" lon="-0.85109264">
<ele>1946</ele>
<time>2014-10-04T12:59:39Z</time>
</trkpt>
<trkpt lat="42.948" lon="-0.8511334">
<ele>1945</ele>
<time>2014-10-04T12:59:41Z</time>
</trkpt>
<trkpt lat="42.947834" lon="-0.8511381">
<ele>1945</ele>
<time>2014-10-04T12:59:43Z</time>
</trkpt>
<trkpt lat="42.947716" lon="-0.8510379">
<ele>1945</ele>
<time>2014-10-04T12:59:45Z</time>
</trkpt>
<trkpt lat="42.947723" lon="-0.8508179">
<ele>1946</ele>
<time>2014-10-04T12:59:47Z</time>
</trkpt>
<trkpt lat="42.947884" lon="-0.85071814">
<ele>1947</ele>
<time>2014-10-04T12:59:49Z</time>
</trkpt>
<trkpt lat="42.948067" lon="-0.85085833">
<ele>1952</ele>
<time>2014-10-04T12:59:51Z</time>
</trkpt>
<trkpt lat="42.948116" lon="-0.8510704">
<ele>1958</ele>
<time>2014-10-04T12:59:53Z</time>
</trkpt>
<trkpt lat="42.948086" lon="-0.8512709">
<ele>1960</ele>
<time>2014-10-04T12:59:55Z</time>
</trkpt>
<trkpt lat="42.947937" lon="-0.8514027">
<ele>1959</ele>
<time>2014-10-04T12:59:57Z</time>
</trkpt>
<trkpt lat="42.947765" lon="-0.85133636">
<ele>1960</ele>
<time>2014-10-04T12:59:59Z</time>
</trkpt>
<trkpt lat="42.947712" lon="-0.8510969">
<ele>1961</ele>
<time>2014-10-04T13:00:01Z</time>
</trkpt>
<trkpt lat="42.94774" lon="-0.850845">
<ele>1961</ele>
<time>2014-10-04T13:00:03Z</time>
</trkpt>
<trkpt lat="42.947876" lon="-0.85067695">
<ele>1963</ele>
<time>2014-10-04T13:00:05Z</time>
</trkpt>
<trkpt lat="42.947987" lon="-0.8505584">
<ele>1968</ele>
<time>2014-10-04T13:00:07Z</time>
</trkpt>
<trkpt lat="42.94811" lon="-0.8504552">
<ele>1968</ele>
<time>2014-10-04T13:00:09Z</time>
</trkpt>
<trkpt lat="42.948257" lon="-0.8503457">
<ele>1968</ele>
<time>2014-10-04T13:00:11Z</time>
</trkpt>
<trkpt lat="42.948368" lon="-0.8501583">
<ele>1970</ele>
<time>2014-10-04T13:00:13Z</time>
</trkpt>
<trkpt lat="42.94851" lon="-0.8498891">
<ele>1972</ele>
<time>2014-10-04T13:00:16Z</time>
</trkpt>
<trkpt lat="42.948586" lon="-0.849656">
<ele>1972</ele>
<time>2014-10-04T13:00:18Z</time>
</trkpt>
<trkpt lat="42.94867" lon="-0.84942204">
<ele>1972</ele>
<time>2014-10-04T13:00:19Z</time>
</trkpt>
<trkpt lat="42.948765" lon="-0.8491826">
<ele>1972</ele>
<time>2014-10-04T13:00:22Z</time>
</trkpt>
<trkpt lat="42.94887" lon="-0.848973">
<ele>1973</ele>
<time>2014-10-04T13:00:24Z</time>
</trkpt>
<trkpt lat="42.9489" lon="-0.8488216">
<ele>1971</ele>
<time>2014-10-04T13:00:26Z</time>
</trkpt>
<trkpt lat="42.948967" lon="-0.8485925">
<ele>1969</ele>
<time>2014-10-04T13:00:28Z</time>
</trkpt>
<trkpt lat="42.94895" lon="-0.84833336">
<ele>1970</ele>
<time>2014-10-04T13:00:30Z</time>
</trkpt>
<trkpt lat="42.949043" lon="-0.8481315">
<ele>1970</ele>
<time>2014-10-04T13:00:32Z</time>
</trkpt>
<trkpt lat="42.949112" lon="-0.84791344">
<ele>1969</ele>
<time>2014-10-04T13:00:34Z</time>
</trkpt>
<trkpt lat="42.94921" lon="-0.84768313">
<ele>1968</ele>
<time>2014-10-04T13:00:36Z</time>
</trkpt>
<trkpt lat="42.949413" lon="-0.8475867">
<ele>1965</ele>
<time>2014-10-04T13:00:38Z</time>
</trkpt>
<trkpt lat="42.94955" lon="-0.84793156">
<ele>1960</ele>
<time>2014-10-04T13:00:39Z</time>
</trkpt>
<trkpt lat="42.94964" lon="-0.848085">
<ele>1962</ele>
<time>2014-10-04T13:00:42Z</time>
</trkpt>
<trkpt lat="42.949585" lon="-0.8483075">
<ele>1955</ele>
<time>2014-10-04T13:00:44Z</time>
</trkpt>
<trkpt lat="42.949562" lon="-0.84853566">
<ele>1949</ele>
<time>2014-10-04T13:00:46Z</time>
</trkpt>
<trkpt lat="42.949554" lon="-0.8487641">
<ele>1945</ele>
<time>2014-10-04T13:00:48Z</time>
</trkpt>
<trkpt lat="42.949547" lon="-0.8489624">
<ele>1940</ele>
<time>2014-10-04T13:00:50Z</time>
</trkpt>
<trkpt lat="42.94952" lon="-0.84919024">
<ele>1933</ele>
<time>2014-10-04T13:00:52Z</time>
</trkpt>
<trkpt lat="42.949524" lon="-0.84944314">
<ele>1930</ele>
<time>2014-10-04T13:00:54Z</time>
</trkpt>
<trkpt lat="42.949528" lon="-0.84969974">
<ele>1927</ele>
<time>2014-10-04T13:00:56Z</time>
</trkpt>
<trkpt lat="42.94952" lon="-0.8499405">
<ele>1926</ele>
<time>2014-10-04T13:00:58Z</time>
</trkpt>
<trkpt lat="42.94954" lon="-0.85017073">
<ele>1925</ele>
<time>2014-10-04T13:01:00Z</time>
</trkpt>
<trkpt lat="42.94961" lon="-0.8503237">
<ele>1924</ele>
<time>2014-10-04T13:01:02Z</time>
</trkpt>
<trkpt lat="42.94965" lon="-0.8505068">
<ele>1917</ele>
<time>2014-10-04T13:01:04Z</time>
</trkpt>
<trkpt lat="42.949696" lon="-0.8507166">
<ele>1917</ele>
<time>2014-10-04T13:01:06Z</time>
</trkpt>
<trkpt lat="42.949783" lon="-0.85089046">
<ele>1916</ele>
<time>2014-10-04T13:01:08Z</time>
</trkpt>
<trkpt lat="42.94984" lon="-0.8510802">
<ele>1915</ele>
<time>2014-10-04T13:01:10Z</time>
</trkpt>
<trkpt lat="42.949833" lon="-0.85129446">
<ele>1913</ele>
<time>2014-10-04T13:01:12Z</time>
</trkpt>
<trkpt lat="42.949783" lon="-0.85150945">
<ele>1909</ele>
<time>2014-10-04T13:01:14Z</time>
</trkpt>
<trkpt lat="42.94972" lon="-0.8517068">
<ele>1908</ele>
<time>2014-10-04T13:01:16Z</time>
</trkpt>
<trkpt lat="42.949608" lon="-0.8518641">
<ele>1905</ele>
<time>2014-10-04T13:01:18Z</time>
</trkpt>
<trkpt lat="42.949497" lon="-0.8519804">
<ele>1906</ele>
<time>2014-10-04T13:01:20Z</time>
</trkpt>
<trkpt lat="42.949375" lon="-0.8520476">
<ele>1907</ele>
<time>2014-10-04T13:01:21Z</time>
</trkpt>
<trkpt lat="42.949253" lon="-0.8519121">
<ele>1905</ele>
<time>2014-10-04T13:01:24Z</time>
</trkpt>
<trkpt lat="42.949142" lon="-0.85173">
<ele>1902</ele>
<time>2014-10-04T13:01:26Z</time>
</trkpt>
<trkpt lat="42.949036" lon="-0.851481">
<ele>1902</ele>
<time>2014-10-04T13:01:28Z</time>
</trkpt>
<trkpt lat="42.948975" lon="-0.85127044">
<ele>1901</ele>
<time>2014-10-04T13:01:30Z</time>
</trkpt>
<trkpt lat="42.948914" lon="-0.85109603">
<ele>1901</ele>
<time>2014-10-04T13:01:32Z</time>
</trkpt>
<trkpt lat="42.94888" lon="-0.8508433">
<ele>1901</ele>
<time>2014-10-04T13:01:34Z</time>
</trkpt>
<trkpt lat="42.94883" lon="-0.85064197">
<ele>1898</ele>
<time>2014-10-04T13:01:36Z</time>
</trkpt>
<trkpt lat="42.94881" lon="-0.85044414">
<ele>1893</ele>
<time>2014-10-04T13:01:38Z</time>
</trkpt>
<trkpt lat="42.948814" lon="-0.85023725">
<ele>1891</ele>
<time>2014-10-04T13:01:40Z</time>
</trkpt>
<trkpt lat="42.948845" lon="-0.85001165">
<ele>1890</ele>
<time>2014-10-04T13:01:42Z</time>
</trkpt>
<trkpt lat="42.94886" lon="-0.8497801">
<ele>1885</ele>
<time>2014-10-04T13:01:44Z</time>
</trkpt>
<trkpt lat="42.948814" lon="-0.8495347">
<ele>1883</ele>
<time>2014-10-04T13:01:46Z</time>
</trkpt>
<trkpt lat="42.948765" lon="-0.84930575">
<ele>1882</ele>
<time>2014-10-04T13:01:48Z</time>
</trkpt>
<trkpt lat="42.94872" lon="-0.84912187">
<ele>1880</ele>
<time>2014-10-04T13:01:50Z</time>
</trkpt>
<trkpt lat="42.948654" lon="-0.84892887">
<ele>1880</ele>
<time>2014-10-04T13:01:52Z</time>
</trkpt>
<trkpt lat="42.94862" lon="-0.84872913">
<ele>1880</ele>
<time>2014-10-04T13:01:54Z</time>
</trkpt>
<trkpt lat="42.94856" lon="-0.84848374">
<ele>1876</ele>
<time>2014-10-04T13:01:56Z</time>
</trkpt>
<trkpt lat="42.94845" lon="-0.8482549">
<ele>1876</ele>
<time>2014-10-04T13:01:58Z</time>
</trkpt>
<trkpt lat="42.94834" lon="-0.8480402">
<ele>1881</ele>
<time>2014-10-04T13:02:00Z</time>
</trkpt>
<trkpt lat="42.94829" lon="-0.8478541">
<ele>1881</ele>
<time>2014-10-04T13:02:02Z</time>
</trkpt>
<trkpt lat="42.94821" lon="-0.8476388">
<ele>1880</ele>
<time>2014-10-04T13:02:04Z</time>
</trkpt>
<trkpt lat="42.948105" lon="-0.84740007">
<ele>1879</ele>
<time>2014-10-04T13:02:06Z</time>
</trkpt>
<trkpt lat="42.947987" lon="-0.8471811">
<ele>1886</ele>
<time>2014-10-04T13:02:08Z</time>
</trkpt>
<trkpt lat="42.947945" lon="-0.84697264">
<ele>1889</ele>
<time>2014-10-04T13:02:10Z</time>
</trkpt>
<trkpt lat="42.947918" lon="-0.8467218">
<ele>1891</ele>
<time>2014-10-04T13:02:12Z</time>
</trkpt>
<trkpt lat="42.947895" lon="-0.84640676">
<ele>1892</ele>
<time>2014-10-04T13:02:14Z</time>
</trkpt>
<trkpt lat="42.947884" lon="-0.8460638">
<ele>1892</ele>
<time>2014-10-04T13:02:16Z</time>
</trkpt>
<trkpt lat="42.947826" lon="-0.84585035">
<ele>1893</ele>
<time>2014-10-04T13:02:18Z</time>
</trkpt>
<trkpt lat="42.947754" lon="-0.84558296">
<ele>1893</ele>
<time>2014-10-04T13:02:20Z</time>
</trkpt>
<trkpt lat="42.947693" lon="-0.8453967">
<ele>1893</ele>
<time>2014-10-04T13:02:22Z</time>
</trkpt>
<trkpt lat="42.94771" lon="-0.8450981">
<ele>1897</ele>
<time>2014-10-04T13:02:24Z</time>
</trkpt>
<trkpt lat="42.94771" lon="-0.8448242">
<ele>1900</ele>
<time>2014-10-04T13:02:26Z</time>
</trkpt>
<trkpt lat="42.947704" lon="-0.84455895">
<ele>1902</ele>
<time>2014-10-04T13:02:28Z</time>
</trkpt>
<trkpt lat="42.947773" lon="-0.84430015">
<ele>1905</ele>
<time>2014-10-04T13:02:30Z</time>
</trkpt>
<trkpt lat="42.94787" lon="-0.8440537">
<ele>1908</ele>
<time>2014-10-04T13:02:32Z</time>
</trkpt>
<trkpt lat="42.947952" lon="-0.8438972">
<ele>1909</ele>
<time>2014-10-04T13:02:34Z</time>
</trkpt>
<trkpt lat="42.948093" lon="-0.8436687">
<ele>1910</ele>
<time>2014-10-04T13:02:36Z</time>
</trkpt>
<trkpt lat="42.948177" lon="-0.8434163">
<ele>1913</ele>
<time>2014-10-04T13:02:38Z</time>
</trkpt>
<trkpt lat="42.948208" lon="-0.8431999">
<ele>1917</ele>
<time>2014-10-04T13:02:40Z</time>
</trkpt>
<trkpt lat="42.94828" lon="-0.84297526">
<ele>1920</ele>
<time>2014-10-04T13:02:42Z</time>
</trkpt>
<trkpt lat="42.948303" lon="-0.8427291">
<ele>1923</ele>
<time>2014-10-04T13:02:44Z</time>
</trkpt>
<trkpt lat="42.948326" lon="-0.8425078">
<ele>1924</ele>
<time>2014-10-04T13:02:46Z</time>
</trkpt>
<trkpt lat="42.948334" lon="-0.84232265">
<ele>1924</ele>
<time>2014-10-04T13:02:48Z</time>
</trkpt>
<trkpt lat="42.94834" lon="-0.84211403">
<ele>1923</ele>
<time>2014-10-04T13:02:50Z</time>
</trkpt>
<trkpt lat="42.948322" lon="-0.8418869">
<ele>1923</ele>
<time>2014-10-04T13:02:52Z</time>
</trkpt>
<trkpt lat="42.94833" lon="-0.8416683">
<ele>1921</ele>
<time>2014-10-04T13:02:54Z</time>
</trkpt>
<trkpt lat="42.948387" lon="-0.84145623">
<ele>1916</ele>
<time>2014-10-04T13:02:56Z</time>
</trkpt>
<trkpt lat="42.94846" lon="-0.84122527">
<ele>1917</ele>
<time>2014-10-04T13:02:57Z</time>
</trkpt>
<trkpt lat="42.948555" lon="-0.8410019">
<ele>1918</ele>
<time>2014-10-04T13:03:00Z</time>
</trkpt>
<trkpt lat="42.94864" lon="-0.8407807">
<ele>1915</ele>
<time>2014-10-04T13:03:02Z</time>
</trkpt>
<trkpt lat="42.948715" lon="-0.8405595">
<ele>1915</ele>
<time>2014-10-04T13:03:03Z</time>
</trkpt>
<trkpt lat="42.948902" lon="-0.8402533">
<ele>1918</ele>
<time>2014-10-04T13:03:06Z</time>
</trkpt>
<trkpt lat="42.949036" lon="-0.8401453">
<ele>1915</ele>
<time>2014-10-04T13:03:09Z</time>
</trkpt>
<trkpt lat="42.949215" lon="-0.84024984">
<ele>1917</ele>
<time>2014-10-04T13:03:11Z</time>
</trkpt>
<trkpt lat="42.949223" lon="-0.8404554">
<ele>1921</ele>
<time>2014-10-04T13:03:13Z</time>
</trkpt>
<trkpt lat="42.94916" lon="-0.84064996">
<ele>1919</ele>
<time>2014-10-04T13:03:15Z</time>
</trkpt>
<trkpt lat="42.949093" lon="-0.84085864">
<ele>1918</ele>
<time>2014-10-04T13:03:17Z</time>
</trkpt>
<trkpt lat="42.949028" lon="-0.84104234">
<ele>1918</ele>
<time>2014-10-04T13:03:19Z</time>
</trkpt>
<trkpt lat="42.94896" lon="-0.8412098">
<ele>1918</ele>
<time>2014-10-04T13:03:21Z</time>
</trkpt>
<trkpt lat="42.948925" lon="-0.84141153">
<ele>1916</ele>
<time>2014-10-04T13:03:23Z</time>
</trkpt>
<trkpt lat="42.948856" lon="-0.8415994">
<ele>1915</ele>
<time>2014-10-04T13:03:25Z</time>
</trkpt>
<trkpt lat="42.94877" lon="-0.8417936">
<ele>1915</ele>
<time>2014-10-04T13:03:27Z</time>
</trkpt>
<trkpt lat="42.948692" lon="-0.8420023">
<ele>1915</ele>
<time>2014-10-04T13:03:29Z</time>
</trkpt>
<trkpt lat="42.948616" lon="-0.84223646">
<ele>1916</ele>
<time>2014-10-04T13:03:31Z</time>
</trkpt>
<trkpt lat="42.94856" lon="-0.84243417">
<ele>1917</ele>
<time>2014-10-04T13:03:33Z</time>
</trkpt>
<trkpt lat="42.94856" lon="-0.8426171">
<ele>1918</ele>
<time>2014-10-04T13:03:35Z</time>
</trkpt>
<trkpt lat="42.948505" lon="-0.8428236">
<ele>1919</ele>
<time>2014-10-04T13:03:37Z</time>
</trkpt>
<trkpt lat="42.94846" lon="-0.84301263">
<ele>1920</ele>
<time>2014-10-04T13:03:39Z</time>
</trkpt>
<trkpt lat="42.948444" lon="-0.8432039">
<ele>1919</ele>
<time>2014-10-04T13:03:41Z</time>
</trkpt>
<trkpt lat="42.948387" lon="-0.8433936">
<ele>1919</ele>
<time>2014-10-04T13:03:43Z</time>
</trkpt>
<trkpt lat="42.948338" lon="-0.8436213">
<ele>1921</ele>
<time>2014-10-04T13:03:45Z</time>
</trkpt>
<trkpt lat="42.94832" lon="-0.8438197">
<ele>1920</ele>
<time>2014-10-04T13:03:47Z</time>
</trkpt>
<trkpt lat="42.948296" lon="-0.844063">
<ele>1918</ele>
<time>2014-10-04T13:03:49Z</time>
</trkpt>
<trkpt lat="42.9483" lon="-0.8443004">
<ele>1919</ele>
<time>2014-10-04T13:03:51Z</time>
</trkpt>
<trkpt lat="42.948315" lon="-0.8444969">
<ele>1919</ele>
<time>2014-10-04T13:03:53Z</time>
</trkpt>
<trkpt lat="42.94829" lon="-0.8446828">
<ele>1918</ele>
<time>2014-10-04T13:03:55Z</time>
</trkpt>
<trkpt lat="42.94826" lon="-0.8448921">
<ele>1919</ele>
<time>2014-10-04T13:03:57Z</time>
</trkpt>
<trkpt lat="42.94821" lon="-0.8450599">
<ele>1922</ele>
<time>2014-10-04T13:03:59Z</time>
</trkpt>
<trkpt lat="42.948154" lon="-0.8451917">
<ele>1925</ele>
<time>2014-10-04T13:04:01Z</time>
</trkpt>
<trkpt lat="42.9481" lon="-0.8453447">
<ele>1931</ele>
<time>2014-10-04T13:04:03Z</time>
</trkpt>
<trkpt lat="42.948055" lon="-0.84546196">
<ele>1937</ele>
<time>2014-10-04T13:04:05Z</time>
</trkpt>
<trkpt lat="42.948017" lon="-0.8456297">
<ele>1940</ele>
<time>2014-10-04T13:04:07Z</time>
</trkpt>
<trkpt lat="42.94795" lon="-0.8457973">
<ele>1943</ele>
<time>2014-10-04T13:04:09Z</time>
</trkpt>
<trkpt lat="42.947887" lon="-0.8459508">
<ele>1949</ele>
<time>2014-10-04T13:04:11Z</time>
</trkpt>
<trkpt lat="42.94781" lon="-0.8460633">
<ele>1950</ele>
<time>2014-10-04T13:04:13Z</time>
</trkpt>
<trkpt lat="42.947712" lon="-0.846258">
<ele>1950</ele>
<time>2014-10-04T13:04:15Z</time>
</trkpt>
<trkpt lat="42.947624" lon="-0.8464467">
<ele>1952</ele>
<time>2014-10-04T13:04:17Z</time>
</trkpt>
<trkpt lat="42.947556" lon="-0.8466189">
<ele>1956</ele>
<time>2014-10-04T13:04:19Z</time>
</trkpt>
<trkpt lat="42.947506" lon="-0.8468215">
<ele>1957</ele>
<time>2014-10-04T13:04:21Z</time>
</trkpt>
<trkpt lat="42.947536" lon="-0.846985">
<ele>1958</ele>
<time>2014-10-04T13:04:23Z</time>
</trkpt>
<trkpt lat="42.947544" lon="-0.84716517">
<ele>1958</ele>
<time>2014-10-04T13:04:25Z</time>
</trkpt>
<trkpt lat="42.947544" lon="-0.84737384">
<ele>1958</ele>
<time>2014-10-04T13:04:27Z</time>
</trkpt>
<trkpt lat="42.947502" lon="-0.8475516">
<ele>1960</ele>
<time>2014-10-04T13:04:29Z</time>
</trkpt>
<trkpt lat="42.947464" lon="-0.84766924">
<ele>1963</ele>
<time>2014-10-04T13:04:31Z</time>
</trkpt>
<trkpt lat="42.94741" lon="-0.8478207">
<ele>1963</ele>
<time>2014-10-04T13:04:33Z</time>
</trkpt>
<trkpt lat="42.94731" lon="-0.84796906">
<ele>1964</ele>
<time>2014-10-04T13:04:35Z</time>
</trkpt>
<trkpt lat="42.947212" lon="-0.8480866">
<ele>1965</ele>
<time>2014-10-04T13:04:37Z</time>
</trkpt>
<trkpt lat="42.9471" lon="-0.84823245">
<ele>1963</ele>
<time>2014-10-04T13:04:39Z</time>
</trkpt>
<trkpt lat="42.946976" lon="-0.8483504">
<ele>1962</ele>
<time>2014-10-04T13:04:41Z</time>
</trkpt>
<trkpt lat="42.946877" lon="-0.84845203">
<ele>1961</ele>
<time>2014-10-04T13:04:43Z</time>
</trkpt>
<trkpt lat="42.946774" lon="-0.84859437">
<ele>1958</ele>
<time>2014-10-04T13:04:45Z</time>
</trkpt>
<trkpt lat="42.946655" lon="-0.848768">
<ele>1960</ele>
<time>2014-10-04T13:04:47Z</time>
</trkpt>
<trkpt lat="42.946587" lon="-0.8489121">
<ele>1961</ele>
<time>2014-10-04T13:04:49Z</time>
</trkpt>
<trkpt lat="42.946545" lon="-0.8490806">
<ele>1960</ele>
<time>2014-10-04T13:04:51Z</time>
</trkpt>
<trkpt lat="42.94658" lon="-0.84928656">
<ele>1959</ele>
<time>2014-10-04T13:04:53Z</time>
</trkpt>
<trkpt lat="42.94664" lon="-0.8494658">
<ele>1958</ele>
<time>2014-10-04T13:04:55Z</time>
</trkpt>
<trkpt lat="42.94671" lon="-0.8496483">
<ele>1956</ele>
<time>2014-10-04T13:04:57Z</time>
</trkpt>
<trkpt lat="42.946785" lon="-0.84985596">
<ele>1956</ele>
<time>2014-10-04T13:04:59Z</time>
</trkpt>
<trkpt lat="42.94687" lon="-0.8500612">
<ele>1954</ele>
<time>2014-10-04T13:05:01Z</time>
</trkpt>
<trkpt lat="42.946934" lon="-0.85024565">
<ele>1954</ele>
<time>2014-10-04T13:05:03Z</time>
</trkpt>
<trkpt lat="42.94698" lon="-0.85047776">
<ele>1955</ele>
<time>2014-10-04T13:05:05Z</time>
</trkpt>
<trkpt lat="42.947056" lon="-0.85070705">
<ele>1951</ele>
<time>2014-10-04T13:05:07Z</time>
</trkpt>
<trkpt lat="42.94707" lon="-0.85092175">
<ele>1948</ele>
<time>2014-10-04T13:05:09Z</time>
</trkpt>
<trkpt lat="42.947098" lon="-0.85114086">
<ele>1947</ele>
<time>2014-10-04T13:05:11Z</time>
</trkpt>
<trkpt lat="42.94713" lon="-0.85132164">
<ele>1945</ele>
<time>2014-10-04T13:05:12Z</time>
</trkpt>
<trkpt lat="42.947403" lon="-0.85128456">
<ele>1945</ele>
<time>2014-10-04T13:05:15Z</time>
</trkpt>
<trkpt lat="42.947556" lon="-0.8512645">
<ele>1945</ele>
<time>2014-10-04T13:05:17Z</time>
</trkpt>
<trkpt lat="42.947662" lon="-0.8511326">
<ele>1943</ele>
<time>2014-10-04T13:05:19Z</time>
</trkpt>
<trkpt lat="42.94779" lon="-0.8509864">
<ele>1943</ele>
<time>2014-10-04T13:05:21Z</time>
</trkpt>
<trkpt lat="42.94782" lon="-0.8507599">
<ele>1943</ele>
<time>2014-10-04T13:05:23Z</time>
</trkpt>
<trkpt lat="42.947834" lon="-0.85052186">
<ele>1942</ele>
<time>2014-10-04T13:05:25Z</time>
</trkpt>
<trkpt lat="42.94786" lon="-0.8502668">
<ele>1942</ele>
<time>2014-10-04T13:05:27Z</time>
</trkpt>
<trkpt lat="42.947876" lon="-0.8500024">
<ele>1940</ele>
<time>2014-10-04T13:05:29Z</time>
</trkpt>
<trkpt lat="42.947826" lon="-0.8498101">
<ele>1938</ele>
<time>2014-10-04T13:05:31Z</time>
</trkpt>
<trkpt lat="42.947784" lon="-0.8495887">
<ele>1936</ele>
<time>2014-10-04T13:05:33Z</time>
</trkpt>
<trkpt lat="42.94771" lon="-0.84936845">
<ele>1932</ele>
<time>2014-10-04T13:05:35Z</time>
</trkpt>
<trkpt lat="42.94761" lon="-0.8491952">
<ele>1931</ele>
<time>2014-10-04T13:05:37Z</time>
</trkpt>
<trkpt lat="42.947475" lon="-0.84918255">
<ele>1929</ele>
<time>2014-10-04T13:05:39Z</time>
</trkpt>
<trkpt lat="42.947376" lon="-0.8491315">
<ele>1928</ele>
<time>2014-10-04T13:05:41Z</time>
</trkpt>
<trkpt lat="42.947094" lon="-0.8492246">
<ele>1928</ele>
<time>2014-10-04T13:05:44Z</time>
</trkpt>
<trkpt lat="42.94689" lon="-0.84926665">
<ele>1928</ele>
<time>2014-10-04T13:05:46Z</time>
</trkpt>
<trkpt lat="42.946648" lon="-0.8491387">
<ele>1925</ele>
<time>2014-10-04T13:05:49Z</time>
</trkpt>
<trkpt lat="42.946472" lon="-0.84897226">
<ele>1923</ele>
<time>2014-10-04T13:05:51Z</time>
</trkpt>
<trkpt lat="42.94633" lon="-0.8488324">
<ele>1921</ele>
<time>2014-10-04T13:05:53Z</time>
</trkpt>
<trkpt lat="42.9462" lon="-0.84859294">
<ele>1918</ele>
<time>2014-10-04T13:05:55Z</time>
</trkpt>
<trkpt lat="42.94608" lon="-0.84840363">
<ele>1921</ele>
<time>2014-10-04T13:05:57Z</time>
</trkpt>
<trkpt lat="42.94598" lon="-0.8481921">
<ele>1923</ele>
<time>2014-10-04T13:05:59Z</time>
</trkpt>
<trkpt lat="42.945847" lon="-0.84792835">
<ele>1918</ele>
<time>2014-10-04T13:06:01Z</time>
</trkpt>
<trkpt lat="42.945744" lon="-0.8476964">
<ele>1918</ele>
<time>2014-10-04T13:06:03Z</time>
</trkpt>
<trkpt lat="42.945652" lon="-0.8474371">
<ele>1919</ele>
<time>2014-10-04T13:06:05Z</time>
</trkpt>
<trkpt lat="42.945576" lon="-0.8471888">
<ele>1918</ele>
<time>2014-10-04T13:06:07Z</time>
</trkpt>
<trkpt lat="42.94548" lon="-0.84694433">
<ele>1919</ele>
<time>2014-10-04T13:06:09Z</time>
</trkpt>
<trkpt lat="42.94538" lon="-0.8466885">
<ele>1920</ele>
<time>2014-10-04T13:06:11Z</time>
</trkpt>
<trkpt lat="42.94525" lon="-0.8464791">
<ele>1919</ele>
<time>2014-10-04T13:06:13Z</time>
</trkpt>
<trkpt lat="42.94513" lon="-0.84628314">
<ele>1917</ele>
<time>2014-10-04T13:06:15Z</time>
</trkpt>
<trkpt lat="42.94503" lon="-0.84599">
<ele>1917</ele>
<time>2014-10-04T13:06:17Z</time>
</trkpt>
<trkpt lat="42.944946" lon="-0.8457608">
<ele>1919</ele>
<time>2014-10-04T13:06:19Z</time>
</trkpt>
<trkpt lat="42.944885" lon="-0.8455654">
<ele>1917</ele>
<time>2014-10-04T13:06:21Z</time>
</trkpt>
<trkpt lat="42.944794" lon="-0.8453403">
<ele>1913</ele>
<time>2014-10-04T13:06:23Z</time>
</trkpt>
<trkpt lat="42.94468" lon="-0.84512997">
<ele>1914</ele>
<time>2014-10-04T13:06:25Z</time>
</trkpt>
<trkpt lat="42.94459" lon="-0.8449274">
<ele>1912</ele>
<time>2014-10-04T13:06:27Z</time>
</trkpt>
<trkpt lat="42.94451" lon="-0.8447007">
<ele>1910</ele>
<time>2014-10-04T13:06:29Z</time>
</trkpt>
<trkpt lat="42.944447" lon="-0.84444207">
<ele>1909</ele>
<time>2014-10-04T13:06:31Z</time>
</trkpt>
<trkpt lat="42.944386" lon="-0.8441651">
<ele>1908</ele>
<time>2014-10-04T13:06:33Z</time>
</trkpt>
<trkpt lat="42.944283" lon="-0.84387666">
<ele>1906</ele>
<time>2014-10-04T13:06:35Z</time>
</trkpt>
<trkpt lat="42.944195" lon="-0.8436172">
<ele>1905</ele>
<time>2014-10-04T13:06:37Z</time>
</trkpt>
<trkpt lat="42.944115" lon="-0.8433621">
<ele>1904</ele>
<time>2014-10-04T13:06:39Z</time>
</trkpt>
<trkpt lat="42.944042" lon="-0.84312975">
<ele>1900</ele>
<time>2014-10-04T13:06:41Z</time>
</trkpt>
<trkpt lat="42.944008" lon="-0.84286845">
<ele>1895</ele>
<time>2014-10-04T13:06:43Z</time>
</trkpt>
<trkpt lat="42.943935" lon="-0.842636">
<ele>1892</ele>
<time>2014-10-04T13:06:45Z</time>
</trkpt>
<trkpt lat="42.94385" lon="-0.84240246">
<ele>1889</ele>
<time>2014-10-04T13:06:47Z</time>
</trkpt>
<trkpt lat="42.943768" lon="-0.8421526">
<ele>1885</ele>
<time>2014-10-04T13:06:49Z</time>
</trkpt>
<trkpt lat="42.94367" lon="-0.84193355">
<ele>1883</ele>
<time>2014-10-04T13:06:51Z</time>
</trkpt>
<trkpt lat="42.94359" lon="-0.84169924">
<ele>1879</ele>
<time>2014-10-04T13:06:53Z</time>
</trkpt>
<trkpt lat="42.943512" lon="-0.84146273">
<ele>1874</ele>
<time>2014-10-04T13:06:55Z</time>
</trkpt>
<trkpt lat="42.943455" lon="-0.8411843">
<ele>1872</ele>
<time>2014-10-04T13:06:57Z</time>
</trkpt>
<trkpt lat="42.943428" lon="-0.8408935">
<ele>1871</ele>
<time>2014-10-04T13:06:59Z</time>
</trkpt>
<trkpt lat="42.94341" lon="-0.84063137">
<ele>1868</ele>
<time>2014-10-04T13:07:01Z</time>
</trkpt>
<trkpt lat="42.94346" lon="-0.84035575">
<ele>1864</ele>
<time>2014-10-04T13:07:03Z</time>
</trkpt>
<trkpt lat="42.943626" lon="-0.8401866">
<ele>1861</ele>
<time>2014-10-04T13:07:05Z</time>
</trkpt>
<trkpt lat="42.943806" lon="-0.84011316">
<ele>1858</ele>
<time>2014-10-04T13:07:07Z</time>
</trkpt>
<trkpt lat="42.94398" lon="-0.84009373">
<ele>1855</ele>
<time>2014-10-04T13:07:08Z</time>
</trkpt>
<trkpt lat="42.9443" lon="-0.8401179">
<ele>1856</ele>
<time>2014-10-04T13:07:12Z</time>
</trkpt>
<trkpt lat="42.944435" lon="-0.8399271">
<ele>1855</ele>
<time>2014-10-04T13:07:14Z</time>
</trkpt>
<trkpt lat="42.944614" lon="-0.8397878">
<ele>1856</ele>
<time>2014-10-04T13:07:16Z</time>
</trkpt>
<trkpt lat="42.944763" lon="-0.83967817">
<ele>1857</ele>
<time>2014-10-04T13:07:18Z</time>
</trkpt>
<trkpt lat="42.94492" lon="-0.839549">
<ele>1858</ele>
<time>2014-10-04T13:07:19Z</time>
</trkpt>
<trkpt lat="42.945053" lon="-0.83944994">
<ele>1854</ele>
<time>2014-10-04T13:07:22Z</time>
</trkpt>
<trkpt lat="42.945236" lon="-0.8394261">
<ele>1852</ele>
<time>2014-10-04T13:07:24Z</time>
</trkpt>
<trkpt lat="42.945423" lon="-0.8394647">
<ele>1849</ele>
<time>2014-10-04T13:07:26Z</time>
</trkpt>
<trkpt lat="42.94555" lon="-0.83967733">
<ele>1840</ele>
<time>2014-10-04T13:07:28Z</time>
</trkpt>
<trkpt lat="42.94561" lon="-0.83991706">
<ele>1833</ele>
<time>2014-10-04T13:07:30Z</time>
</trkpt>
<trkpt lat="42.945644" lon="-0.84011143">
<ele>1833</ele>
<time>2014-10-04T13:07:32Z</time>
</trkpt>
<trkpt lat="42.94567" lon="-0.8402706">
<ele>1830</ele>
<time>2014-10-04T13:07:34Z</time>
</trkpt>
<trkpt lat="42.945683" lon="-0.8404769">
<ele>1826</ele>
<time>2014-10-04T13:07:36Z</time>
</trkpt>
<trkpt lat="42.94569" lon="-0.84069395">
<ele>1824</ele>
<time>2014-10-04T13:07:38Z</time>
</trkpt>
<trkpt lat="42.94568" lon="-0.84087396">
<ele>1821</ele>
<time>2014-10-04T13:07:40Z</time>
</trkpt>
<trkpt lat="42.945656" lon="-0.8410501">
<ele>1818</ele>
<time>2014-10-04T13:07:42Z</time>
</trkpt>
<trkpt lat="42.945633" lon="-0.84123105">
<ele>1814</ele>
<time>2014-10-04T13:07:44Z</time>
</trkpt>
<trkpt lat="42.94561" lon="-0.84136796">
<ele>1813</ele>
<time>2014-10-04T13:07:46Z</time>
</trkpt>
<trkpt lat="42.94557" lon="-0.8415184">
<ele>1808</ele>
<time>2014-10-04T13:07:48Z</time>
</trkpt>
<trkpt lat="42.945545" lon="-0.8417143">
<ele>1805</ele>
<time>2014-10-04T13:07:50Z</time>
</trkpt>
<trkpt lat="42.945503" lon="-0.8418826">
<ele>1803</ele>
<time>2014-10-04T13:07:52Z</time>
</trkpt>
<trkpt lat="42.945473" lon="-0.84205854">
<ele>1803</ele>
<time>2014-10-04T13:07:54Z</time>
</trkpt>
<trkpt lat="42.94544" lon="-0.84223676">
<ele>1803</ele>
<time>2014-10-04T13:07:56Z</time>
</trkpt>
<trkpt lat="42.94541" lon="-0.84242535">
<ele>1804</ele>
<time>2014-10-04T13:07:58Z</time>
</trkpt>
<trkpt lat="42.94537" lon="-0.84260917">
<ele>1803</ele>
<time>2014-10-04T13:08:00Z</time>
</trkpt>
<trkpt lat="42.945393" lon="-0.8427749">
<ele>1800</ele>
<time>2014-10-04T13:08:02Z</time>
</trkpt>
<trkpt lat="42.945393" lon="-0.84293944">
<ele>1797</ele>
<time>2014-10-04T13:08:04Z</time>
</trkpt>
<trkpt lat="42.94535" lon="-0.84310365">
<ele>1794</ele>
<time>2014-10-04T13:08:06Z</time>
</trkpt>
<trkpt lat="42.945305" lon="-0.843266">
<ele>1790</ele>
<time>2014-10-04T13:08:08Z</time>
</trkpt>
<trkpt lat="42.94526" lon="-0.8434276">
<ele>1787</ele>
<time>2014-10-04T13:08:10Z</time>
</trkpt>
<trkpt lat="42.945198" lon="-0.84360534">
<ele>1787</ele>
<time>2014-10-04T13:08:12Z</time>
</trkpt>
<trkpt lat="42.945118" lon="-0.84373647">
<ele>1786</ele>
<time>2014-10-04T13:08:14Z</time>
</trkpt>
<trkpt lat="42.945045" lon="-0.8438854">
<ele>1784</ele>
<time>2014-10-04T13:08:16Z</time>
</trkpt>
<trkpt lat="42.944973" lon="-0.8440299">
<ele>1782</ele>
<time>2014-10-04T13:08:18Z</time>
</trkpt>
<trkpt lat="42.944866" lon="-0.8440846">
<ele>1782</ele>
<time>2014-10-04T13:08:20Z</time>
</trkpt>
<trkpt lat="42.944748" lon="-0.8442112">
<ele>1778</ele>
<time>2014-10-04T13:08:22Z</time>
</trkpt>
<trkpt lat="42.94465" lon="-0.8443542">
<ele>1777</ele>
<time>2014-10-04T13:08:24Z</time>
</trkpt>
<trkpt lat="42.944542" lon="-0.84447247">
<ele>1778</ele>
<time>2014-10-04T13:08:26Z</time>
</trkpt>
<trkpt lat="42.944378" lon="-0.844621">
<ele>1778</ele>
<time>2014-10-04T13:08:28Z</time>
</trkpt>
<trkpt lat="42.94422" lon="-0.8447657">
<ele>1776</ele>
<time>2014-10-04T13:08:30Z</time>
</trkpt>
<trkpt lat="42.944115" lon="-0.84488606">
<ele>1777</ele>
<time>2014-10-04T13:08:32Z</time>
</trkpt>
<trkpt lat="42.943993" lon="-0.8449675">
<ele>1775</ele>
<time>2014-10-04T13:08:34Z</time>
</trkpt>
<trkpt lat="42.943848" lon="-0.8450753">
<ele>1773</ele>
<time>2014-10-04T13:08:36Z</time>
</trkpt>
<trkpt lat="42.943718" lon="-0.8452195">
<ele>1772</ele>
<time>2014-10-04T13:08:38Z</time>
</trkpt>
<trkpt lat="42.943645" lon="-0.8453204">
<ele>1772</ele>
<time>2014-10-04T13:08:40Z</time>
</trkpt>
<trkpt lat="42.943607" lon="-0.84545124">
<ele>1771</ele>
<time>2014-10-04T13:08:42Z</time>
</trkpt>
<trkpt lat="42.94353" lon="-0.84559333">
<ele>1770</ele>
<time>2014-10-04T13:08:44Z</time>
</trkpt>
<trkpt lat="42.943455" lon="-0.8457174">
<ele>1767</ele>
<time>2014-10-04T13:08:46Z</time>
</trkpt>
<trkpt lat="42.943436" lon="-0.84587914">
<ele>1764</ele>
<time>2014-10-04T13:08:48Z</time>
</trkpt>
<trkpt lat="42.943398" lon="-0.8460825">
<ele>1762</ele>
<time>2014-10-04T13:08:50Z</time>
</trkpt>
<trkpt lat="42.943356" lon="-0.84628093">
<ele>1762</ele>
<time>2014-10-04T13:08:52Z</time>
</trkpt>
<trkpt lat="42.943336" lon="-0.8464634">
<ele>1760</ele>
<time>2014-10-04T13:08:54Z</time>
</trkpt>
<trkpt lat="42.943275" lon="-0.84664345">
<ele>1757</ele>
<time>2014-10-04T13:08:56Z</time>
</trkpt>
<trkpt lat="42.943184" lon="-0.8468189">
<ele>1757</ele>
<time>2014-10-04T13:08:58Z</time>
</trkpt>
<trkpt lat="42.94308" lon="-0.8469413">
<ele>1753</ele>
<time>2014-10-04T13:09:00Z</time>
</trkpt>
<trkpt lat="42.942966" lon="-0.8471079">
<ele>1749</ele>
<time>2014-10-04T13:09:02Z</time>
</trkpt>
<trkpt lat="42.942863" lon="-0.84730786">
<ele>1750</ele>
<time>2014-10-04T13:09:04Z</time>
</trkpt>
<trkpt lat="42.942787" lon="-0.8475408">
<ele>1751</ele>
<time>2014-10-04T13:09:06Z</time>
</trkpt>
<trkpt lat="42.942776" lon="-0.84754413">
<ele>1751</ele>
<time>2014-10-04T13:09:08Z</time>
</trkpt>
<trkpt lat="42.942787" lon="-0.8476717">
<ele>1747</ele>
<time>2014-10-04T13:09:10Z</time>
</trkpt>
<trkpt lat="42.942806" lon="-0.8478044">
<ele>1747</ele>
<time>2014-10-04T13:09:12Z</time>
</trkpt>
<trkpt lat="42.942837" lon="-0.84790915">
<ele>1744</ele>
<time>2014-10-04T13:09:14Z</time>
</trkpt>
<trkpt lat="42.942814" lon="-0.8480442">
<ele>1738</ele>
<time>2014-10-04T13:09:16Z</time>
</trkpt>
<trkpt lat="42.942795" lon="-0.8482151">
<ele>1734</ele>
<time>2014-10-04T13:09:18Z</time>
</trkpt>
<trkpt lat="42.94276" lon="-0.8483484">
<ele>1731</ele>
<time>2014-10-04T13:09:20Z</time>
</trkpt>
<trkpt lat="42.942703" lon="-0.84849787">
<ele>1727</ele>
<time>2014-10-04T13:09:22Z</time>
</trkpt>
<trkpt lat="42.94267" lon="-0.8486922">
<ele>1729</ele>
<time>2014-10-04T13:09:24Z</time>
</trkpt>
<trkpt lat="42.94261" lon="-0.8488539">
<ele>1728</ele>
<time>2014-10-04T13:09:26Z</time>
</trkpt>
<trkpt lat="42.942547" lon="-0.84901756">
<ele>1727</ele>
<time>2014-10-04T13:09:28Z</time>
</trkpt>
<trkpt lat="42.942524" lon="-0.8492145">
<ele>1726</ele>
<time>2014-10-04T13:09:30Z</time>
</trkpt>
<trkpt lat="42.942516" lon="-0.84938484">
<ele>1726</ele>
<time>2014-10-04T13:09:32Z</time>
</trkpt>
<trkpt lat="42.942566" lon="-0.8495883">
<ele>1724</ele>
<time>2014-10-04T13:09:34Z</time>
</trkpt>
<trkpt lat="42.9427" lon="-0.84977543">
<ele>1723</ele>
<time>2014-10-04T13:09:36Z</time>
</trkpt>
<trkpt lat="42.942837" lon="-0.8499324">
<ele>1726</ele>
<time>2014-10-04T13:09:38Z</time>
</trkpt>
<trkpt lat="42.942955" lon="-0.8501074">
<ele>1727</ele>
<time>2014-10-04T13:09:40Z</time>
</trkpt>
<trkpt lat="42.943077" lon="-0.850277">
<ele>1729</ele>
<time>2014-10-04T13:09:42Z</time>
</trkpt>
<trkpt lat="42.94316" lon="-0.85045254">
<ele>1730</ele>
<time>2014-10-04T13:09:44Z</time>
</trkpt>
<trkpt lat="42.94323" lon="-0.8506793">
<ele>1730</ele>
<time>2014-10-04T13:09:46Z</time>
</trkpt>
<trkpt lat="42.943268" lon="-0.8508556">
<ele>1731</ele>
<time>2014-10-04T13:09:48Z</time>
</trkpt>
<trkpt lat="42.943256" lon="-0.8509919">
<ele>1730</ele>
<time>2014-10-04T13:09:50Z</time>
</trkpt>
<trkpt lat="42.943203" lon="-0.8511412">
<ele>1727</ele>
<time>2014-10-04T13:09:52Z</time>
</trkpt>
<trkpt lat="42.943096" lon="-0.85133576">
<ele>1725</ele>
<time>2014-10-04T13:09:54Z</time>
</trkpt>
<trkpt lat="42.942955" lon="-0.8514742">
<ele>1726</ele>
<time>2014-10-04T13:09:56Z</time>
</trkpt>
<trkpt lat="42.94281" lon="-0.85156554">
<ele>1728</ele>
<time>2014-10-04T13:09:57Z</time>
</trkpt>
<trkpt lat="42.94268" lon="-0.8516471">
<ele>1728</ele>
<time>2014-10-04T13:09:59Z</time>
</trkpt>
<trkpt lat="42.942554" lon="-0.85171944">
<ele>1727</ele>
<time>2014-10-04T13:10:02Z</time>
</trkpt>
<trkpt lat="42.942394" lon="-0.8518505">
<ele>1728</ele>
<time>2014-10-04T13:10:04Z</time>
</trkpt>
<trkpt lat="42.94228" lon="-0.85200375">
<ele>1727</ele>
<time>2014-10-04T13:10:06Z</time>
</trkpt>
<trkpt lat="42.942177" lon="-0.8521301">
<ele>1730</ele>
<time>2014-10-04T13:10:08Z</time>
</trkpt>
<trkpt lat="42.942055" lon="-0.8522581">
<ele>1731</ele>
<time>2014-10-04T13:10:10Z</time>
</trkpt>
<trkpt lat="42.941887" lon="-0.85236055">
<ele>1730</ele>
<time>2014-10-04T13:10:12Z</time>
</trkpt>
<trkpt lat="42.941727" lon="-0.8524805">
<ele>1730</ele>
<time>2014-10-04T13:10:14Z</time>
</trkpt>
<trkpt lat="42.941647" lon="-0.852576">
<ele>1732</ele>
<time>2014-10-04T13:10:16Z</time>
</trkpt>
<trkpt lat="42.941532" lon="-0.8527494">
<ele>1733</ele>
<time>2014-10-04T13:10:18Z</time>
</trkpt>
<trkpt lat="42.941437" lon="-0.8529672">
<ele>1731</ele>
<time>2014-10-04T13:10:20Z</time>
</trkpt>
<trkpt lat="42.941383" lon="-0.85315025">
<ele>1733</ele>
<time>2014-10-04T13:10:22Z</time>
</trkpt>
<trkpt lat="42.941322" lon="-0.8533212">
<ele>1731</ele>
<time>2014-10-04T13:10:24Z</time>
</trkpt>
<trkpt lat="42.941216" lon="-0.8534881">
<ele>1728</ele>
<time>2014-10-04T13:10:26Z</time>
</trkpt>
<trkpt lat="42.94103" lon="-0.85354596">
<ele>1728</ele>
<time>2014-10-04T13:10:28Z</time>
</trkpt>
<trkpt lat="42.94089" lon="-0.85329115">
<ele>1725</ele>
<time>2014-10-04T13:10:30Z</time>
</trkpt>
<trkpt lat="42.94091" lon="-0.8529763">
<ele>1723</ele>
<time>2014-10-04T13:10:32Z</time>
</trkpt>
<trkpt lat="42.94106" lon="-0.85287696">
<ele>1722</ele>
<time>2014-10-04T13:10:34Z</time>
</trkpt>
<trkpt lat="42.941227" lon="-0.8528644">
<ele>1721</ele>
<time>2014-10-04T13:10:36Z</time>
</trkpt>
<trkpt lat="42.941364" lon="-0.8529792">
<ele>1721</ele>
<time>2014-10-04T13:10:38Z</time>
</trkpt>
<trkpt lat="42.9415" lon="-0.8530769">
<ele>1718</ele>
<time>2014-10-04T13:10:40Z</time>
</trkpt>
<trkpt lat="42.94162" lon="-0.8531652">
<ele>1716</ele>
<time>2014-10-04T13:10:42Z</time>
</trkpt>
<trkpt lat="42.941746" lon="-0.8532539">
<ele>1713</ele>
<time>2014-10-04T13:10:44Z</time>
</trkpt>
<trkpt lat="42.941868" lon="-0.85338646">
<ele>1708</ele>
<time>2014-10-04T13:10:46Z</time>
</trkpt>
<trkpt lat="42.941994" lon="-0.8535075">
<ele>1708</ele>
<time>2014-10-04T13:10:48Z</time>
</trkpt>
<trkpt lat="42.942116" lon="-0.853598">
<ele>1707</ele>
<time>2014-10-04T13:10:50Z</time>
</trkpt>
<trkpt lat="42.942226" lon="-0.85366267">
<ele>1705</ele>
<time>2014-10-04T13:10:52Z</time>
</trkpt>
<trkpt lat="42.94234" lon="-0.8537183">
<ele>1703</ele>
<time>2014-10-04T13:10:54Z</time>
</trkpt>
<trkpt lat="42.942524" lon="-0.853755">
<ele>1702</ele>
<time>2014-10-04T13:10:56Z</time>
</trkpt>
<trkpt lat="42.942722" lon="-0.8537712">
<ele>1702</ele>
<time>2014-10-04T13:10:58Z</time>
</trkpt>
<trkpt lat="42.942886" lon="-0.8537468">
<ele>1702</ele>
<time>2014-10-04T13:11:00Z</time>
</trkpt>
<trkpt lat="42.94305" lon="-0.85372305">
<ele>1701</ele>
<time>2014-10-04T13:11:01Z</time>
</trkpt>
<trkpt lat="42.943226" lon="-0.8538214">
<ele>1697</ele>
<time>2014-10-04T13:11:04Z</time>
</trkpt>
<trkpt lat="42.943417" lon="-0.85388607">
<ele>1696</ele>
<time>2014-10-04T13:11:06Z</time>
</trkpt>
<trkpt lat="42.943546" lon="-0.8540259">
<ele>1693</ele>
<time>2014-10-04T13:11:07Z</time>
</trkpt>
<trkpt lat="42.943676" lon="-0.8541635">
<ele>1686</ele>
<time>2014-10-04T13:11:10Z</time>
</trkpt>
<trkpt lat="42.94377" lon="-0.85431373">
<ele>1682</ele>
<time>2014-10-04T13:11:12Z</time>
</trkpt>
<trkpt lat="42.94386" lon="-0.85444754">
<ele>1679</ele>
<time>2014-10-04T13:11:14Z</time>
</trkpt>
<trkpt lat="42.943954" lon="-0.85460657">
<ele>1673</ele>
<time>2014-10-04T13:11:16Z</time>
</trkpt>
<trkpt lat="42.944054" lon="-0.85478234">
<ele>1669</ele>
<time>2014-10-04T13:11:18Z</time>
</trkpt>
<trkpt lat="42.944134" lon="-0.8549401">
<ele>1668</ele>
<time>2014-10-04T13:11:20Z</time>
</trkpt>
<trkpt lat="42.94421" lon="-0.85513693">
<ele>1665</ele>
<time>2014-10-04T13:11:22Z</time>
</trkpt>
<trkpt lat="42.94428" lon="-0.855297">
<ele>1664</ele>
<time>2014-10-04T13:11:24Z</time>
</trkpt>
<trkpt lat="42.944324" lon="-0.85544324">
<ele>1661</ele>
<time>2014-10-04T13:11:26Z</time>
</trkpt>
<trkpt lat="42.944405" lon="-0.8556171">
<ele>1656</ele>
<time>2014-10-04T13:11:28Z</time>
</trkpt>
<trkpt lat="42.944504" lon="-0.8557706">
<ele>1654</ele>
<time>2014-10-04T13:11:30Z</time>
</trkpt>
<trkpt lat="42.944588" lon="-0.855888">
<ele>1651</ele>
<time>2014-10-04T13:11:32Z</time>
</trkpt>
<trkpt lat="42.94468" lon="-0.85600686">
<ele>1649</ele>
<time>2014-10-04T13:11:34Z</time>
</trkpt>
<trkpt lat="42.944805" lon="-0.8561359">
<ele>1649</ele>
<time>2014-10-04T13:11:36Z</time>
</trkpt>
<trkpt lat="42.944927" lon="-0.8562808">
<ele>1649</ele>
<time>2014-10-04T13:11:38Z</time>
</trkpt>
<trkpt lat="42.945007" lon="-0.8564133">
<ele>1647</ele>
<time>2014-10-04T13:11:40Z</time>
</trkpt>
<trkpt lat="42.945114" lon="-0.856544">
<ele>1645</ele>
<time>2014-10-04T13:11:42Z</time>
</trkpt>
<trkpt lat="42.945274" lon="-0.85670817">
<ele>1639</ele>
<time>2014-10-04T13:11:44Z</time>
</trkpt>
<trkpt lat="42.945354" lon="-0.85687727">
<ele>1637</ele>
<time>2014-10-04T13:11:45Z</time>
</trkpt>
<trkpt lat="42.94545" lon="-0.85699296">
<ele>1632</ele>
<time>2014-10-04T13:11:48Z</time>
</trkpt>
<trkpt lat="42.945602" lon="-0.8570463">
<ele>1630</ele>
<time>2014-10-04T13:11:50Z</time>
</trkpt>
<trkpt lat="42.945763" lon="-0.85698897">
<ele>1627</ele>
<time>2014-10-04T13:11:52Z</time>
</trkpt>
<trkpt lat="42.945923" lon="-0.8568431">
<ele>1624</ele>
<time>2014-10-04T13:11:54Z</time>
</trkpt>
<trkpt lat="42.94605" lon="-0.8566754">
<ele>1622</ele>
<time>2014-10-04T13:11:56Z</time>
</trkpt>
<trkpt lat="42.94618" lon="-0.85640323">
<ele>1624</ele>
<time>2014-10-04T13:11:59Z</time>
</trkpt>
<trkpt lat="42.946293" lon="-0.8561857">
<ele>1623</ele>
<time>2014-10-04T13:12:00Z</time>
</trkpt>
<trkpt lat="42.94645" lon="-0.85594976">
<ele>1620</ele>
<time>2014-10-04T13:12:03Z</time>
</trkpt>
<trkpt lat="42.946598" lon="-0.8557388">
<ele>1617</ele>
<time>2014-10-04T13:12:05Z</time>
</trkpt>
<trkpt lat="42.946747" lon="-0.8555517">
<ele>1616</ele>
<time>2014-10-04T13:12:07Z</time>
</trkpt>
<trkpt lat="42.94696" lon="-0.8554096">
<ele>1614</ele>
<time>2014-10-04T13:12:09Z</time>
</trkpt>
<trkpt lat="42.947136" lon="-0.85530806">
<ele>1612</ele>
<time>2014-10-04T13:12:11Z</time>
</trkpt>
<trkpt lat="42.94733" lon="-0.85523313">
<ele>1610</ele>
<time>2014-10-04T13:12:13Z</time>
</trkpt>
<trkpt lat="42.947536" lon="-0.8552056">
<ele>1608</ele>
<time>2014-10-04T13:12:15Z</time>
</trkpt>
<trkpt lat="42.947823" lon="-0.85506064">
<ele>1606</ele>
<time>2014-10-04T13:12:18Z</time>
</trkpt>
<trkpt lat="42.94805" lon="-0.85492545">
<ele>1605</ele>
<time>2014-10-04T13:12:20Z</time>
</trkpt>
<trkpt lat="42.9482" lon="-0.85467196">
<ele>1605</ele>
<time>2014-10-04T13:12:22Z</time>
</trkpt>
<trkpt lat="42.9483" lon="-0.8543625">
<ele>1604</ele>
<time>2014-10-04T13:12:24Z</time>
</trkpt>
<trkpt lat="42.948353" lon="-0.8541622">
<ele>1601</ele>
<time>2014-10-04T13:12:26Z</time>
</trkpt>
<trkpt lat="42.948376" lon="-0.8538788">
<ele>1597</ele>
<time>2014-10-04T13:12:28Z</time>
</trkpt>
<trkpt lat="42.94837" lon="-0.8536202">
<ele>1596</ele>
<time>2014-10-04T13:12:30Z</time>
</trkpt>
<trkpt lat="42.948402" lon="-0.8533989">
<ele>1593</ele>
<time>2014-10-04T13:12:32Z</time>
</trkpt>
<trkpt lat="42.948437" lon="-0.8531627">
<ele>1589</ele>
<time>2014-10-04T13:12:34Z</time>
</trkpt>
<trkpt lat="42.948456" lon="-0.85288984">
<ele>1587</ele>
<time>2014-10-04T13:12:36Z</time>
</trkpt>
<trkpt lat="42.94848" lon="-0.8526529">
<ele>1586</ele>
<time>2014-10-04T13:12:38Z</time>
</trkpt>
<trkpt lat="42.948486" lon="-0.85241985">
<ele>1582</ele>
<time>2014-10-04T13:12:40Z</time>
</trkpt>
<trkpt lat="42.94849" lon="-0.85217637">
<ele>1580</ele>
<time>2014-10-04T13:12:42Z</time>
</trkpt>
<trkpt lat="42.9485" lon="-0.8519556">
<ele>1576</ele>
<time>2014-10-04T13:12:44Z</time>
</trkpt>
<trkpt lat="42.948475" lon="-0.85171384">
<ele>1572</ele>
<time>2014-10-04T13:12:46Z</time>
</trkpt>
<trkpt lat="42.948433" lon="-0.8514885">
<ele>1572</ele>
<time>2014-10-04T13:12:48Z</time>
</trkpt>
<trkpt lat="42.948376" lon="-0.8513031">
<ele>1569</ele>
<time>2014-10-04T13:12:50Z</time>
</trkpt>
<trkpt lat="42.9483" lon="-0.85107994">
<ele>1567</ele>
<time>2014-10-04T13:12:52Z</time>
</trkpt>
<trkpt lat="42.948196" lon="-0.8508939">
<ele>1566</ele>
<time>2014-10-04T13:12:54Z</time>
</trkpt>
<trkpt lat="42.94809" lon="-0.85071146">
<ele>1566</ele>
<time>2014-10-04T13:12:56Z</time>
</trkpt>
<trkpt lat="42.948006" lon="-0.85051113">
<ele>1566</ele>
<time>2014-10-04T13:12:58Z</time>
</trkpt>
<trkpt lat="42.947884" lon="-0.8504173">
<ele>1563</ele>
<time>2014-10-04T13:13:00Z</time>
</trkpt>
<trkpt lat="42.947792" lon="-0.8502452">
<ele>1560</ele>
<time>2014-10-04T13:13:02Z</time>
</trkpt>
<trkpt lat="42.947712" lon="-0.85004187">
<ele>1559</ele>
<time>2014-10-04T13:13:04Z</time>
</trkpt>
<trkpt lat="42.947655" lon="-0.8498241">
<ele>1559</ele>
<time>2014-10-04T13:13:06Z</time>
</trkpt>
<trkpt lat="42.94759" lon="-0.8495785">
<ele>1557</ele>
<time>2014-10-04T13:13:08Z</time>
</trkpt>
<trkpt lat="42.947556" lon="-0.84933054">
<ele>1556</ele>
<time>2014-10-04T13:13:10Z</time>
</trkpt>
<trkpt lat="42.947506" lon="-0.84910524">
<ele>1554</ele>
<time>2014-10-04T13:13:12Z</time>
</trkpt>
<trkpt lat="42.94744" lon="-0.84888333">
<ele>1553</ele>
<time>2014-10-04T13:13:14Z</time>
</trkpt>
<trkpt lat="42.947323" lon="-0.8487087">
<ele>1553</ele>
<time>2014-10-04T13:13:15Z</time>
</trkpt>
<trkpt lat="42.94725" lon="-0.8485319">
<ele>1555</ele>
<time>2014-10-04T13:13:18Z</time>
</trkpt>
<trkpt lat="42.9472" lon="-0.848327">
<ele>1550</ele>
<time>2014-10-04T13:13:20Z</time>
</trkpt>
<trkpt lat="42.9471" lon="-0.84809667">
<ele>1549</ele>
<time>2014-10-04T13:13:22Z</time>
</trkpt>
<trkpt lat="42.946987" lon="-0.8479234">
<ele>1547</ele>
<time>2014-10-04T13:13:24Z</time>
</trkpt>
<trkpt lat="42.946857" lon="-0.84784544">
<ele>1547</ele>
<time>2014-10-04T13:13:25Z</time>
</trkpt>
<trkpt lat="42.946716" lon="-0.84773374">
<ele>1544</ele>
<time>2014-10-04T13:13:28Z</time>
</trkpt>
<trkpt lat="42.946606" lon="-0.8475638">
<ele>1543</ele>
<time>2014-10-04T13:13:30Z</time>
</trkpt>
<trkpt lat="42.946545" lon="-0.8473514">
<ele>1544</ele>
<time>2014-10-04T13:13:32Z</time>
</trkpt>
<trkpt lat="42.946484" lon="-0.84710044">
<ele>1542</ele>
<time>2014-10-04T13:13:34Z</time>
</trkpt>
<trkpt lat="42.94643" lon="-0.84686923">
<ele>1541</ele>
<time>2014-10-04T13:13:36Z</time>
</trkpt>
<trkpt lat="42.946396" lon="-0.8466537">
<ele>1539</ele>
<time>2014-10-04T13:13:38Z</time>
</trkpt>
<trkpt lat="42.946323" lon="-0.8464238">
<ele>1535</ele>
<time>2014-10-04T13:13:40Z</time>
</trkpt>
<trkpt lat="42.9462" lon="-0.846337">
<ele>1537</ele>
<time>2014-10-04T13:13:42Z</time>
</trkpt>
<trkpt lat="42.94606" lon="-0.84626746">
<ele>1536</ele>
<time>2014-10-04T13:13:44Z</time>
</trkpt>
<trkpt lat="42.945927" lon="-0.8462926">
<ele>1534</ele>
<time>2014-10-04T13:13:46Z</time>
</trkpt>
<trkpt lat="42.945824" lon="-0.8463365">
<ele>1535</ele>
<time>2014-10-04T13:13:47Z</time>
</trkpt>
<trkpt lat="42.94567" lon="-0.84630114">
<ele>1534</ele>
<time>2014-10-04T13:13:50Z</time>
</trkpt>
<trkpt lat="42.945522" lon="-0.84624064">
<ele>1535</ele>
<time>2014-10-04T13:13:52Z</time>
</trkpt>
<trkpt lat="42.945423" lon="-0.84614795">
<ele>1535</ele>
<time>2014-10-04T13:13:54Z</time>
</trkpt>
<trkpt lat="42.945305" lon="-0.84603584">
<ele>1535</ele>
<time>2014-10-04T13:13:55Z</time>
</trkpt>
<trkpt lat="42.945156" lon="-0.84595144">
<ele>1536</ele>
<time>2014-10-04T13:13:59Z</time>
</trkpt>
<trkpt lat="42.944912" lon="-0.845897">
<ele>1537</ele>
<time>2014-10-04T13:14:02Z</time>
</trkpt>
<trkpt lat="42.94468" lon="-0.8459415">
<ele>1536</ele>
<time>2014-10-04T13:14:04Z</time>
</trkpt>
<trkpt lat="42.94454" lon="-0.84592664">
<ele>1534</ele>
<time>2014-10-04T13:14:06Z</time>
</trkpt>
<trkpt lat="42.9444" lon="-0.84591526">
<ele>1533</ele>
<time>2014-10-04T13:14:08Z</time>
</trkpt>
<trkpt lat="42.944283" lon="-0.8458744">
<ele>1532</ele>
<time>2014-10-04T13:14:10Z</time>
</trkpt>
<trkpt lat="42.94416" lon="-0.8458288">
<ele>1529</ele>
<time>2014-10-04T13:14:12Z</time>
</trkpt>
<trkpt lat="42.944046" lon="-0.84574884">
<ele>1529</ele>
<time>2014-10-04T13:14:14Z</time>
</trkpt>
<trkpt lat="42.943935" lon="-0.84565806">
<ele>1528</ele>
<time>2014-10-04T13:14:16Z</time>
</trkpt>
<trkpt lat="42.943848" lon="-0.8456079">
<ele>1528</ele>
<time>2014-10-04T13:14:18Z</time>
</trkpt>
<trkpt lat="42.943676" lon="-0.84574443">
<ele>1525</ele>
<time>2014-10-04T13:14:20Z</time>
</trkpt>
<trkpt lat="42.943546" lon="-0.845763">
<ele>1527</ele>
<time>2014-10-04T13:14:22Z</time>
</trkpt>
<trkpt lat="42.943356" lon="-0.8458322">
<ele>1529</ele>
<time>2014-10-04T13:14:24Z</time>
</trkpt>
<trkpt lat="42.943237" lon="-0.8458506">
<ele>1530</ele>
<time>2014-10-04T13:14:26Z</time>
</trkpt>
<trkpt lat="42.94311" lon="-0.84588647">
<ele>1529</ele>
<time>2014-10-04T13:14:28Z</time>
</trkpt>
<trkpt lat="42.942966" lon="-0.8459218">
<ele>1533</ele>
<time>2014-10-04T13:14:30Z</time>
</trkpt>
<trkpt lat="42.942875" lon="-0.8459387">
<ele>1533</ele>
<time>2014-10-04T13:14:32Z</time>
</trkpt>
<trkpt lat="42.942757" lon="-0.8459139">
<ele>1532</ele>
<time>2014-10-04T13:14:34Z</time>
</trkpt>
<trkpt lat="42.94265" lon="-0.8458645">
<ele>1531</ele>
<time>2014-10-04T13:14:36Z</time>
</trkpt>
<trkpt lat="42.942547" lon="-0.84585834">
<ele>1532</ele>
<time>2014-10-04T13:14:38Z</time>
</trkpt>
<trkpt lat="42.942436" lon="-0.8458678">
<ele>1531</ele>
<time>2014-10-04T13:14:40Z</time>
</trkpt>
<trkpt lat="42.94232" lon="-0.84588397">
<ele>1531</ele>
<time>2014-10-04T13:14:42Z</time>
</trkpt>
<trkpt lat="42.942238" lon="-0.8459602">
<ele>1530</ele>
<time>2014-10-04T13:14:44Z</time>
</trkpt>
<trkpt lat="42.9422" lon="-0.84614676">
<ele>1532</ele>
<time>2014-10-04T13:14:46Z</time>
</trkpt>
<trkpt lat="42.942204" lon="-0.8462677">
<ele>1538</ele>
<time>2014-10-04T13:14:48Z</time>
</trkpt>
<trkpt lat="42.942204" lon="-0.846436">
<ele>1540</ele>
<time>2014-10-04T13:14:50Z</time>
</trkpt>
<trkpt lat="42.94219" lon="-0.8465945">
<ele>1542</ele>
<time>2014-10-04T13:14:52Z</time>
</trkpt>
<trkpt lat="42.942142" lon="-0.84674644">
<ele>1542</ele>
<time>2014-10-04T13:14:54Z</time>
</trkpt>
<trkpt lat="42.94208" lon="-0.84687704">
<ele>1542</ele>
<time>2014-10-04T13:14:56Z</time>
</trkpt>
<trkpt lat="42.94195" lon="-0.8469268">
<ele>1538</ele>
<time>2014-10-04T13:14:58Z</time>
</trkpt>
<trkpt lat="42.94181" lon="-0.8469512">
<ele>1536</ele>
<time>2014-10-04T13:15:00Z</time>
</trkpt>
<trkpt lat="42.94168" lon="-0.8469644">
<ele>1536</ele>
<time>2014-10-04T13:15:02Z</time>
</trkpt>
<trkpt lat="42.9416" lon="-0.84702307">
<ele>1536</ele>
<time>2014-10-04T13:15:04Z</time>
</trkpt>
<trkpt lat="42.941486" lon="-0.8471487">
<ele>1534</ele>
<time>2014-10-04T13:15:06Z</time>
</trkpt>
<trkpt lat="42.9414" lon="-0.8472544">
<ele>1534</ele>
<time>2014-10-04T13:15:08Z</time>
</trkpt>
<trkpt lat="42.941315" lon="-0.847352">
<ele>1533</ele>
<time>2014-10-04T13:15:10Z</time>
</trkpt>
<trkpt lat="42.941185" lon="-0.84738237">
<ele>1529</ele>
<time>2014-10-04T13:15:12Z</time>
</trkpt>
<trkpt lat="42.941086" lon="-0.8472706">
<ele>1526</ele>
<time>2014-10-04T13:15:14Z</time>
</trkpt>
<trkpt lat="42.941055" lon="-0.84708464">
<ele>1525</ele>
<time>2014-10-04T13:15:16Z</time>
</trkpt>
<trkpt lat="42.94105" lon="-0.8468638">
<ele>1525</ele>
<time>2014-10-04T13:15:18Z</time>
</trkpt>
<trkpt lat="42.941162" lon="-0.8466568">
<ele>1526</ele>
<time>2014-10-04T13:15:20Z</time>
</trkpt>
<trkpt lat="42.94144" lon="-0.8466258">
<ele>1526</ele>
<time>2014-10-04T13:15:22Z</time>
</trkpt>
<trkpt lat="42.941647" lon="-0.8466735">
<ele>1524</ele>
<time>2014-10-04T13:15:24Z</time>
</trkpt>
<trkpt lat="42.941803" lon="-0.84682655">
<ele>1524</ele>
<time>2014-10-04T13:15:26Z</time>
</trkpt>
<trkpt lat="42.941917" lon="-0.84697634">
<ele>1521</ele>
<time>2014-10-04T13:15:28Z</time>
</trkpt>
<trkpt lat="42.942062" lon="-0.8471391">
<ele>1516</ele>
<time>2014-10-04T13:15:30Z</time>
</trkpt>
<trkpt lat="42.942253" lon="-0.84723705">
<ele>1515</ele>
<time>2014-10-04T13:15:32Z</time>
</trkpt>
<trkpt lat="42.94242" lon="-0.8473016">
<ele>1514</ele>
<time>2014-10-04T13:15:34Z</time>
</trkpt>
<trkpt lat="42.942608" lon="-0.8472861">
<ele>1513</ele>
<time>2014-10-04T13:15:36Z</time>
</trkpt>
<trkpt lat="42.942783" lon="-0.8471236">
<ele>1512</ele>
<time>2014-10-04T13:15:38Z</time>
</trkpt>
<trkpt lat="42.942814" lon="-0.8469071">
<ele>1509</ele>
<time>2014-10-04T13:15:40Z</time>
</trkpt>
<trkpt lat="42.942787" lon="-0.8466806">
<ele>1505</ele>
<time>2014-10-04T13:15:42Z</time>
</trkpt>
<trkpt lat="42.942734" lon="-0.8465662">
<ele>1501</ele>
<time>2014-10-04T13:15:44Z</time>
</trkpt>
<trkpt lat="42.942635" lon="-0.8464711">
<ele>1499</ele>
<time>2014-10-04T13:15:46Z</time>
</trkpt>
<trkpt lat="42.942467" lon="-0.8464315">
<ele>1500</ele>
<time>2014-10-04T13:15:48Z</time>
</trkpt>
<trkpt lat="42.94235" lon="-0.846415">
<ele>1503</ele>
<time>2014-10-04T13:15:50Z</time>
</trkpt>
<trkpt lat="42.942265" lon="-0.8463658">
<ele>1504</ele>
<time>2014-10-04T13:15:52Z</time>
</trkpt>
<trkpt lat="42.942146" lon="-0.8462643">
<ele>1504</ele>
<time>2014-10-04T13:15:54Z</time>
</trkpt>
<trkpt lat="42.942062" lon="-0.84611607">
<ele>1505</ele>
<time>2014-10-04T13:15:56Z</time>
</trkpt>
<trkpt lat="42.941975" lon="-0.8459812">
<ele>1504</ele>
<time>2014-10-04T13:15:58Z</time>
</trkpt>
<trkpt lat="42.941875" lon="-0.84581035">
<ele>1504</ele>
<time>2014-10-04T13:16:00Z</time>
</trkpt>
<trkpt lat="42.941772" lon="-0.8456344">
<ele>1504</ele>
<time>2014-10-04T13:16:02Z</time>
</trkpt>
<trkpt lat="42.94164" lon="-0.8455482">
<ele>1503</ele>
<time>2014-10-04T13:16:04Z</time>
</trkpt>
<trkpt lat="42.941505" lon="-0.845493">
<ele>1504</ele>
<time>2014-10-04T13:16:06Z</time>
</trkpt>
<trkpt lat="42.94143" lon="-0.8454297">
<ele>1507</ele>
<time>2014-10-04T13:16:08Z</time>
</trkpt>
<trkpt lat="42.941345" lon="-0.8453337">
<ele>1509</ele>
<time>2014-10-04T13:16:10Z</time>
</trkpt>
<trkpt lat="42.941257" lon="-0.84526">
<ele>1509</ele>
<time>2014-10-04T13:16:12Z</time>
</trkpt>
<trkpt lat="42.941128" lon="-0.8452826">
<ele>1508</ele>
<time>2014-10-04T13:16:14Z</time>
</trkpt>
<trkpt lat="42.941006" lon="-0.8454185">
<ele>1508</ele>
<time>2014-10-04T13:16:16Z</time>
</trkpt>
<trkpt lat="42.94096" lon="-0.84558517">
<ele>1507</ele>
<time>2014-10-04T13:16:18Z</time>
</trkpt>
<trkpt lat="42.940933" lon="-0.84577364">
<ele>1506</ele>
<time>2014-10-04T13:16:20Z</time>
</trkpt>
<trkpt lat="42.940983" lon="-0.8459659">
<ele>1505</ele>
<time>2014-10-04T13:16:22Z</time>
</trkpt>
<trkpt lat="42.94103" lon="-0.84613633">
<ele>1504</ele>
<time>2014-10-04T13:16:24Z</time>
</trkpt>
<trkpt lat="42.941074" lon="-0.8463205">
<ele>1504</ele>
<time>2014-10-04T13:16:26Z</time>
</trkpt>
<trkpt lat="42.941223" lon="-0.84646">
<ele>1501</ele>
<time>2014-10-04T13:16:28Z</time>
</trkpt>
<trkpt lat="42.941372" lon="-0.8465857">
<ele>1502</ele>
<time>2014-10-04T13:16:30Z</time>
</trkpt>
<trkpt lat="42.941525" lon="-0.8467475">
<ele>1502</ele>
<time>2014-10-04T13:16:32Z</time>
</trkpt>
<trkpt lat="42.941673" lon="-0.8469361">
<ele>1499</ele>
<time>2014-10-04T13:16:34Z</time>
</trkpt>
<trkpt lat="42.94167" lon="-0.8471912">
<ele>1499</ele>
<time>2014-10-04T13:16:36Z</time>
</trkpt>
<trkpt lat="42.941708" lon="-0.84736514">
<ele>1499</ele>
<time>2014-10-04T13:16:38Z</time>
</trkpt>
<trkpt lat="42.94172" lon="-0.8475713">
<ele>1496</ele>
<time>2014-10-04T13:16:40Z</time>
</trkpt>
<trkpt lat="42.941727" lon="-0.84779805">
<ele>1494</ele>
<time>2014-10-04T13:16:42Z</time>
</trkpt>
<trkpt lat="42.94166" lon="-0.84798956">
<ele>1493</ele>
<time>2014-10-04T13:16:44Z</time>
</trkpt>
<trkpt lat="42.941517" lon="-0.84806496">
<ele>1491</ele>
<time>2014-10-04T13:16:46Z</time>
</trkpt>
<trkpt lat="42.941372" lon="-0.8479896">
<ele>1494</ele>
<time>2014-10-04T13:16:48Z</time>
</trkpt>
<trkpt lat="42.941326" lon="-0.8477408">
<ele>1493</ele>
<time>2014-10-04T13:16:50Z</time>
</trkpt>
<trkpt lat="42.94133" lon="-0.8474871">
<ele>1493</ele>
<time>2014-10-04T13:16:52Z</time>
</trkpt>
<trkpt lat="42.941425" lon="-0.8472833">
<ele>1493</ele>
<time>2014-10-04T13:16:54Z</time>
</trkpt>
<trkpt lat="42.941463" lon="-0.84705067">
<ele>1490</ele>
<time>2014-10-04T13:16:56Z</time>
</trkpt>
<trkpt lat="42.941483" lon="-0.84678686">
<ele>1490</ele>
<time>2014-10-04T13:16:58Z</time>
</trkpt>
<trkpt lat="42.941467" lon="-0.8465623">
<ele>1491</ele>
<time>2014-10-04T13:17:00Z</time>
</trkpt>
<trkpt lat="42.94143" lon="-0.8463719">
<ele>1490</ele>
<time>2014-10-04T13:17:02Z</time>
</trkpt>
<trkpt lat="42.941387" lon="-0.8461472">
<ele>1489</ele>
<time>2014-10-04T13:17:04Z</time>
</trkpt>
<trkpt lat="42.94133" lon="-0.8459334">
<ele>1489</ele>
<time>2014-10-04T13:17:06Z</time>
</trkpt>
<trkpt lat="42.941277" lon="-0.8457329">
<ele>1487</ele>
<time>2014-10-04T13:17:08Z</time>
</trkpt>
<trkpt lat="42.941235" lon="-0.8455304">
<ele>1486</ele>
<time>2014-10-04T13:17:10Z</time>
</trkpt>
<trkpt lat="42.941185" lon="-0.8453313">
<ele>1484</ele>
<time>2014-10-04T13:17:12Z</time>
</trkpt>
<trkpt lat="42.941154" lon="-0.8451243">
<ele>1483</ele>
<time>2014-10-04T13:17:13Z</time>
</trkpt>
<trkpt lat="42.941113" lon="-0.8449011">
<ele>1482</ele>
<time>2014-10-04T13:17:16Z</time>
</trkpt>
<trkpt lat="42.94103" lon="-0.8447264">
<ele>1482</ele>
<time>2014-10-04T13:17:17Z</time>
</trkpt>
<trkpt lat="42.940975" lon="-0.84459704">
<ele>1482</ele>
<time>2014-10-04T13:17:20Z</time>
</trkpt>
<trkpt lat="42.940823" lon="-0.84452766">
<ele>1478</ele>
<time>2014-10-04T13:17:22Z</time>
</trkpt>
<trkpt lat="42.940727" lon="-0.8444325">
<ele>1477</ele>
<time>2014-10-04T13:17:24Z</time>
</trkpt>
<trkpt lat="42.94061" lon="-0.844345">
<ele>1476</ele>
<time>2014-10-04T13:17:26Z</time>
</trkpt>
<trkpt lat="42.940464" lon="-0.8443154">
<ele>1471</ele>
<time>2014-10-04T13:17:28Z</time>
</trkpt>
<trkpt lat="42.94034" lon="-0.8442602">
<ele>1468</ele>
<time>2014-10-04T13:17:30Z</time>
</trkpt>
<trkpt lat="42.940212" lon="-0.8441663">
<ele>1467</ele>
<time>2014-10-04T13:17:32Z</time>
</trkpt>
<trkpt lat="42.94013" lon="-0.84399647">
<ele>1463</ele>
<time>2014-10-04T13:17:34Z</time>
</trkpt>
<trkpt lat="42.94004" lon="-0.8438135">
<ele>1460</ele>
<time>2014-10-04T13:17:36Z</time>
</trkpt>
<trkpt lat="42.939957" lon="-0.843632">
<ele>1458</ele>
<time>2014-10-04T13:17:38Z</time>
</trkpt>
<trkpt lat="42.93991" lon="-0.84341455">
<ele>1456</ele>
<time>2014-10-04T13:17:40Z</time>
</trkpt>
<trkpt lat="42.93988" lon="-0.8431874">
<ele>1454</ele>
<time>2014-10-04T13:17:42Z</time>
</trkpt>
<trkpt lat="42.93993" lon="-0.8429318">
<ele>1454</ele>
<time>2014-10-04T13:17:44Z</time>
</trkpt>
<trkpt lat="42.940006" lon="-0.8426979">
<ele>1451</ele>
<time>2014-10-04T13:17:45Z</time>
</trkpt>
<trkpt lat="42.940063" lon="-0.84245837">
<ele>1449</ele>
<time>2014-10-04T13:17:48Z</time>
</trkpt>
<trkpt lat="42.94006" lon="-0.8422287">
<ele>1445</ele>
<time>2014-10-04T13:17:50Z</time>
</trkpt>
<trkpt lat="42.940014" lon="-0.8420215">
<ele>1443</ele>
<time>2014-10-04T13:17:52Z</time>
</trkpt>
<trkpt lat="42.939957" lon="-0.8418275">
<ele>1440</ele>
<time>2014-10-04T13:17:54Z</time>
</trkpt>
<trkpt lat="42.939926" lon="-0.84160125">
<ele>1437</ele>
<time>2014-10-04T13:17:56Z</time>
</trkpt>
<trkpt lat="42.939915" lon="-0.8413739">
<ele>1435</ele>
<time>2014-10-04T13:17:58Z</time>
</trkpt>
<trkpt lat="42.939907" lon="-0.84116">
<ele>1432</ele>
<time>2014-10-04T13:18:00Z</time>
</trkpt>
<trkpt lat="42.93986" lon="-0.8409387">
<ele>1428</ele>
<time>2014-10-04T13:18:02Z</time>
</trkpt>
<trkpt lat="42.9398" lon="-0.84072">
<ele>1426</ele>
<time>2014-10-04T13:18:04Z</time>
</trkpt>
<trkpt lat="42.93978" lon="-0.84047633">
<ele>1427</ele>
<time>2014-10-04T13:18:06Z</time>
</trkpt>
<trkpt lat="42.93977" lon="-0.8402442">
<ele>1428</ele>
<time>2014-10-04T13:18:08Z</time>
</trkpt>
<trkpt lat="42.93977" lon="-0.8400364">
<ele>1428</ele>
<time>2014-10-04T13:18:10Z</time>
</trkpt>
<trkpt lat="42.939754" lon="-0.83980983">
<ele>1426</ele>
<time>2014-10-04T13:18:12Z</time>
</trkpt>
<trkpt lat="42.9397" lon="-0.8395828">
<ele>1427</ele>
<time>2014-10-04T13:18:14Z</time>
</trkpt>
<trkpt lat="42.939674" lon="-0.8394028">
<ele>1425</ele>
<time>2014-10-04T13:18:16Z</time>
</trkpt>
<trkpt lat="42.939644" lon="-0.8392008">
<ele>1421</ele>
<time>2014-10-04T13:18:18Z</time>
</trkpt>
<trkpt lat="42.939575" lon="-0.83896446">
<ele>1419</ele>
<time>2014-10-04T13:18:20Z</time>
</trkpt>
<trkpt lat="42.93952" lon="-0.83876187">
<ele>1419</ele>
<time>2014-10-04T13:18:22Z</time>
</trkpt>
<trkpt lat="42.939533" lon="-0.838555">
<ele>1416</ele>
<time>2014-10-04T13:18:24Z</time>
</trkpt>
<trkpt lat="42.93953" lon="-0.8383156">
<ele>1415</ele>
<time>2014-10-04T13:18:26Z</time>
</trkpt>
<trkpt lat="42.939518" lon="-0.8380861">
<ele>1416</ele>
<time>2014-10-04T13:18:28Z</time>
</trkpt>
<trkpt lat="42.9395" lon="-0.83787674">
<ele>1416</ele>
<time>2014-10-04T13:18:30Z</time>
</trkpt>
<trkpt lat="42.939476" lon="-0.83765084">
<ele>1415</ele>
<time>2014-10-04T13:18:32Z</time>
</trkpt>
<trkpt lat="42.93944" lon="-0.8373986">
<ele>1414</ele>
<time>2014-10-04T13:18:34Z</time>
</trkpt>
<trkpt lat="42.939396" lon="-0.83720505">
<ele>1413</ele>
<time>2014-10-04T13:18:36Z</time>
</trkpt>
<trkpt lat="42.93933" lon="-0.83714366">
<ele>1412</ele>
<time>2014-10-04T13:18:38Z</time>
</trkpt>
<trkpt lat="42.93923" lon="-0.83742326">
<ele>1410</ele>
<time>2014-10-04T13:18:40Z</time>
</trkpt>
<trkpt lat="42.939236" lon="-0.8376574">
<ele>1408</ele>
<time>2014-10-04T13:18:42Z</time>
</trkpt>
<trkpt lat="42.9393" lon="-0.8378356">
<ele>1407</ele>
<time>2014-10-04T13:18:44Z</time>
</trkpt>
<trkpt lat="42.939354" lon="-0.83803904">
<ele>1405</ele>
<time>2014-10-04T13:18:46Z</time>
</trkpt>
<trkpt lat="42.93937" lon="-0.83826715">
<ele>1403</ele>
<time>2014-10-04T13:18:48Z</time>
</trkpt>
<trkpt lat="42.939384" lon="-0.8384619">
<ele>1403</ele>
<time>2014-10-04T13:18:50Z</time>
</trkpt>
<trkpt lat="42.939365" lon="-0.8386611">
<ele>1401</ele>
<time>2014-10-04T13:18:52Z</time>
</trkpt>
<trkpt lat="42.939358" lon="-0.8388704">
<ele>1401</ele>
<time>2014-10-04T13:18:54Z</time>
</trkpt>
<trkpt lat="42.939358" lon="-0.8390621">
<ele>1401</ele>
<time>2014-10-04T13:18:56Z</time>
</trkpt>
<trkpt lat="42.939407" lon="-0.83926886">
<ele>1400</ele>
<time>2014-10-04T13:18:58Z</time>
</trkpt>
<trkpt lat="42.939476" lon="-0.839459">
<ele>1399</ele>
<time>2014-10-04T13:19:00Z</time>
</trkpt>
<trkpt lat="42.93954" lon="-0.83965284">
<ele>1399</ele>
<time>2014-10-04T13:19:02Z</time>
</trkpt>
<trkpt lat="42.939613" lon="-0.8398468">
<ele>1396</ele>
<time>2014-10-04T13:19:04Z</time>
</trkpt>
<trkpt lat="42.939693" lon="-0.840086">
<ele>1396</ele>
<time>2014-10-04T13:19:06Z</time>
</trkpt>
<trkpt lat="42.93975" lon="-0.8402879">
<ele>1396</ele>
<time>2014-10-04T13:19:08Z</time>
</trkpt>
<trkpt lat="42.939762" lon="-0.8404678">
<ele>1392</ele>
<time>2014-10-04T13:19:10Z</time>
</trkpt>
<trkpt lat="42.939827" lon="-0.8406877">
<ele>1389</ele>
<time>2014-10-04T13:19:12Z</time>
</trkpt>
<trkpt lat="42.939884" lon="-0.8409076">
<ele>1387</ele>
<time>2014-10-04T13:19:14Z</time>
</trkpt>
<trkpt lat="42.939823" lon="-0.8410966">
<ele>1383</ele>
<time>2014-10-04T13:19:16Z</time>
</trkpt>
<trkpt lat="42.93969" lon="-0.8412242">
<ele>1380</ele>
<time>2014-10-04T13:19:18Z</time>
</trkpt>
<trkpt lat="42.939545" lon="-0.84132105">
<ele>1379</ele>
<time>2014-10-04T13:19:20Z</time>
</trkpt>
<trkpt lat="42.939392" lon="-0.841417">
<ele>1378</ele>
<time>2014-10-04T13:19:22Z</time>
</trkpt>
<trkpt lat="42.93921" lon="-0.8415558">
<ele>1377</ele>
<time>2014-10-04T13:19:24Z</time>
</trkpt>
<trkpt lat="42.939053" lon="-0.84159875">
<ele>1379</ele>
<time>2014-10-04T13:19:26Z</time>
</trkpt>
<trkpt lat="42.938885" lon="-0.8415548">
<ele>1377</ele>
<time>2014-10-04T13:19:28Z</time>
</trkpt>
<trkpt lat="42.93873" lon="-0.8414745">
<ele>1377</ele>
<time>2014-10-04T13:19:30Z</time>
</trkpt>
<trkpt lat="42.9386" lon="-0.8413509">
<ele>1377</ele>
<time>2014-10-04T13:19:32Z</time>
</trkpt>
<trkpt lat="42.938457" lon="-0.8412602">
<ele>1377</ele>
<time>2014-10-04T13:19:34Z</time>
</trkpt>
<trkpt lat="42.938305" lon="-0.8412458">
<ele>1377</ele>
<time>2014-10-04T13:19:36Z</time>
</trkpt>
<trkpt lat="42.938152" lon="-0.84129816">
<ele>1377</ele>
<time>2014-10-04T13:19:38Z</time>
</trkpt>
<trkpt lat="42.938" lon="-0.84141535">
<ele>1377</ele>
<time>2014-10-04T13:19:40Z</time>
</trkpt>
<trkpt lat="42.93795" lon="-0.84158957">
<ele>1379</ele>
<time>2014-10-04T13:19:42Z</time>
</trkpt>
<trkpt lat="42.93793" lon="-0.8417881">
<ele>1378</ele>
<time>2014-10-04T13:19:44Z</time>
</trkpt>
<trkpt lat="42.93793" lon="-0.842039">
<ele>1377</ele>
<time>2014-10-04T13:19:46Z</time>
</trkpt>
<trkpt lat="42.93797" lon="-0.84226745">
<ele>1376</ele>
<time>2014-10-04T13:19:48Z</time>
</trkpt>
<trkpt lat="42.938118" lon="-0.842344">
<ele>1374</ele>
<time>2014-10-04T13:19:50Z</time>
</trkpt>
<trkpt lat="42.938244" lon="-0.8424309">
<ele>1372</ele>
<time>2014-10-04T13:19:51Z</time>
</trkpt>
<trkpt lat="42.938393" lon="-0.8423372">
<ele>1372</ele>
<time>2014-10-04T13:19:54Z</time>
</trkpt>
<trkpt lat="42.938507" lon="-0.8419914">
<ele>1371</ele>
<time>2014-10-04T13:19:56Z</time>
</trkpt>
<trkpt lat="42.938583" lon="-0.8417624">
<ele>1373</ele>
<time>2014-10-04T13:19:57Z</time>
</trkpt>
<trkpt lat="42.938637" lon="-0.84155136">
<ele>1373</ele>
<time>2014-10-04T13:20:00Z</time>
</trkpt>
<trkpt lat="42.93863" lon="-0.8413272">
<ele>1373</ele>
<time>2014-10-04T13:20:02Z</time>
</trkpt>
<trkpt lat="42.938526" lon="-0.8411631">
<ele>1376</ele>
<time>2014-10-04T13:20:04Z</time>
</trkpt>
<trkpt lat="42.938416" lon="-0.84104234">
<ele>1377</ele>
<time>2014-10-04T13:20:06Z</time>
</trkpt>
<trkpt lat="42.93829" lon="-0.84093904">
<ele>1378</ele>
<time>2014-10-04T13:20:08Z</time>
</trkpt>
<trkpt lat="42.93812" lon="-0.8409092">
<ele>1379</ele>
<time>2014-10-04T13:20:10Z</time>
</trkpt>
<trkpt lat="42.937973" lon="-0.8409087">
<ele>1379</ele>
<time>2014-10-04T13:20:12Z</time>
</trkpt>
<trkpt lat="42.93783" lon="-0.8410262">
<ele>1379</ele>
<time>2014-10-04T13:20:14Z</time>
</trkpt>
<trkpt lat="42.93776" lon="-0.84121495">
<ele>1382</ele>
<time>2014-10-04T13:20:16Z</time>
</trkpt>
<trkpt lat="42.937706" lon="-0.8414188">
<ele>1382</ele>
<time>2014-10-04T13:20:18Z</time>
</trkpt>
<trkpt lat="42.93769" lon="-0.8416196">
<ele>1383</ele>
<time>2014-10-04T13:20:20Z</time>
</trkpt>
<trkpt lat="42.937717" lon="-0.84181964">
<ele>1381</ele>
<time>2014-10-04T13:20:22Z</time>
</trkpt>
<trkpt lat="42.937874" lon="-0.8419754">
<ele>1379</ele>
<time>2014-10-04T13:20:24Z</time>
</trkpt>
<trkpt lat="42.93801" lon="-0.8421103">
<ele>1378</ele>
<time>2014-10-04T13:20:26Z</time>
</trkpt>
<trkpt lat="42.93818" lon="-0.8421618">
<ele>1377</ele>
<time>2014-10-04T13:20:28Z</time>
</trkpt>
<trkpt lat="42.93833" lon="-0.842043">
<ele>1377</ele>
<time>2014-10-04T13:20:30Z</time>
</trkpt>
<trkpt lat="42.93841" lon="-0.8417346">
<ele>1372</ele>
<time>2014-10-04T13:20:32Z</time>
</trkpt>
<trkpt lat="42.93841" lon="-0.841471">
<ele>1371</ele>
<time>2014-10-04T13:20:34Z</time>
</trkpt>
<trkpt lat="42.938324" lon="-0.8413863">
<ele>1371</ele>
<time>2014-10-04T13:20:36Z</time>
</trkpt>
<trkpt lat="42.93813" lon="-0.8414992">
<ele>1368</ele>
<time>2014-10-04T13:20:38Z</time>
</trkpt>
<trkpt lat="42.93797" lon="-0.8415885">
<ele>1366</ele>
<time>2014-10-04T13:20:40Z</time>
</trkpt>
<trkpt lat="42.937836" lon="-0.8416757">
<ele>1365</ele>
<time>2014-10-04T13:20:41Z</time>
</trkpt>
<trkpt lat="42.93774" lon="-0.8418051">
<ele>1365</ele>
<time>2014-10-04T13:20:44Z</time>
</trkpt>
<trkpt lat="42.93758" lon="-0.84192383">
<ele>1361</ele>
<time>2014-10-04T13:20:46Z</time>
</trkpt>
<trkpt lat="42.93743" lon="-0.8420334">
<ele>1359</ele>
<time>2014-10-04T13:20:47Z</time>
</trkpt>
<trkpt lat="42.937325" lon="-0.8422428">
<ele>1358</ele>
<time>2014-10-04T13:20:50Z</time>
</trkpt>
<trkpt lat="42.937263" lon="-0.8424425">
<ele>1351</ele>
<time>2014-10-04T13:20:52Z</time>
</trkpt>
<trkpt lat="42.93722" lon="-0.8426399">
<ele>1345</ele>
<time>2014-10-04T13:20:54Z</time>
</trkpt>
<trkpt lat="42.93718" lon="-0.8428442">
<ele>1342</ele>
<time>2014-10-04T13:20:56Z</time>
</trkpt>
<trkpt lat="42.937134" lon="-0.8430625">
<ele>1340</ele>
<time>2014-10-04T13:20:58Z</time>
</trkpt>
<trkpt lat="42.93713" lon="-0.8433128">
<ele>1338</ele>
<time>2014-10-04T13:21:00Z</time>
</trkpt>
<trkpt lat="42.937115" lon="-0.843516">
<ele>1333</ele>
<time>2014-10-04T13:21:02Z</time>
</trkpt>
<trkpt lat="42.93709" lon="-0.84371674">
<ele>1327</ele>
<time>2014-10-04T13:21:04Z</time>
</trkpt>
<trkpt lat="42.937004" lon="-0.84387577">
<ele>1322</ele>
<time>2014-10-04T13:21:06Z</time>
</trkpt>
<trkpt lat="42.936867" lon="-0.8439918">
<ele>1320</ele>
<time>2014-10-04T13:21:08Z</time>
</trkpt>
<trkpt lat="42.936703" lon="-0.84408426">
<ele>1317</ele>
<time>2014-10-04T13:21:09Z</time>
</trkpt>
<trkpt lat="42.93652" lon="-0.8441163">
<ele>1314</ele>
<time>2014-10-04T13:21:12Z</time>
</trkpt>
<trkpt lat="42.936348" lon="-0.8440964">
<ele>1309</ele>
<time>2014-10-04T13:21:14Z</time>
</trkpt>
<trkpt lat="42.936203" lon="-0.8441035">
<ele>1305</ele>
<time>2014-10-04T13:21:16Z</time>
</trkpt>
<trkpt lat="42.936047" lon="-0.8441017">
<ele>1301</ele>
<time>2014-10-04T13:21:18Z</time>
</trkpt>
<trkpt lat="42.93589" lon="-0.844103">
<ele>1297</ele>
<time>2014-10-04T13:21:20Z</time>
</trkpt>
<trkpt lat="42.935745" lon="-0.84410745">
<ele>1295</ele>
<time>2014-10-04T13:21:22Z</time>
</trkpt>
<trkpt lat="42.935566" lon="-0.8440844">
<ele>1293</ele>
<time>2014-10-04T13:21:24Z</time>
</trkpt>
<trkpt lat="42.935425" lon="-0.84390634">
<ele>1287</ele>
<time>2014-10-04T13:21:26Z</time>
</trkpt>
<trkpt lat="42.93525" lon="-0.8437715">
<ele>1285</ele>
<time>2014-10-04T13:21:27Z</time>
</trkpt>
<trkpt lat="42.935196" lon="-0.8436959">
<ele>1280</ele>
<time>2014-10-04T13:21:30Z</time>
</trkpt>
<trkpt lat="42.93505" lon="-0.8435745">
<ele>1276</ele>
<time>2014-10-04T13:21:32Z</time>
</trkpt>
<trkpt lat="42.93495" lon="-0.8434337">
<ele>1273</ele>
<time>2014-10-04T13:21:34Z</time>
</trkpt>
<trkpt lat="42.93483" lon="-0.8433026">
<ele>1269</ele>
<time>2014-10-04T13:21:35Z</time>
</trkpt>
<trkpt lat="42.93467" lon="-0.8432403">
<ele>1268</ele>
<time>2014-10-04T13:21:38Z</time>
</trkpt>
<trkpt lat="42.934498" lon="-0.84318745">
<ele>1263</ele>
<time>2014-10-04T13:21:40Z</time>
</trkpt>
<trkpt lat="42.934338" lon="-0.84315044">
<ele>1259</ele>
<time>2014-10-04T13:21:42Z</time>
</trkpt>
<trkpt lat="42.934196" lon="-0.84314245">
<ele>1257</ele>
<time>2014-10-04T13:21:43Z</time>
</trkpt>
<trkpt lat="42.934048" lon="-0.84322876">
<ele>1256</ele>
<time>2014-10-04T13:21:46Z</time>
</trkpt>
<trkpt lat="42.933887" lon="-0.8432596">
<ele>1252</ele>
<time>2014-10-04T13:21:48Z</time>
</trkpt>
<trkpt lat="42.93373" lon="-0.8432495">
<ele>1248</ele>
<time>2014-10-04T13:21:50Z</time>
</trkpt>
<trkpt lat="42.933582" lon="-0.8432589">
<ele>1243</ele>
<time>2014-10-04T13:21:52Z</time>
</trkpt>
<trkpt lat="42.933445" lon="-0.8432533">
<ele>1240</ele>
<time>2014-10-04T13:21:54Z</time>
</trkpt>
<trkpt lat="42.93331" lon="-0.84328526">
<ele>1240</ele>
<time>2014-10-04T13:21:55Z</time>
</trkpt>
<trkpt lat="42.93318" lon="-0.8433345">
<ele>1239</ele>
<time>2014-10-04T13:21:58Z</time>
</trkpt>
<trkpt lat="42.933044" lon="-0.84335303">
<ele>1235</ele>
<time>2014-10-04T13:22:00Z</time>
</trkpt>
<trkpt lat="42.93289" lon="-0.8433873">
<ele>1231</ele>
<time>2014-10-04T13:22:02Z</time>
</trkpt>
<trkpt lat="42.932735" lon="-0.843422">
<ele>1228</ele>
<time>2014-10-04T13:22:04Z</time>
</trkpt>
<trkpt lat="42.932594" lon="-0.8434589">
<ele>1222</ele>
<time>2014-10-04T13:22:06Z</time>
</trkpt>
<trkpt lat="42.93247" lon="-0.843537">
<ele>1220</ele>
<time>2014-10-04T13:22:08Z</time>
</trkpt>
<trkpt lat="42.932472" lon="-0.84377146">
<ele>1217</ele>
<time>2014-10-04T13:22:10Z</time>
</trkpt>
<trkpt lat="42.932487" lon="-0.84400666">
<ele>1215</ele>
<time>2014-10-04T13:22:11Z</time>
</trkpt>
<trkpt lat="42.93256" lon="-0.84416133">
<ele>1214</ele>
<time>2014-10-04T13:22:14Z</time>
</trkpt>
<trkpt lat="42.93276" lon="-0.8437306">
<ele>1207</ele>
<time>2014-10-04T13:22:16Z</time>
</trkpt>
<trkpt lat="42.932735" lon="-0.84350264">
<ele>1208</ele>
<time>2014-10-04T13:22:18Z</time>
</trkpt>
<trkpt lat="42.93272" lon="-0.8434184">
<ele>1207</ele>
<time>2014-10-04T13:22:20Z</time>
</trkpt>
<trkpt lat="42.932552" lon="-0.84374714">
<ele>1205</ele>
<time>2014-10-04T13:22:22Z</time>
</trkpt>
<trkpt lat="42.93245" lon="-0.8439948">
<ele>1201</ele>
<time>2014-10-04T13:22:24Z</time>
</trkpt>
<trkpt lat="42.932457" lon="-0.84420234">
<ele>1196</ele>
<time>2014-10-04T13:22:26Z</time>
</trkpt>
<trkpt lat="42.93236" lon="-0.8443919">
<ele>1193</ele>
<time>2014-10-04T13:22:28Z</time>
</trkpt>
<trkpt lat="42.93217" lon="-0.8444742">
<ele>1188</ele>
<time>2014-10-04T13:22:29Z</time>
</trkpt>
<trkpt lat="42.931988" lon="-0.8445015">
<ele>1185</ele>
<time>2014-10-04T13:22:32Z</time>
</trkpt>
<trkpt lat="42.93179" lon="-0.8444454">
<ele>1179</ele>
<time>2014-10-04T13:22:33Z</time>
</trkpt>
<trkpt lat="42.93161" lon="-0.8443499">
<ele>1175</ele>
<time>2014-10-04T13:22:36Z</time>
</trkpt>
<trkpt lat="42.931484" lon="-0.844325">
<ele>1172</ele>
<time>2014-10-04T13:22:38Z</time>
</trkpt>
<trkpt lat="42.931324" lon="-0.84433883">
<ele>1171</ele>
<time>2014-10-04T13:22:40Z</time>
</trkpt>
<trkpt lat="42.93121" lon="-0.84440506">
<ele>1169</ele>
<time>2014-10-04T13:22:42Z</time>
</trkpt>
<trkpt lat="42.93106" lon="-0.84456134">
<ele>1169</ele>
<time>2014-10-04T13:22:44Z</time>
</trkpt>
<trkpt lat="42.93104" lon="-0.8446518">
<ele>1167</ele>
<time>2014-10-04T13:22:46Z</time>
</trkpt>
<trkpt lat="42.931286" lon="-0.84447736">
<ele>1164</ele>
<time>2014-10-04T13:22:48Z</time>
</trkpt>
<trkpt lat="42.931454" lon="-0.8443415">
<ele>1163</ele>
<time>2014-10-04T13:22:50Z</time>
</trkpt>
<trkpt lat="42.931694" lon="-0.84419453">
<ele>1162</ele>
<time>2014-10-04T13:22:52Z</time>
</trkpt>
<trkpt lat="42.931896" lon="-0.84430104">
<ele>1158</ele>
<time>2014-10-04T13:22:54Z</time>
</trkpt>
<trkpt lat="42.932064" lon="-0.84452206">
<ele>1148</ele>
<time>2014-10-04T13:22:56Z</time>
</trkpt>
<trkpt lat="42.932076" lon="-0.84475833">
<ele>1141</ele>
<time>2014-10-04T13:22:58Z</time>
</trkpt>
<trkpt lat="42.931915" lon="-0.8448597">
<ele>1134</ele>
<time>2014-10-04T13:23:00Z</time>
</trkpt>
<trkpt lat="42.931744" lon="-0.8448178">
<ele>1126</ele>
<time>2014-10-04T13:23:02Z</time>
</trkpt>
<trkpt lat="42.931618" lon="-0.8447392">
<ele>1122</ele>
<time>2014-10-04T13:23:04Z</time>
</trkpt>
<trkpt lat="42.931484" lon="-0.84464407">
<ele>1115</ele>
<time>2014-10-04T13:23:06Z</time>
</trkpt>
<trkpt lat="42.931362" lon="-0.8444632">
<ele>1111</ele>
<time>2014-10-04T13:23:08Z</time>
</trkpt>
<trkpt lat="42.93129" lon="-0.844258">
<ele>1109</ele>
<time>2014-10-04T13:23:10Z</time>
</trkpt>
<trkpt lat="42.93124" lon="-0.8440842">
<ele>1107</ele>
<time>2014-10-04T13:23:12Z</time>
</trkpt>
<trkpt lat="42.9311" lon="-0.843956">
<ele>1105</ele>
<time>2014-10-04T13:23:14Z</time>
</trkpt>
<trkpt lat="42.930965" lon="-0.8438344">
<ele>1103</ele>
<time>2014-10-04T13:23:16Z</time>
</trkpt>
<trkpt lat="42.930782" lon="-0.8438553">
<ele>1100</ele>
<time>2014-10-04T13:23:18Z</time>
</trkpt>
<trkpt lat="42.930614" lon="-0.8438379">
<ele>1100</ele>
<time>2014-10-04T13:23:19Z</time>
</trkpt>
<trkpt lat="42.930504" lon="-0.8439696">
<ele>1098</ele>
<time>2014-10-04T13:23:22Z</time>
</trkpt>
<trkpt lat="42.930386" lon="-0.84410274">
<ele>1097</ele>
<time>2014-10-04T13:23:24Z</time>
</trkpt>
<trkpt lat="42.93034" lon="-0.8442843">
<ele>1096</ele>
<time>2014-10-04T13:23:26Z</time>
</trkpt>
<trkpt lat="42.9304" lon="-0.8444534">
<ele>1093</ele>
<time>2014-10-04T13:23:28Z</time>
</trkpt>
<trkpt lat="42.930508" lon="-0.84454364">
<ele>1092</ele>
<time>2014-10-04T13:23:30Z</time>
</trkpt>
<trkpt lat="42.930687" lon="-0.84443253">
<ele>1092</ele>
<time>2014-10-04T13:23:32Z</time>
</trkpt>
<trkpt lat="42.930832" lon="-0.8444284">
<ele>1088</ele>
<time>2014-10-04T13:23:34Z</time>
</trkpt>
<trkpt lat="42.93088" lon="-0.84457016">
<ele>1081</ele>
<time>2014-10-04T13:23:36Z</time>
</trkpt>
<trkpt lat="42.930782" lon="-0.8447609">
<ele>1075</ele>
<time>2014-10-04T13:23:38Z</time>
</trkpt>
<trkpt lat="42.930664" lon="-0.8448801">
<ele>1074</ele>
<time>2014-10-04T13:23:40Z</time>
</trkpt>
<trkpt lat="42.93053" lon="-0.8450147">
<ele>1072</ele>
<time>2014-10-04T13:23:42Z</time>
</trkpt>
<trkpt lat="42.93063" lon="-0.84523696">
<ele>1070</ele>
<time>2014-10-04T13:23:44Z</time>
</trkpt>
<trkpt lat="42.930714" lon="-0.8453694">
<ele>1069</ele>
<time>2014-10-04T13:23:46Z</time>
</trkpt>
<trkpt lat="42.930782" lon="-0.84553957">
<ele>1062</ele>
<time>2014-10-04T13:23:48Z</time>
</trkpt>
<trkpt lat="42.93085" lon="-0.84573644">
<ele>1058</ele>
<time>2014-10-04T13:23:50Z</time>
</trkpt>
<trkpt lat="42.93095" lon="-0.8458996">
<ele>1055</ele>
<time>2014-10-04T13:23:52Z</time>
</trkpt>
<trkpt lat="42.930904" lon="-0.8461341">
<ele>1052</ele>
<time>2014-10-04T13:23:54Z</time>
</trkpt>
<trkpt lat="42.930817" lon="-0.84636897">
<ele>1052</ele>
<time>2014-10-04T13:23:56Z</time>
</trkpt>
<trkpt lat="42.93074" lon="-0.8465637">
<ele>1052</ele>
<time>2014-10-04T13:23:58Z</time>
</trkpt>
<trkpt lat="42.93069" lon="-0.84673715">
<ele>1051</ele>
<time>2014-10-04T13:24:00Z</time>
</trkpt>
<trkpt lat="42.930595" lon="-0.84701467">
<ele>1049</ele>
<time>2014-10-04T13:24:02Z</time>
</trkpt>
<trkpt lat="42.93062" lon="-0.8472219">
<ele>1047</ele>
<time>2014-10-04T13:24:04Z</time>
</trkpt>
<trkpt lat="42.930626" lon="-0.8473761">
<ele>1044</ele>
<time>2014-10-04T13:24:06Z</time>
</trkpt>
<trkpt lat="42.930595" lon="-0.8475417">
<ele>1041</ele>
<time>2014-10-04T13:24:08Z</time>
</trkpt>
<trkpt lat="42.930595" lon="-0.8477127">
<ele>1040</ele>
<time>2014-10-04T13:24:10Z</time>
</trkpt>
<trkpt lat="42.93062" lon="-0.8478102">
<ele>1038</ele>
<time>2014-10-04T13:24:12Z</time>
</trkpt>
<trkpt lat="42.93059" lon="-0.8478717">
<ele>1038</ele>
<time>2014-10-04T13:24:14Z</time>
</trkpt>
<trkpt lat="42.930573" lon="-0.84789795">
<ele>1036</ele>
<time>2014-10-04T13:24:16Z</time>
</trkpt>
<trkpt lat="42.930573" lon="-0.8479272">
<ele>1033</ele>
<time>2014-10-04T13:24:18Z</time>
</trkpt>
<trkpt lat="42.93059" lon="-0.8479413">
<ele>1034</ele>
<time>2014-10-04T13:24:19Z</time>
</trkpt>
<trkpt lat="42.930603" lon="-0.84794444">
<ele>1034</ele>
<time>2014-10-04T13:24:22Z</time>
</trkpt>
<trkpt lat="42.930607" lon="-0.8479372">
<ele>1034</ele>
<time>2014-10-04T13:24:24Z</time>
</trkpt>
<trkpt lat="42.930607" lon="-0.8479335">
<ele>1034</ele>
<time>2014-10-04T13:24:25Z</time>
</trkpt>
<trkpt lat="42.930607" lon="-0.8479258">
<ele>1034</ele>
<time>2014-10-04T13:24:28Z</time>
</trkpt>
<trkpt lat="42.930607" lon="-0.84792167">
<ele>1034</ele>
<time>2014-10-04T13:24:30Z</time>
</trkpt>
<trkpt lat="42.930607" lon="-0.8479153">
<ele>1034</ele>
<time>2014-10-04T13:24:32Z</time>
</trkpt>
<trkpt lat="42.930607" lon="-0.84791344">
<ele>1034</ele>
<time>2014-10-04T13:24:35Z</time>
</trkpt>
<trkpt lat="42.930607" lon="-0.8479142">
<ele>1034</ele>
<time>2014-10-04T13:24:36Z</time>
</trkpt>
<trkpt lat="42.930607" lon="-0.84791553">
<ele>1034</ele>
<time>2014-10-04T13:24:39Z</time>
</trkpt>
<trkpt lat="42.930607" lon="-0.84791553">
<ele>1034</ele>
<time>2014-10-04T13:24:40Z</time>
</trkpt>
<trkpt lat="42.930607" lon="-0.84791595">
<ele>1033</ele>
<time>2014-10-04T13:24:43Z</time>
</trkpt>
<trkpt lat="42.930607" lon="-0.84791607">
<ele>1033</ele>
<time>2014-10-04T13:24:45Z</time>
</trkpt>
<trkpt lat="42.930607" lon="-0.8479161">
<ele>1033</ele>
<time>2014-10-04T13:24:46Z</time>
</trkpt>
<trkpt lat="42.930607" lon="-0.8479161">
<ele>1033</ele>
<time>2014-10-04T13:24:49Z</time>
</trkpt>
<trkpt lat="42.930607" lon="-0.84791595">
<ele>1033</ele>
<time>2014-10-04T13:24:50Z</time>
</trkpt>
<trkpt lat="42.930607" lon="-0.84791607">
<ele>1033</ele>
<time>2014-10-04T13:24:53Z</time>
</trkpt>
<trkpt lat="42.930607" lon="-0.8479169">
<ele>1033</ele>
<time>2014-10-04T13:24:55Z</time>
</trkpt>
<trkpt lat="42.93061" lon="-0.84791654">
<ele>1034</ele>
<time>2014-10-04T13:24:57Z</time>
</trkpt>
<trkpt lat="42.93061" lon="-0.8479166">
<ele>1034</ele>
<time>2014-10-04T13:24:59Z</time>
</trkpt>
<trkpt lat="42.93061" lon="-0.8479165">
<ele>1034</ele>
<time>2014-10-04T13:25:01Z</time>
</trkpt>
<trkpt lat="42.93061" lon="-0.8479168">
<ele>1034</ele>
<time>2014-10-04T13:25:03Z</time>
</trkpt>
<trkpt lat="42.93061" lon="-0.84791654">
<ele>1034</ele>
<time>2014-10-04T13:25:05Z</time>
</trkpt>
<trkpt lat="42.930634" lon="-0.847903">
<ele>1035</ele>
<time>2014-10-04T13:25:07Z</time>
</trkpt>
<trkpt lat="42.93065" lon="-0.84789425">
<ele>1033</ele>
<time>2014-10-04T13:25:09Z</time>
</trkpt>
<trkpt lat="42.930656" lon="-0.847872">
<ele>1031</ele>
<time>2014-10-04T13:25:11Z</time>
</trkpt>
<trkpt lat="42.930656" lon="-0.84784913">
<ele>1031</ele>
<time>2014-10-04T13:25:13Z</time>
</trkpt>
<trkpt lat="42.930668" lon="-0.84780705">
<ele>1032</ele>
<time>2014-10-04T13:25:14Z</time>
</trkpt>
<trkpt lat="42.93067" lon="-0.8477935">
<ele>1030</ele>
<time>2014-10-04T13:25:17Z</time>
</trkpt>
<trkpt lat="42.93069" lon="-0.84776276">
<ele>1032</ele>
<time>2014-10-04T13:25:18Z</time>
</trkpt>
<trkpt lat="42.930656" lon="-0.8477862">
<ele>1031</ele>
<time>2014-10-04T13:25:21Z</time>
</trkpt>
<trkpt lat="42.930653" lon="-0.84774595">
<ele>1030</ele>
<time>2014-10-04T13:25:23Z</time>
</trkpt>
<trkpt lat="42.930653" lon="-0.847732">
<ele>1030</ele>
<time>2014-10-04T13:25:25Z</time>
</trkpt>
<trkpt lat="42.93065" lon="-0.8477064">
<ele>1028</ele>
<time>2014-10-04T13:25:27Z</time>
</trkpt>
<trkpt lat="42.93065" lon="-0.8476865">
<ele>1028</ele>
<time>2014-10-04T13:25:28Z</time>
</trkpt>
<trkpt lat="42.93064" lon="-0.84766114">
<ele>1027</ele>
<time>2014-10-04T13:25:31Z</time>
</trkpt>
<trkpt lat="42.930656" lon="-0.8475877">
<ele>1029</ele>
<time>2014-10-04T13:25:34Z</time>
</trkpt>
<trkpt lat="42.930653" lon="-0.847583">
<ele>1028</ele>
<time>2014-10-04T13:25:36Z</time>
</trkpt>
<trkpt lat="42.93066" lon="-0.84756273">
<ele>1027</ele>
<time>2014-10-04T13:25:37Z</time>
</trkpt>
<trkpt lat="42.93067" lon="-0.84753466">
<ele>1027</ele>
<time>2014-10-04T13:25:39Z</time>
</trkpt>
<trkpt lat="42.930683" lon="-0.84751326">
<ele>1028</ele>
<time>2014-10-04T13:25:42Z</time>
</trkpt>
<trkpt lat="42.930683" lon="-0.8474975">
<ele>1029</ele>
<time>2014-10-04T13:25:44Z</time>
</trkpt>
<trkpt lat="42.930664" lon="-0.8474764">
<ele>1028</ele>
<time>2014-10-04T13:25:46Z</time>
</trkpt>
<trkpt lat="42.930683" lon="-0.8474455">
<ele>1026</ele>
<time>2014-10-04T13:25:48Z</time>
</trkpt>
<trkpt lat="42.930695" lon="-0.84741145">
<ele>1026</ele>
<time>2014-10-04T13:25:49Z</time>
</trkpt>
<trkpt lat="42.930714" lon="-0.84738773">
<ele>1027</ele>
<time>2014-10-04T13:25:51Z</time>
</trkpt>
<trkpt lat="42.93074" lon="-0.84736925">
<ele>1027</ele>
<time>2014-10-04T13:25:54Z</time>
</trkpt>
<trkpt lat="42.93071" lon="-0.8473668">
<ele>1024</ele>
<time>2014-10-04T13:25:56Z</time>
</trkpt>
<trkpt lat="42.930717" lon="-0.8473538">
<ele>1024</ele>
<time>2014-10-04T13:25:58Z</time>
</trkpt>
<trkpt lat="42.930717" lon="-0.84735495">
<ele>1025</ele>
<time>2014-10-04T13:25:59Z</time>
</trkpt>
<trkpt lat="42.930717" lon="-0.8473454">
<ele>1025</ele>
<time>2014-10-04T13:26:01Z</time>
</trkpt>
<trkpt lat="42.93071" lon="-0.8473475">
<ele>1025</ele>
<time>2014-10-04T13:26:04Z</time>
</trkpt>
<trkpt lat="42.93071" lon="-0.8473451">
<ele>1024</ele>
<time>2014-10-04T13:26:06Z</time>
</trkpt>
<trkpt lat="42.930706" lon="-0.8473423">
<ele>1023</ele>
<time>2014-10-04T13:26:08Z</time>
</trkpt>
<trkpt lat="42.930702" lon="-0.84732634">
<ele>1024</ele>
<time>2014-10-04T13:26:10Z</time>
</trkpt>
<trkpt lat="42.930702" lon="-0.8473218">
<ele>1024</ele>
<time>2014-10-04T13:26:12Z</time>
</trkpt>
<trkpt lat="42.93072" lon="-0.84730387">
<ele>1024</ele>
<time>2014-10-04T13:26:14Z</time>
</trkpt>
<trkpt lat="42.930717" lon="-0.8473056">
<ele>1023</ele>
<time>2014-10-04T13:26:16Z</time>
</trkpt>
<trkpt lat="42.93072" lon="-0.8473026">
<ele>1023</ele>
<time>2014-10-04T13:26:18Z</time>
</trkpt>
<trkpt lat="42.930717" lon="-0.8473039">
<ele>1023</ele>
<time>2014-10-04T13:26:20Z</time>
</trkpt>
<trkpt lat="42.930717" lon="-0.8473032">
<ele>1023</ele>
<time>2014-10-04T13:26:22Z</time>
</trkpt>
<trkpt lat="42.93072" lon="-0.847303">
<ele>1023</ele>
<time>2014-10-04T13:26:24Z</time>
</trkpt>
<trkpt lat="42.93072" lon="-0.8473032">
<ele>1023</ele>
<time>2014-10-04T13:26:26Z</time>
</trkpt>
<trkpt lat="42.93072" lon="-0.84730315">
<ele>1023</ele>
<time>2014-10-04T13:26:28Z</time>
</trkpt>
<trkpt lat="42.93072" lon="-0.84730315">
<ele>1023</ele>
<time>2014-10-04T13:26:30Z</time>
</trkpt>
<trkpt lat="42.93072" lon="-0.847304">
<ele>1023</ele>
<time>2014-10-04T13:26:32Z</time>
</trkpt>
<trkpt lat="42.93071" lon="-0.8473108">
<ele>1021</ele>
<time>2014-10-04T13:26:34Z</time>
</trkpt>
<trkpt lat="42.930714" lon="-0.847301">
<ele>1021</ele>
<time>2014-10-04T13:26:36Z</time>
</trkpt>
<trkpt lat="42.930717" lon="-0.8473037">
<ele>1022</ele>
<time>2014-10-04T13:26:38Z</time>
</trkpt>
<trkpt lat="42.930725" lon="-0.8473004">
<ele>1022</ele>
<time>2014-10-04T13:26:40Z</time>
</trkpt>
<trkpt lat="42.930725" lon="-0.84728765">
<ele>1023</ele>
<time>2014-10-04T13:26:42Z</time>
</trkpt>
<trkpt lat="42.930733" lon="-0.8472814">
<ele>1023</ele>
<time>2014-10-04T13:26:44Z</time>
</trkpt>
<trkpt lat="42.93073" lon="-0.84728605">
<ele>1023</ele>
<time>2014-10-04T13:26:46Z</time>
</trkpt>
<trkpt lat="42.930737" lon="-0.8472842">
<ele>1022</ele>
<time>2014-10-04T13:26:48Z</time>
</trkpt>
<trkpt lat="42.930737" lon="-0.84728014">
<ele>1023</ele>
<time>2014-10-04T13:26:50Z</time>
</trkpt>
<trkpt lat="42.93074" lon="-0.84727997">
<ele>1023</ele>
<time>2014-10-04T13:26:52Z</time>
</trkpt>
<trkpt lat="42.93074" lon="-0.8472795">
<ele>1023</ele>
<time>2014-10-04T13:26:54Z</time>
</trkpt>
<trkpt lat="42.93074" lon="-0.8472794">
<ele>1023</ele>
<time>2014-10-04T13:26:56Z</time>
</trkpt>
<trkpt lat="42.93074" lon="-0.84727937">
<ele>1023</ele>
<time>2014-10-04T13:26:58Z</time>
</trkpt>
<trkpt lat="42.93074" lon="-0.84727937">
<ele>1023</ele>
<time>2014-10-04T13:27:00Z</time>
</trkpt>
<trkpt lat="42.93074" lon="-0.84727925">
<ele>1023</ele>
<time>2014-10-04T13:27:02Z</time>
</trkpt>
<trkpt lat="42.93074" lon="-0.84727925">
<ele>1023</ele>
<time>2014-10-04T13:27:04Z</time>
</trkpt>
<trkpt lat="42.93074" lon="-0.8472793">
<ele>1023</ele>
<time>2014-10-04T13:27:06Z</time>
</trkpt>
<trkpt lat="42.93074" lon="-0.8472793">
<ele>1023</ele>
<time>2014-10-04T13:27:08Z</time>
</trkpt>
<trkpt lat="42.93074" lon="-0.8472793">
<ele>1023</ele>
<time>2014-10-04T13:27:10Z</time>
</trkpt>
<trkpt lat="42.93074" lon="-0.8472793">
<ele>1023</ele>
<time>2014-10-04T13:27:12Z</time>
</trkpt>
<trkpt lat="42.93074" lon="-0.8472793">
<ele>1023</ele>
<time>2014-10-04T13:27:14Z</time>
</trkpt>
<trkpt lat="42.93074" lon="-0.8472793">
<ele>1023</ele>
<time>2014-10-04T13:27:16Z</time>
</trkpt>
<trkpt lat="42.93074" lon="-0.84727925">
<ele>1023</ele>
<time>2014-10-04T13:27:18Z</time>
</trkpt>
<trkpt lat="42.93074" lon="-0.84727925">
<ele>1023</ele>
<time>2014-10-04T13:27:20Z</time>
</trkpt>
<trkpt lat="42.93074" lon="-0.84727925">
<ele>1023</ele>
<time>2014-10-04T13:27:22Z</time>
</trkpt>
<trkpt lat="42.93074" lon="-0.8472792">
<ele>1023</ele>
<time>2014-10-04T13:27:24Z</time>
</trkpt>
<trkpt lat="42.93074" lon="-0.84727913">
<ele>1023</ele>
<time>2014-10-04T13:27:26Z</time>
</trkpt>
<trkpt lat="42.93074" lon="-0.8472791">
<ele>1023</ele>
<time>2014-10-04T13:27:28Z</time>
</trkpt>
<trkpt lat="42.93074" lon="-0.847279">
<ele>1023</ele>
<time>2014-10-04T13:27:30Z</time>
</trkpt>
<trkpt lat="42.93074" lon="-0.847279">
<ele>1023</ele>
<time>2014-10-04T13:27:32Z</time>
</trkpt>
<trkpt lat="42.93074" lon="-0.847279">
<ele>1023</ele>
<time>2014-10-04T13:27:34Z</time>
</trkpt>
<trkpt lat="42.93074" lon="-0.84727895">
<ele>1023</ele>
<time>2014-10-04T13:27:36Z</time>
</trkpt>
<trkpt lat="42.93074" lon="-0.84727895">
<ele>1023</ele>
<time>2014-10-04T13:27:38Z</time>
</trkpt>
<trkpt lat="42.93074" lon="-0.8472789">
<ele>1023</ele>
<time>2014-10-04T13:27:40Z</time>
</trkpt>
<trkpt lat="42.93074" lon="-0.8472789">
<ele>1023</ele>
<time>2014-10-04T13:27:42Z</time>
</trkpt>
<trkpt lat="42.93074" lon="-0.84727895">
<ele>1023</ele>
<time>2014-10-04T13:27:44Z</time>
</trkpt>
<trkpt lat="42.93074" lon="-0.847279">
<ele>1023</ele>
<time>2014-10-04T13:27:46Z</time>
</trkpt>
<trkpt lat="42.93074" lon="-0.8472791">
<ele>1023</ele>
<time>2014-10-04T13:27:48Z</time>
</trkpt>
<trkpt lat="42.93074" lon="-0.8472791">
<ele>1023</ele>
<time>2014-10-04T13:27:50Z</time>
</trkpt>
<trkpt lat="42.93074" lon="-0.8472791">
<ele>1023</ele>
<time>2014-10-04T13:27:52Z</time>
</trkpt>
<trkpt lat="42.93074" lon="-0.847279">
<ele>1023</ele>
<time>2014-10-04T13:27:54Z</time>
</trkpt>
<trkpt lat="42.93074" lon="-0.84727895">
<ele>1023</ele>
<time>2014-10-04T13:27:56Z</time>
</trkpt>
<trkpt lat="42.93074" lon="-0.8472789">
<ele>1023</ele>
<time>2014-10-04T13:27:58Z</time>
</trkpt>
<trkpt lat="42.93074" lon="-0.84727883">
<ele>1023</ele>
<time>2014-10-04T13:28:00Z</time>
</trkpt>
<trkpt lat="42.93074" lon="-0.8472788">
<ele>1023</ele>
<time>2014-10-04T13:28:02Z</time>
</trkpt>
<trkpt lat="42.93074" lon="-0.8472788">
<ele>1023</ele>
<time>2014-10-04T13:28:04Z</time>
</trkpt>
<trkpt lat="42.93074" lon="-0.8472787">
<ele>1023</ele>
<time>2014-10-04T13:28:06Z</time>
</trkpt>
<trkpt lat="42.93074" lon="-0.8472788">
<ele>1023</ele>
<time>2014-10-04T13:28:08Z</time>
</trkpt>
<trkpt lat="42.93074" lon="-0.8472788">
<ele>1023</ele>
<time>2014-10-04T13:28:09Z</time>
</trkpt>
<trkpt lat="42.93074" lon="-0.84727883">
<ele>1023</ele>
<time>2014-10-04T13:28:11Z</time>
</trkpt>
<trkpt lat="42.93074" lon="-0.84727883">
<ele>1023</ele>
<time>2014-10-04T13:28:14Z</time>
</trkpt>
<trkpt lat="42.93074" lon="-0.84727883">
<ele>1023</ele>
<time>2014-10-04T13:28:16Z</time>
</trkpt>
<trkpt lat="42.93074" lon="-0.8472788">
<ele>1023</ele>
<time>2014-10-04T13:28:17Z</time>
</trkpt>
<trkpt lat="42.93074" lon="-0.8472788">
<ele>1023</ele>
<time>2014-10-04T13:28:20Z</time>
</trkpt>
<trkpt lat="42.93074" lon="-0.8472788">
<ele>1023</ele>
<time>2014-10-04T13:28:22Z</time>
</trkpt>
<trkpt lat="42.93074" lon="-0.8472788">
<ele>1023</ele>
<time>2014-10-04T13:28:24Z</time>
</trkpt>
<trkpt lat="42.93074" lon="-0.8472788">
<ele>1023</ele>
<time>2014-10-04T13:28:26Z</time>
</trkpt>
		</trkseg>
	</trk>
</gpx>
